<?xml version="1.0" encoding="UTF-8" standalone="no" ?>
<gpx xmlns="http://www.topografix.com/GPX/1/1" xmlns:xsi="http://www.w3.org/2001/XMLSchema-instance" xsi:schemaLocation="http://www.topografix.com/GPX/1/1 http://www.topografix.com/GPX/1/1/gpx.xsd" version="1.1" creator="VisuGPX - https://www.visugpx.com">
  <metadata>
    <name>Vendredi 4 mars au Sabot (Jacky et moi)</name>
    <desc><![CDATA[Heure de départ: 14:20 - Heure d'arrivée: 16:17 - Distance: 18 km
Ciel bleu, terrain très sec, température correcte
On a longé la voie ferrée mais je n'ai déclenché l'enregistrement que vers Cora, donc après 2 km.
Au Sabot il y avait pas mal de monde pour cueillir des jonquilles...
Pour moi la montée a été laborieuse (3 pauses) à la différence de Jacky, impérial alors que c'était sa première sortie depuis octobre ! 
Et pour nous requinquer : Leffe à l'arrivée !
PS : on n'a pas ramassé de jonquilles, vu qu'il y en a suffisamment à Coulevon.]]></desc>
  </metadata>
  <wpt lat="47.62272" lon="6.17023">
    <ele>220</ele>
    <name><![CDATA[0000438]]></name>
    <type><![CDATA[Point de départ]]></type>
  </wpt>
  <wpt lat="47.64463" lon="6.18062">
    <ele>222.7</ele>
    <name><![CDATA[0000439]]></name>
    <desc><![CDATA[<p><br /><h3>Nom: Segment: 1</h3><br />Heure de départ: 03/04/2022 14:34<br/>Heure d'arrivée: 03/04/2022 16:17<br/>Distance: 16,1km (01:42)<br/>Temps déplacement: 01:29<br/>Vitesse moyenne: 9,44 km/h<br/>Vitesse moyenne mouv.: 10,8 km/h<br/>Vitesse Max.: 39,07 km/h<br/>Altitude minimale: 188 m<br/>Altitude maximale: 352 m<br/>Vitesse de montée: 692,8 m/h<br/>Vitesse de descente: -979,6 m/h<br/>Gain d'altitude: 548 m<br/>Perte d'altitude: -531 m<br/>Temps de montée: 00:47<br/>Temps de descente: 00:32<br/></p>]]></desc>
    <type><![CDATA[Point d'arrivée]]></type>
  </wpt>
  <trk>
    <name><![CDATA[2022-03-04 14:34]]></name>
    <desc><![CDATA[<p>Heure de départ: 03/04/2022 14:34<br/>Heure d'arrivée: 03/04/2022 16:17<br/>Distance: 16,1 km (01:42)<br/>Temps déplacement: 01:29<br/>Vitesse moyenne: 9,44 km/h<br/>Vitesse moyenne mouv.: 10,84 km/h<br/>Vitesse Max.: 39,07 km/h<br/>Altitude minimale: 188 m<br/>Altitude maximale: 352 m<br/>Vitesse de montée: 297,3 m/h<br/>Vitesse de descente: -439,3 m/h<br/>Gain d'altitude: 240 m<br/>Perte d'altitude: -252 m<br/>Temps de montée: 00:48<br/>Temps de descente: 00:34<br/></p><hr align="center" width="480" style="height: 2px; width: 517px"/>]]></desc>
    <trkseg>
      <trkpt lat="47.62272" lon="6.17023">
        <ele>220</ele>
        <time>2022-03-04T13:34:44Z</time>
      </trkpt>
      <trkpt lat="47.62271" lon="6.17039">
        <ele>220.1</ele>
        <time>2022-03-04T13:34:44Z</time>
      </trkpt>
      <trkpt lat="47.62265" lon="6.17041">
        <ele>220.2</ele>
        <time>2022-03-04T13:34:47Z</time>
      </trkpt>
      <trkpt lat="47.62258" lon="6.1704">
        <ele>220.3</ele>
        <time>2022-03-04T13:34:49Z</time>
      </trkpt>
      <trkpt lat="47.62253" lon="6.17042">
        <ele>220.5</ele>
        <time>2022-03-04T13:34:50Z</time>
      </trkpt>
      <trkpt lat="47.62246" lon="6.1704">
        <ele>220.7</ele>
        <time>2022-03-04T13:34:52Z</time>
      </trkpt>
      <trkpt lat="47.6224" lon="6.17034">
        <ele>220.7</ele>
        <time>2022-03-04T13:34:55Z</time>
      </trkpt>
      <trkpt lat="47.62234" lon="6.17031">
        <ele>220.7</ele>
        <time>2022-03-04T13:34:57Z</time>
      </trkpt>
      <trkpt lat="47.6223" lon="6.17028">
        <ele>220.7</ele>
        <time>2022-03-04T13:34:59Z</time>
      </trkpt>
      <trkpt lat="47.62224" lon="6.17025">
        <ele>220.9</ele>
        <time>2022-03-04T13:35:01Z</time>
      </trkpt>
      <trkpt lat="47.62219" lon="6.17021">
        <ele>221.1</ele>
        <time>2022-03-04T13:35:02Z</time>
      </trkpt>
      <trkpt lat="47.62213" lon="6.17016">
        <ele>221.2</ele>
        <time>2022-03-04T13:35:04Z</time>
      </trkpt>
      <trkpt lat="47.62207" lon="6.17012">
        <ele>221.2</ele>
        <time>2022-03-04T13:35:06Z</time>
      </trkpt>
      <trkpt lat="47.62202" lon="6.17008">
        <ele>221.2</ele>
        <time>2022-03-04T13:35:07Z</time>
      </trkpt>
      <trkpt lat="47.62196" lon="6.17003">
        <ele>221.1</ele>
        <time>2022-03-04T13:35:09Z</time>
      </trkpt>
      <trkpt lat="47.62191" lon="6.16999">
        <ele>221.1</ele>
        <time>2022-03-04T13:35:11Z</time>
      </trkpt>
      <trkpt lat="47.62186" lon="6.16996">
        <ele>221.2</ele>
        <time>2022-03-04T13:35:13Z</time>
      </trkpt>
      <trkpt lat="47.62182" lon="6.16992">
        <ele>221.3</ele>
        <time>2022-03-04T13:35:15Z</time>
      </trkpt>
      <trkpt lat="47.62177" lon="6.1699">
        <ele>221.4</ele>
        <time>2022-03-04T13:35:17Z</time>
      </trkpt>
      <trkpt lat="47.62173" lon="6.16993">
        <ele>221.6</ele>
        <time>2022-03-04T13:35:21Z</time>
      </trkpt>
      <trkpt lat="47.62171" lon="6.17">
        <ele>221.9</ele>
        <time>2022-03-04T13:35:26Z</time>
      </trkpt>
      <trkpt lat="47.62168" lon="6.17007">
        <ele>222.2</ele>
        <time>2022-03-04T13:35:28Z</time>
      </trkpt>
      <trkpt lat="47.62166" lon="6.17016">
        <ele>222.6</ele>
        <time>2022-03-04T13:35:31Z</time>
      </trkpt>
      <trkpt lat="47.62163" lon="6.17025">
        <ele>222.7</ele>
        <time>2022-03-04T13:35:33Z</time>
      </trkpt>
      <trkpt lat="47.62161" lon="6.17031">
        <ele>222.4</ele>
        <time>2022-03-04T13:35:35Z</time>
      </trkpt>
      <trkpt lat="47.6216" lon="6.17038">
        <ele>221.9</ele>
        <time>2022-03-04T13:35:37Z</time>
      </trkpt>
      <trkpt lat="47.62158" lon="6.17046">
        <ele>221.3</ele>
        <time>2022-03-04T13:35:39Z</time>
      </trkpt>
      <trkpt lat="47.62157" lon="6.17057">
        <ele>220.6</ele>
        <time>2022-03-04T13:35:41Z</time>
      </trkpt>
      <trkpt lat="47.62156" lon="6.17065">
        <ele>220.4</ele>
        <time>2022-03-04T13:35:42Z</time>
      </trkpt>
      <trkpt lat="47.62155" lon="6.17072">
        <ele>220.2</ele>
        <time>2022-03-04T13:35:44Z</time>
      </trkpt>
      <trkpt lat="47.62153" lon="6.17081">
        <ele>220</ele>
        <time>2022-03-04T13:35:45Z</time>
      </trkpt>
      <trkpt lat="47.62152" lon="6.17089">
        <ele>219.9</ele>
        <time>2022-03-04T13:35:46Z</time>
      </trkpt>
      <trkpt lat="47.6215" lon="6.171">
        <ele>219.8</ele>
        <time>2022-03-04T13:35:48Z</time>
      </trkpt>
      <trkpt lat="47.62149" lon="6.17106">
        <ele>219.7</ele>
        <time>2022-03-04T13:35:49Z</time>
      </trkpt>
      <trkpt lat="47.62147" lon="6.17115">
        <ele>219.7</ele>
        <time>2022-03-04T13:35:50Z</time>
      </trkpt>
      <trkpt lat="47.62146" lon="6.17126">
        <ele>219.7</ele>
        <time>2022-03-04T13:35:51Z</time>
      </trkpt>
      <trkpt lat="47.62145" lon="6.17134">
        <ele>219.8</ele>
        <time>2022-03-04T13:35:52Z</time>
      </trkpt>
      <trkpt lat="47.62143" lon="6.17141">
        <ele>219.8</ele>
        <time>2022-03-04T13:35:53Z</time>
      </trkpt>
      <trkpt lat="47.62142" lon="6.17149">
        <ele>219.6</ele>
        <time>2022-03-04T13:35:54Z</time>
      </trkpt>
      <trkpt lat="47.62142" lon="6.17156">
        <ele>219.3</ele>
        <time>2022-03-04T13:35:55Z</time>
      </trkpt>
      <trkpt lat="47.6214" lon="6.17165">
        <ele>219.1</ele>
        <time>2022-03-04T13:35:56Z</time>
      </trkpt>
      <trkpt lat="47.62138" lon="6.17173">
        <ele>219</ele>
        <time>2022-03-04T13:35:57Z</time>
      </trkpt>
      <trkpt lat="47.62136" lon="6.17183">
        <ele>219</ele>
        <time>2022-03-04T13:35:59Z</time>
      </trkpt>
      <trkpt lat="47.62134" lon="6.17192">
        <ele>219</ele>
        <time>2022-03-04T13:36:00Z</time>
      </trkpt>
      <trkpt lat="47.62132" lon="6.17199">
        <ele>219</ele>
        <time>2022-03-04T13:36:01Z</time>
      </trkpt>
      <trkpt lat="47.6213" lon="6.17206">
        <ele>219</ele>
        <time>2022-03-04T13:36:02Z</time>
      </trkpt>
      <trkpt lat="47.62129" lon="6.17213">
        <ele>219</ele>
        <time>2022-03-04T13:36:03Z</time>
      </trkpt>
      <trkpt lat="47.62127" lon="6.17223">
        <ele>219</ele>
        <time>2022-03-04T13:36:05Z</time>
      </trkpt>
      <trkpt lat="47.62126" lon="6.1723">
        <ele>219</ele>
        <time>2022-03-04T13:36:06Z</time>
      </trkpt>
      <trkpt lat="47.62123" lon="6.17239">
        <ele>219</ele>
        <time>2022-03-04T13:36:08Z</time>
      </trkpt>
      <trkpt lat="47.62121" lon="6.1725">
        <ele>219</ele>
        <time>2022-03-04T13:36:10Z</time>
      </trkpt>
      <trkpt lat="47.62119" lon="6.17257">
        <ele>219</ele>
        <time>2022-03-04T13:36:11Z</time>
      </trkpt>
      <trkpt lat="47.62118" lon="6.17267">
        <ele>219</ele>
        <time>2022-03-04T13:36:13Z</time>
      </trkpt>
      <trkpt lat="47.62117" lon="6.17275">
        <ele>219</ele>
        <time>2022-03-04T13:36:14Z</time>
      </trkpt>
      <trkpt lat="47.62115" lon="6.17281">
        <ele>219.1</ele>
        <time>2022-03-04T13:36:15Z</time>
      </trkpt>
      <trkpt lat="47.62114" lon="6.1729">
        <ele>219.4</ele>
        <time>2022-03-04T13:36:17Z</time>
      </trkpt>
      <trkpt lat="47.62112" lon="6.17297">
        <ele>219.7</ele>
        <time>2022-03-04T13:36:18Z</time>
      </trkpt>
      <trkpt lat="47.6211" lon="6.17309">
        <ele>219.9</ele>
        <time>2022-03-04T13:36:20Z</time>
      </trkpt>
      <trkpt lat="47.62109" lon="6.1732">
        <ele>219.4</ele>
        <time>2022-03-04T13:36:22Z</time>
      </trkpt>
      <trkpt lat="47.62107" lon="6.17329">
        <ele>219.1</ele>
        <time>2022-03-04T13:36:24Z</time>
      </trkpt>
      <trkpt lat="47.62106" lon="6.17338">
        <ele>219</ele>
        <time>2022-03-04T13:36:25Z</time>
      </trkpt>
      <trkpt lat="47.62105" lon="6.17349">
        <ele>219</ele>
        <time>2022-03-04T13:36:27Z</time>
      </trkpt>
      <trkpt lat="47.62105" lon="6.17358">
        <ele>219</ele>
        <time>2022-03-04T13:36:29Z</time>
      </trkpt>
      <trkpt lat="47.62105" lon="6.17367">
        <ele>219</ele>
        <time>2022-03-04T13:36:30Z</time>
      </trkpt>
      <trkpt lat="47.62104" lon="6.17376">
        <ele>219</ele>
        <time>2022-03-04T13:36:32Z</time>
      </trkpt>
      <trkpt lat="47.62104" lon="6.17388">
        <ele>219</ele>
        <time>2022-03-04T13:36:34Z</time>
      </trkpt>
      <trkpt lat="47.62103" lon="6.17399">
        <ele>219</ele>
        <time>2022-03-04T13:36:36Z</time>
      </trkpt>
      <trkpt lat="47.62103" lon="6.17406">
        <ele>219</ele>
        <time>2022-03-04T13:36:37Z</time>
      </trkpt>
      <trkpt lat="47.62103" lon="6.17415">
        <ele>219</ele>
        <time>2022-03-04T13:36:39Z</time>
      </trkpt>
      <trkpt lat="47.62103" lon="6.17425">
        <ele>219</ele>
        <time>2022-03-04T13:36:41Z</time>
      </trkpt>
      <trkpt lat="47.62103" lon="6.17433">
        <ele>219</ele>
        <time>2022-03-04T13:36:42Z</time>
      </trkpt>
      <trkpt lat="47.62103" lon="6.17441">
        <ele>219</ele>
        <time>2022-03-04T13:36:44Z</time>
      </trkpt>
      <trkpt lat="47.62103" lon="6.1745">
        <ele>219</ele>
        <time>2022-03-04T13:36:45Z</time>
      </trkpt>
      <trkpt lat="47.62103" lon="6.17459">
        <ele>219</ele>
        <time>2022-03-04T13:36:47Z</time>
      </trkpt>
      <trkpt lat="47.62102" lon="6.17468">
        <ele>219</ele>
        <time>2022-03-04T13:36:49Z</time>
      </trkpt>
      <trkpt lat="47.62102" lon="6.17476">
        <ele>219</ele>
        <time>2022-03-04T13:36:49Z</time>
      </trkpt>
      <trkpt lat="47.62102" lon="6.17485">
        <ele>219</ele>
        <time>2022-03-04T13:36:51Z</time>
      </trkpt>
      <trkpt lat="47.62101" lon="6.17494">
        <ele>219</ele>
        <time>2022-03-04T13:36:54Z</time>
      </trkpt>
      <trkpt lat="47.62101" lon="6.17505">
        <ele>219</ele>
        <time>2022-03-04T13:36:56Z</time>
      </trkpt>
      <trkpt lat="47.62101" lon="6.17512">
        <ele>219</ele>
        <time>2022-03-04T13:36:58Z</time>
      </trkpt>
      <trkpt lat="47.62101" lon="6.1752">
        <ele>219</ele>
        <time>2022-03-04T13:37:00Z</time>
      </trkpt>
      <trkpt lat="47.621" lon="6.17527">
        <ele>219</ele>
        <time>2022-03-04T13:37:01Z</time>
      </trkpt>
      <trkpt lat="47.621" lon="6.17538">
        <ele>219</ele>
        <time>2022-03-04T13:37:03Z</time>
      </trkpt>
      <trkpt lat="47.62099" lon="6.17546">
        <ele>219</ele>
        <time>2022-03-04T13:37:05Z</time>
      </trkpt>
      <trkpt lat="47.62099" lon="6.17556">
        <ele>219</ele>
        <time>2022-03-04T13:37:07Z</time>
      </trkpt>
      <trkpt lat="47.62098" lon="6.17566">
        <ele>219</ele>
        <time>2022-03-04T13:37:08Z</time>
      </trkpt>
      <trkpt lat="47.62098" lon="6.17575">
        <ele>219</ele>
        <time>2022-03-04T13:37:11Z</time>
      </trkpt>
      <trkpt lat="47.62097" lon="6.17584">
        <ele>219</ele>
        <time>2022-03-04T13:37:13Z</time>
      </trkpt>
      <trkpt lat="47.62097" lon="6.17592">
        <ele>219.2</ele>
        <time>2022-03-04T13:37:15Z</time>
      </trkpt>
      <trkpt lat="47.62096" lon="6.17601">
        <ele>219.3</ele>
        <time>2022-03-04T13:37:17Z</time>
      </trkpt>
      <trkpt lat="47.62096" lon="6.17608">
        <ele>219.5</ele>
        <time>2022-03-04T13:37:17Z</time>
      </trkpt>
      <trkpt lat="47.62095" lon="6.17616">
        <ele>219.6</ele>
        <time>2022-03-04T13:37:19Z</time>
      </trkpt>
      <trkpt lat="47.62094" lon="6.17623">
        <ele>219.6</ele>
        <time>2022-03-04T13:37:22Z</time>
      </trkpt>
      <trkpt lat="47.62094" lon="6.17631">
        <ele>219.6</ele>
        <time>2022-03-04T13:37:24Z</time>
      </trkpt>
      <trkpt lat="47.62093" lon="6.17638">
        <ele>219.6</ele>
        <time>2022-03-04T13:37:24Z</time>
      </trkpt>
      <trkpt lat="47.62093" lon="6.17645">
        <ele>219.6</ele>
        <time>2022-03-04T13:37:27Z</time>
      </trkpt>
      <trkpt lat="47.62093" lon="6.17652">
        <ele>219.7</ele>
        <time>2022-03-04T13:37:27Z</time>
      </trkpt>
      <trkpt lat="47.62092" lon="6.1766">
        <ele>219.7</ele>
        <time>2022-03-04T13:37:29Z</time>
      </trkpt>
      <trkpt lat="47.62091" lon="6.17667">
        <ele>219.7</ele>
        <time>2022-03-04T13:37:32Z</time>
      </trkpt>
      <trkpt lat="47.6209" lon="6.17676">
        <ele>219.8</ele>
        <time>2022-03-04T13:37:34Z</time>
      </trkpt>
      <trkpt lat="47.6209" lon="6.17685">
        <ele>219.8</ele>
        <time>2022-03-04T13:37:36Z</time>
      </trkpt>
      <trkpt lat="47.62089" lon="6.17693">
        <ele>219.8</ele>
        <time>2022-03-04T13:37:38Z</time>
      </trkpt>
      <trkpt lat="47.62088" lon="6.17702">
        <ele>219.8</ele>
        <time>2022-03-04T13:37:39Z</time>
      </trkpt>
      <trkpt lat="47.62087" lon="6.17711">
        <ele>219.9</ele>
        <time>2022-03-04T13:37:41Z</time>
      </trkpt>
      <trkpt lat="47.62087" lon="6.1772">
        <ele>219.9</ele>
        <time>2022-03-04T13:37:43Z</time>
      </trkpt>
      <trkpt lat="47.62086" lon="6.17728">
        <ele>219.9</ele>
        <time>2022-03-04T13:37:45Z</time>
      </trkpt>
      <trkpt lat="47.62085" lon="6.17737">
        <ele>219.9</ele>
        <time>2022-03-04T13:37:46Z</time>
      </trkpt>
      <trkpt lat="47.62084" lon="6.17746">
        <ele>220</ele>
        <time>2022-03-04T13:37:48Z</time>
      </trkpt>
      <trkpt lat="47.62083" lon="6.17756">
        <ele>220</ele>
        <time>2022-03-04T13:37:49Z</time>
      </trkpt>
      <trkpt lat="47.62082" lon="6.17765">
        <ele>219.9</ele>
        <time>2022-03-04T13:37:52Z</time>
      </trkpt>
      <trkpt lat="47.62081" lon="6.17775">
        <ele>219.9</ele>
        <time>2022-03-04T13:37:54Z</time>
      </trkpt>
      <trkpt lat="47.6208" lon="6.17784">
        <ele>219.9</ele>
        <time>2022-03-04T13:37:56Z</time>
      </trkpt>
      <trkpt lat="47.6208" lon="6.17791">
        <ele>219.9</ele>
        <time>2022-03-04T13:37:56Z</time>
      </trkpt>
      <trkpt lat="47.62079" lon="6.17798">
        <ele>220</ele>
        <time>2022-03-04T13:37:59Z</time>
      </trkpt>
      <trkpt lat="47.62078" lon="6.17806">
        <ele>220</ele>
        <time>2022-03-04T13:37:59Z</time>
      </trkpt>
      <trkpt lat="47.62078" lon="6.17813">
        <ele>219.8</ele>
        <time>2022-03-04T13:38:02Z</time>
      </trkpt>
      <trkpt lat="47.62077" lon="6.1782">
        <ele>219.6</ele>
        <time>2022-03-04T13:38:03Z</time>
      </trkpt>
      <trkpt lat="47.62076" lon="6.1783">
        <ele>219.3</ele>
        <time>2022-03-04T13:38:05Z</time>
      </trkpt>
      <trkpt lat="47.62076" lon="6.1784">
        <ele>219.3</ele>
        <time>2022-03-04T13:38:07Z</time>
      </trkpt>
      <trkpt lat="47.62076" lon="6.17849">
        <ele>219.3</ele>
        <time>2022-03-04T13:38:09Z</time>
      </trkpt>
      <trkpt lat="47.62073" lon="6.17857">
        <ele>219.4</ele>
        <time>2022-03-04T13:38:11Z</time>
      </trkpt>
      <trkpt lat="47.62072" lon="6.17868">
        <ele>219.6</ele>
        <time>2022-03-04T13:38:12Z</time>
      </trkpt>
      <trkpt lat="47.62071" lon="6.17877">
        <ele>219.8</ele>
        <time>2022-03-04T13:38:14Z</time>
      </trkpt>
      <trkpt lat="47.6207" lon="6.17886">
        <ele>219.9</ele>
        <time>2022-03-04T13:38:17Z</time>
      </trkpt>
      <trkpt lat="47.6207" lon="6.17895">
        <ele>220</ele>
        <time>2022-03-04T13:38:19Z</time>
      </trkpt>
      <trkpt lat="47.6207" lon="6.17905">
        <ele>220</ele>
        <time>2022-03-04T13:38:21Z</time>
      </trkpt>
      <trkpt lat="47.62069" lon="6.17912">
        <ele>220</ele>
        <time>2022-03-04T13:38:23Z</time>
      </trkpt>
      <trkpt lat="47.62069" lon="6.17921">
        <ele>220</ele>
        <time>2022-03-04T13:38:25Z</time>
      </trkpt>
      <trkpt lat="47.62068" lon="6.17928">
        <ele>220</ele>
        <time>2022-03-04T13:38:28Z</time>
      </trkpt>
      <trkpt lat="47.62064" lon="6.17934">
        <ele>220</ele>
        <time>2022-03-04T13:38:43Z</time>
      </trkpt>
      <trkpt lat="47.62063" lon="6.17945">
        <ele>220</ele>
        <time>2022-03-04T13:38:44Z</time>
      </trkpt>
      <trkpt lat="47.62062" lon="6.17956">
        <ele>220</ele>
        <time>2022-03-04T13:38:46Z</time>
      </trkpt>
      <trkpt lat="47.6206" lon="6.17968">
        <ele>220</ele>
        <time>2022-03-04T13:38:49Z</time>
      </trkpt>
      <trkpt lat="47.62059" lon="6.17976">
        <ele>220</ele>
        <time>2022-03-04T13:38:51Z</time>
      </trkpt>
      <trkpt lat="47.62058" lon="6.17985">
        <ele>220</ele>
        <time>2022-03-04T13:38:52Z</time>
      </trkpt>
      <trkpt lat="47.62058" lon="6.17992">
        <ele>220</ele>
        <time>2022-03-04T13:38:54Z</time>
      </trkpt>
      <trkpt lat="47.62057" lon="6.18001">
        <ele>220</ele>
        <time>2022-03-04T13:38:55Z</time>
      </trkpt>
      <trkpt lat="47.62055" lon="6.18011">
        <ele>220</ele>
        <time>2022-03-04T13:38:56Z</time>
      </trkpt>
      <trkpt lat="47.62055" lon="6.18018">
        <ele>220</ele>
        <time>2022-03-04T13:38:59Z</time>
      </trkpt>
      <trkpt lat="47.62054" lon="6.18026">
        <ele>220</ele>
        <time>2022-03-04T13:38:59Z</time>
      </trkpt>
      <trkpt lat="47.62053" lon="6.18033">
        <ele>220</ele>
        <time>2022-03-04T13:39:02Z</time>
      </trkpt>
      <trkpt lat="47.62053" lon="6.18041">
        <ele>220</ele>
        <time>2022-03-04T13:39:02Z</time>
      </trkpt>
      <trkpt lat="47.62052" lon="6.18051">
        <ele>220</ele>
        <time>2022-03-04T13:39:04Z</time>
      </trkpt>
      <trkpt lat="47.6205" lon="6.18061">
        <ele>220</ele>
        <time>2022-03-04T13:39:07Z</time>
      </trkpt>
      <trkpt lat="47.6205" lon="6.18071">
        <ele>220</ele>
        <time>2022-03-04T13:39:09Z</time>
      </trkpt>
      <trkpt lat="47.62049" lon="6.18082">
        <ele>220</ele>
        <time>2022-03-04T13:39:11Z</time>
      </trkpt>
      <trkpt lat="47.62048" lon="6.1809">
        <ele>220</ele>
        <time>2022-03-04T13:39:13Z</time>
      </trkpt>
      <trkpt lat="47.62048" lon="6.18098">
        <ele>220</ele>
        <time>2022-03-04T13:39:13Z</time>
      </trkpt>
      <trkpt lat="47.62047" lon="6.18107">
        <ele>220</ele>
        <time>2022-03-04T13:39:16Z</time>
      </trkpt>
      <trkpt lat="47.62048" lon="6.18114">
        <ele>220</ele>
        <time>2022-03-04T13:39:17Z</time>
      </trkpt>
      <trkpt lat="47.62048" lon="6.18122">
        <ele>220</ele>
        <time>2022-03-04T13:39:19Z</time>
      </trkpt>
      <trkpt lat="47.6205" lon="6.18132">
        <ele>220</ele>
        <time>2022-03-04T13:39:21Z</time>
      </trkpt>
      <trkpt lat="47.62051" lon="6.1814">
        <ele>220</ele>
        <time>2022-03-04T13:39:22Z</time>
      </trkpt>
      <trkpt lat="47.62052" lon="6.18149">
        <ele>220</ele>
        <time>2022-03-04T13:39:24Z</time>
      </trkpt>
      <trkpt lat="47.62053" lon="6.18156">
        <ele>220</ele>
        <time>2022-03-04T13:39:24Z</time>
      </trkpt>
      <trkpt lat="47.62055" lon="6.18164">
        <ele>220</ele>
        <time>2022-03-04T13:39:27Z</time>
      </trkpt>
      <trkpt lat="47.62056" lon="6.18171">
        <ele>220</ele>
        <time>2022-03-04T13:39:27Z</time>
      </trkpt>
      <trkpt lat="47.62058" lon="6.18181">
        <ele>220.1</ele>
        <time>2022-03-04T13:39:30Z</time>
      </trkpt>
      <trkpt lat="47.6206" lon="6.18188">
        <ele>220.2</ele>
        <time>2022-03-04T13:39:32Z</time>
      </trkpt>
      <trkpt lat="47.62062" lon="6.18195">
        <ele>220.3</ele>
        <time>2022-03-04T13:39:32Z</time>
      </trkpt>
      <trkpt lat="47.62064" lon="6.18204">
        <ele>220.6</ele>
        <time>2022-03-04T13:39:34Z</time>
      </trkpt>
      <trkpt lat="47.62066" lon="6.18213">
        <ele>220.8</ele>
        <time>2022-03-04T13:39:37Z</time>
      </trkpt>
      <trkpt lat="47.62068" lon="6.18224">
        <ele>221</ele>
        <time>2022-03-04T13:39:38Z</time>
      </trkpt>
      <trkpt lat="47.62069" lon="6.18231">
        <ele>221</ele>
        <time>2022-03-04T13:39:41Z</time>
      </trkpt>
      <trkpt lat="47.62071" lon="6.18238">
        <ele>221</ele>
        <time>2022-03-04T13:39:41Z</time>
      </trkpt>
      <trkpt lat="47.62073" lon="6.18245">
        <ele>221</ele>
        <time>2022-03-04T13:39:44Z</time>
      </trkpt>
      <trkpt lat="47.62074" lon="6.18254">
        <ele>221</ele>
        <time>2022-03-04T13:39:46Z</time>
      </trkpt>
      <trkpt lat="47.62076" lon="6.18265">
        <ele>221</ele>
        <time>2022-03-04T13:39:47Z</time>
      </trkpt>
      <trkpt lat="47.62077" lon="6.18272">
        <ele>221</ele>
        <time>2022-03-04T13:39:50Z</time>
      </trkpt>
      <trkpt lat="47.62078" lon="6.18281">
        <ele>221.1</ele>
        <time>2022-03-04T13:39:51Z</time>
      </trkpt>
      <trkpt lat="47.62079" lon="6.18288">
        <ele>221.3</ele>
        <time>2022-03-04T13:39:54Z</time>
      </trkpt>
      <trkpt lat="47.6208" lon="6.18294">
        <ele>221.5</ele>
        <time>2022-03-04T13:39:56Z</time>
      </trkpt>
      <trkpt lat="47.62082" lon="6.18302">
        <ele>221.8</ele>
        <time>2022-03-04T13:39:58Z</time>
      </trkpt>
      <trkpt lat="47.62083" lon="6.18309">
        <ele>222</ele>
        <time>2022-03-04T13:40:00Z</time>
      </trkpt>
      <trkpt lat="47.62085" lon="6.18316">
        <ele>221.9</ele>
        <time>2022-03-04T13:40:01Z</time>
      </trkpt>
      <trkpt lat="47.62086" lon="6.18326">
        <ele>221.9</ele>
        <time>2022-03-04T13:40:05Z</time>
      </trkpt>
      <trkpt lat="47.62088" lon="6.18334">
        <ele>221.8</ele>
        <time>2022-03-04T13:40:06Z</time>
      </trkpt>
      <trkpt lat="47.62089" lon="6.18342">
        <ele>221.8</ele>
        <time>2022-03-04T13:40:08Z</time>
      </trkpt>
      <trkpt lat="47.62091" lon="6.1835">
        <ele>221.9</ele>
        <time>2022-03-04T13:40:10Z</time>
      </trkpt>
      <trkpt lat="47.62093" lon="6.18358">
        <ele>222</ele>
        <time>2022-03-04T13:40:12Z</time>
      </trkpt>
      <trkpt lat="47.62094" lon="6.18366">
        <ele>222.2</ele>
        <time>2022-03-04T13:40:14Z</time>
      </trkpt>
      <trkpt lat="47.62096" lon="6.18375">
        <ele>222.5</ele>
        <time>2022-03-04T13:40:17Z</time>
      </trkpt>
      <trkpt lat="47.62097" lon="6.18384">
        <ele>222.8</ele>
        <time>2022-03-04T13:40:19Z</time>
      </trkpt>
      <trkpt lat="47.62099" lon="6.18395">
        <ele>223.1</ele>
        <time>2022-03-04T13:40:21Z</time>
      </trkpt>
      <trkpt lat="47.62101" lon="6.18406">
        <ele>223.4</ele>
        <time>2022-03-04T13:40:23Z</time>
      </trkpt>
      <trkpt lat="47.62103" lon="6.18416">
        <ele>223.7</ele>
        <time>2022-03-04T13:40:25Z</time>
      </trkpt>
      <trkpt lat="47.62107" lon="6.18423">
        <ele>224</ele>
        <time>2022-03-04T13:40:27Z</time>
      </trkpt>
      <trkpt lat="47.6211" lon="6.18428">
        <ele>224.4</ele>
        <time>2022-03-04T13:40:28Z</time>
      </trkpt>
      <trkpt lat="47.62116" lon="6.18431">
        <ele>224.5</ele>
        <time>2022-03-04T13:40:29Z</time>
      </trkpt>
      <trkpt lat="47.62122" lon="6.1843">
        <ele>224.5</ele>
        <time>2022-03-04T13:40:31Z</time>
      </trkpt>
      <trkpt lat="47.62128" lon="6.1843">
        <ele>224.5</ele>
        <time>2022-03-04T13:40:33Z</time>
      </trkpt>
      <trkpt lat="47.62134" lon="6.18431">
        <ele>224.5</ele>
        <time>2022-03-04T13:40:35Z</time>
      </trkpt>
      <trkpt lat="47.62139" lon="6.18433">
        <ele>224.6</ele>
        <time>2022-03-04T13:40:38Z</time>
      </trkpt>
      <trkpt lat="47.62142" lon="6.18439">
        <ele>224.9</ele>
        <time>2022-03-04T13:40:40Z</time>
      </trkpt>
      <trkpt lat="47.62144" lon="6.18448">
        <ele>225.3</ele>
        <time>2022-03-04T13:40:41Z</time>
      </trkpt>
      <trkpt lat="47.62145" lon="6.18457">
        <ele>225.7</ele>
        <time>2022-03-04T13:40:45Z</time>
      </trkpt>
      <trkpt lat="47.62144" lon="6.18466">
        <ele>226</ele>
        <time>2022-03-04T13:40:47Z</time>
      </trkpt>
      <trkpt lat="47.62142" lon="6.18474">
        <ele>226.2</ele>
        <time>2022-03-04T13:40:50Z</time>
      </trkpt>
      <trkpt lat="47.62139" lon="6.1848">
        <ele>226.6</ele>
        <time>2022-03-04T13:40:54Z</time>
      </trkpt>
      <trkpt lat="47.62137" lon="6.18487">
        <ele>227.1</ele>
        <time>2022-03-04T13:40:56Z</time>
      </trkpt>
      <trkpt lat="47.62136" lon="6.18496">
        <ele>227.7</ele>
        <time>2022-03-04T13:40:58Z</time>
      </trkpt>
      <trkpt lat="47.62136" lon="6.18505">
        <ele>228.2</ele>
        <time>2022-03-04T13:41:01Z</time>
      </trkpt>
      <trkpt lat="47.62137" lon="6.18513">
        <ele>228.5</ele>
        <time>2022-03-04T13:41:06Z</time>
      </trkpt>
      <trkpt lat="47.62139" lon="6.1852">
        <ele>228.7</ele>
        <time>2022-03-04T13:41:07Z</time>
      </trkpt>
      <trkpt lat="47.62142" lon="6.18527">
        <ele>229</ele>
        <time>2022-03-04T13:41:10Z</time>
      </trkpt>
      <trkpt lat="47.62145" lon="6.18534">
        <ele>229.6</ele>
        <time>2022-03-04T13:41:14Z</time>
      </trkpt>
      <trkpt lat="47.62148" lon="6.1854">
        <ele>230.2</ele>
        <time>2022-03-04T13:41:15Z</time>
      </trkpt>
      <trkpt lat="47.62151" lon="6.18547">
        <ele>230.7</ele>
        <time>2022-03-04T13:41:19Z</time>
      </trkpt>
      <trkpt lat="47.62155" lon="6.18552">
        <ele>231.1</ele>
        <time>2022-03-04T13:41:21Z</time>
      </trkpt>
      <trkpt lat="47.62159" lon="6.18557">
        <ele>231.4</ele>
        <time>2022-03-04T13:41:25Z</time>
      </trkpt>
      <trkpt lat="47.62163" lon="6.18562">
        <ele>231.9</ele>
        <time>2022-03-04T13:41:28Z</time>
      </trkpt>
      <trkpt lat="47.62167" lon="6.18566">
        <ele>232.1</ele>
        <time>2022-03-04T13:41:31Z</time>
      </trkpt>
      <trkpt lat="47.62172" lon="6.18571">
        <ele>232.8</ele>
        <time>2022-03-04T13:41:33Z</time>
      </trkpt>
      <trkpt lat="47.62177" lon="6.18575">
        <ele>233.1</ele>
        <time>2022-03-04T13:41:36Z</time>
      </trkpt>
      <trkpt lat="47.62181" lon="6.18579">
        <ele>233.2</ele>
        <time>2022-03-04T13:41:39Z</time>
      </trkpt>
      <trkpt lat="47.62186" lon="6.18583">
        <ele>233.3</ele>
        <time>2022-03-04T13:41:42Z</time>
      </trkpt>
      <trkpt lat="47.62191" lon="6.18587">
        <ele>233.4</ele>
        <time>2022-03-04T13:41:45Z</time>
      </trkpt>
      <trkpt lat="47.62195" lon="6.1859">
        <ele>233.6</ele>
        <time>2022-03-04T13:41:48Z</time>
      </trkpt>
      <trkpt lat="47.622" lon="6.18593">
        <ele>234.4</ele>
        <time>2022-03-04T13:41:51Z</time>
      </trkpt>
      <trkpt lat="47.62204" lon="6.18595">
        <ele>235</ele>
        <time>2022-03-04T13:41:54Z</time>
      </trkpt>
      <trkpt lat="47.62209" lon="6.18599">
        <ele>235.6</ele>
        <time>2022-03-04T13:41:57Z</time>
      </trkpt>
      <trkpt lat="47.62214" lon="6.18602">
        <ele>236</ele>
        <time>2022-03-04T13:42:00Z</time>
      </trkpt>
      <trkpt lat="47.62219" lon="6.18606">
        <ele>236.1</ele>
        <time>2022-03-04T13:42:03Z</time>
      </trkpt>
      <trkpt lat="47.62224" lon="6.18612">
        <ele>236.3</ele>
        <time>2022-03-04T13:42:06Z</time>
      </trkpt>
      <trkpt lat="47.62228" lon="6.18616">
        <ele>237.1</ele>
        <time>2022-03-04T13:42:10Z</time>
      </trkpt>
      <trkpt lat="47.62233" lon="6.18622">
        <ele>237.8</ele>
        <time>2022-03-04T13:42:13Z</time>
      </trkpt>
      <trkpt lat="47.62238" lon="6.18628">
        <ele>238.4</ele>
        <time>2022-03-04T13:42:15Z</time>
      </trkpt>
      <trkpt lat="47.62242" lon="6.18632">
        <ele>238.7</ele>
        <time>2022-03-04T13:42:19Z</time>
      </trkpt>
      <trkpt lat="47.62246" lon="6.18637">
        <ele>238.8</ele>
        <time>2022-03-04T13:42:22Z</time>
      </trkpt>
      <trkpt lat="47.6225" lon="6.18639">
        <ele>239.1</ele>
        <time>2022-03-04T13:42:23Z</time>
      </trkpt>
      <trkpt lat="47.62255" lon="6.18644">
        <ele>239.6</ele>
        <time>2022-03-04T13:42:26Z</time>
      </trkpt>
      <trkpt lat="47.62259" lon="6.18649">
        <ele>240.1</ele>
        <time>2022-03-04T13:42:30Z</time>
      </trkpt>
      <trkpt lat="47.62263" lon="6.18652">
        <ele>240.4</ele>
        <time>2022-03-04T13:42:33Z</time>
      </trkpt>
      <trkpt lat="47.62267" lon="6.18656">
        <ele>240.7</ele>
        <time>2022-03-04T13:42:36Z</time>
      </trkpt>
      <trkpt lat="47.62271" lon="6.18664">
        <ele>240.6</ele>
        <time>2022-03-04T13:42:40Z</time>
      </trkpt>
      <trkpt lat="47.62273" lon="6.18671">
        <ele>240.8</ele>
        <time>2022-03-04T13:42:44Z</time>
      </trkpt>
      <trkpt lat="47.62275" lon="6.18679">
        <ele>241.3</ele>
        <time>2022-03-04T13:42:48Z</time>
      </trkpt>
      <trkpt lat="47.62278" lon="6.18685">
        <ele>241.7</ele>
        <time>2022-03-04T13:42:53Z</time>
      </trkpt>
      <trkpt lat="47.62281" lon="6.18693">
        <ele>242.3</ele>
        <time>2022-03-04T13:42:55Z</time>
      </trkpt>
      <trkpt lat="47.62282" lon="6.18699">
        <ele>242.7</ele>
        <time>2022-03-04T13:42:59Z</time>
      </trkpt>
      <trkpt lat="47.62285" lon="6.18707">
        <ele>243.3</ele>
        <time>2022-03-04T13:43:01Z</time>
      </trkpt>
      <trkpt lat="47.62289" lon="6.18711">
        <ele>243.7</ele>
        <time>2022-03-04T13:43:04Z</time>
      </trkpt>
      <trkpt lat="47.62293" lon="6.18715">
        <ele>243.9</ele>
        <time>2022-03-04T13:43:09Z</time>
      </trkpt>
      <trkpt lat="47.62295" lon="6.18723">
        <ele>244</ele>
        <time>2022-03-04T13:43:12Z</time>
      </trkpt>
      <trkpt lat="47.62299" lon="6.18727">
        <ele>244.2</ele>
        <time>2022-03-04T13:43:16Z</time>
      </trkpt>
      <trkpt lat="47.62303" lon="6.1873">
        <ele>244.3</ele>
        <time>2022-03-04T13:43:19Z</time>
      </trkpt>
      <trkpt lat="47.62307" lon="6.18736">
        <ele>244.6</ele>
        <time>2022-03-04T13:43:22Z</time>
      </trkpt>
      <trkpt lat="47.6231" lon="6.18741">
        <ele>244.9</ele>
        <time>2022-03-04T13:43:24Z</time>
      </trkpt>
      <trkpt lat="47.62314" lon="6.18747">
        <ele>245.2</ele>
        <time>2022-03-04T13:43:25Z</time>
      </trkpt>
      <trkpt lat="47.62317" lon="6.18753">
        <ele>245.6</ele>
        <time>2022-03-04T13:43:29Z</time>
      </trkpt>
      <trkpt lat="47.62321" lon="6.1876">
        <ele>245.9</ele>
        <time>2022-03-04T13:43:31Z</time>
      </trkpt>
      <trkpt lat="47.62323" lon="6.18766">
        <ele>246</ele>
        <time>2022-03-04T13:43:34Z</time>
      </trkpt>
      <trkpt lat="47.62326" lon="6.18773">
        <ele>246.2</ele>
        <time>2022-03-04T13:43:37Z</time>
      </trkpt>
      <trkpt lat="47.6233" lon="6.18779">
        <ele>246.2</ele>
        <time>2022-03-04T13:43:40Z</time>
      </trkpt>
      <trkpt lat="47.62332" lon="6.18785">
        <ele>246.6</ele>
        <time>2022-03-04T13:43:41Z</time>
      </trkpt>
      <trkpt lat="47.62335" lon="6.18791">
        <ele>247</ele>
        <time>2022-03-04T13:43:45Z</time>
      </trkpt>
      <trkpt lat="47.62337" lon="6.18797">
        <ele>247.5</ele>
        <time>2022-03-04T13:43:48Z</time>
      </trkpt>
      <trkpt lat="47.6234" lon="6.18806">
        <ele>248</ele>
        <time>2022-03-04T13:43:51Z</time>
      </trkpt>
      <trkpt lat="47.62344" lon="6.18811">
        <ele>248.4</ele>
        <time>2022-03-04T13:43:54Z</time>
      </trkpt>
      <trkpt lat="47.62347" lon="6.18816">
        <ele>248.8</ele>
        <time>2022-03-04T13:43:57Z</time>
      </trkpt>
      <trkpt lat="47.62349" lon="6.18822">
        <ele>249.1</ele>
        <time>2022-03-04T13:43:59Z</time>
      </trkpt>
      <trkpt lat="47.62352" lon="6.1883">
        <ele>249.5</ele>
        <time>2022-03-04T13:44:01Z</time>
      </trkpt>
      <trkpt lat="47.62354" lon="6.18837">
        <ele>249.7</ele>
        <time>2022-03-04T13:44:04Z</time>
      </trkpt>
      <trkpt lat="47.62357" lon="6.18843">
        <ele>250</ele>
        <time>2022-03-04T13:44:07Z</time>
      </trkpt>
      <trkpt lat="47.6236" lon="6.18851">
        <ele>250.3</ele>
        <time>2022-03-04T13:44:11Z</time>
      </trkpt>
      <trkpt lat="47.62361" lon="6.18858">
        <ele>250.8</ele>
        <time>2022-03-04T13:44:14Z</time>
      </trkpt>
      <trkpt lat="47.62363" lon="6.18865">
        <ele>251.5</ele>
        <time>2022-03-04T13:44:17Z</time>
      </trkpt>
      <trkpt lat="47.62364" lon="6.18872">
        <ele>252.1</ele>
        <time>2022-03-04T13:44:19Z</time>
      </trkpt>
      <trkpt lat="47.62367" lon="6.1888">
        <ele>252.9</ele>
        <time>2022-03-04T13:44:23Z</time>
      </trkpt>
      <trkpt lat="47.6237" lon="6.18886">
        <ele>253.5</ele>
        <time>2022-03-04T13:44:26Z</time>
      </trkpt>
      <trkpt lat="47.62373" lon="6.18892">
        <ele>254</ele>
        <time>2022-03-04T13:44:30Z</time>
      </trkpt>
      <trkpt lat="47.62376" lon="6.18897">
        <ele>254.5</ele>
        <time>2022-03-04T13:44:33Z</time>
      </trkpt>
      <trkpt lat="47.6238" lon="6.18904">
        <ele>254.9</ele>
        <time>2022-03-04T13:44:35Z</time>
      </trkpt>
      <trkpt lat="47.62384" lon="6.1891">
        <ele>255</ele>
        <time>2022-03-04T13:44:38Z</time>
      </trkpt>
      <trkpt lat="47.62388" lon="6.18916">
        <ele>255</ele>
        <time>2022-03-04T13:44:41Z</time>
      </trkpt>
      <trkpt lat="47.62393" lon="6.18917">
        <ele>255.2</ele>
        <time>2022-03-04T13:44:45Z</time>
      </trkpt>
      <trkpt lat="47.62399" lon="6.18922">
        <ele>255.6</ele>
        <time>2022-03-04T13:44:48Z</time>
      </trkpt>
      <trkpt lat="47.62403" lon="6.18924">
        <ele>255.8</ele>
        <time>2022-03-04T13:44:52Z</time>
      </trkpt>
      <trkpt lat="47.62408" lon="6.18927">
        <ele>255.9</ele>
        <time>2022-03-04T13:44:55Z</time>
      </trkpt>
      <trkpt lat="47.62412" lon="6.18932">
        <ele>256</ele>
        <time>2022-03-04T13:44:56Z</time>
      </trkpt>
      <trkpt lat="47.62415" lon="6.18937">
        <ele>256</ele>
        <time>2022-03-04T13:44:59Z</time>
      </trkpt>
      <trkpt lat="47.62419" lon="6.18942">
        <ele>256</ele>
        <time>2022-03-04T13:45:03Z</time>
      </trkpt>
      <trkpt lat="47.62421" lon="6.18948">
        <ele>256</ele>
        <time>2022-03-04T13:45:05Z</time>
      </trkpt>
      <trkpt lat="47.62418" lon="6.18954">
        <ele>256</ele>
        <time>2022-03-04T13:45:10Z</time>
      </trkpt>
      <trkpt lat="47.62415" lon="6.18959">
        <ele>256.1</ele>
        <time>2022-03-04T13:45:13Z</time>
      </trkpt>
      <trkpt lat="47.62411" lon="6.18963">
        <ele>256.2</ele>
        <time>2022-03-04T13:45:16Z</time>
      </trkpt>
      <trkpt lat="47.62407" lon="6.18967">
        <ele>256.4</ele>
        <time>2022-03-04T13:45:20Z</time>
      </trkpt>
      <trkpt lat="47.62404" lon="6.18972">
        <ele>256.5</ele>
        <time>2022-03-04T13:45:23Z</time>
      </trkpt>
      <trkpt lat="47.624" lon="6.18977">
        <ele>256.8</ele>
        <time>2022-03-04T13:45:27Z</time>
      </trkpt>
      <trkpt lat="47.62396" lon="6.18981">
        <ele>257.1</ele>
        <time>2022-03-04T13:45:31Z</time>
      </trkpt>
      <trkpt lat="47.62393" lon="6.18986">
        <ele>257.4</ele>
        <time>2022-03-04T13:45:34Z</time>
      </trkpt>
      <trkpt lat="47.62389" lon="6.1899">
        <ele>257.6</ele>
        <time>2022-03-04T13:45:37Z</time>
      </trkpt>
      <trkpt lat="47.62385" lon="6.18995">
        <ele>257.9</ele>
        <time>2022-03-04T13:45:41Z</time>
      </trkpt>
      <trkpt lat="47.62382" lon="6.19">
        <ele>258.3</ele>
        <time>2022-03-04T13:45:44Z</time>
      </trkpt>
      <trkpt lat="47.62379" lon="6.19006">
        <ele>258.6</ele>
        <time>2022-03-04T13:45:47Z</time>
      </trkpt>
      <trkpt lat="47.62377" lon="6.19012">
        <ele>258.9</ele>
        <time>2022-03-04T13:45:51Z</time>
      </trkpt>
      <trkpt lat="47.62375" lon="6.19019">
        <ele>259.2</ele>
        <time>2022-03-04T13:45:55Z</time>
      </trkpt>
      <trkpt lat="47.62373" lon="6.19026">
        <ele>259.5</ele>
        <time>2022-03-04T13:45:59Z</time>
      </trkpt>
      <trkpt lat="47.62371" lon="6.19033">
        <ele>259.8</ele>
        <time>2022-03-04T13:46:02Z</time>
      </trkpt>
      <trkpt lat="47.6237" lon="6.1904">
        <ele>260.1</ele>
        <time>2022-03-04T13:46:05Z</time>
      </trkpt>
      <trkpt lat="47.62369" lon="6.19047">
        <ele>260.4</ele>
        <time>2022-03-04T13:46:08Z</time>
      </trkpt>
      <trkpt lat="47.62367" lon="6.19055">
        <ele>260.7</ele>
        <time>2022-03-04T13:46:12Z</time>
      </trkpt>
      <trkpt lat="47.62366" lon="6.19062">
        <ele>261.1</ele>
        <time>2022-03-04T13:46:15Z</time>
      </trkpt>
      <trkpt lat="47.62364" lon="6.19069">
        <ele>261.4</ele>
        <time>2022-03-04T13:47:06Z</time>
      </trkpt>
      <trkpt lat="47.62362" lon="6.19077">
        <ele>261.7</ele>
        <time>2022-03-04T13:47:09Z</time>
      </trkpt>
      <trkpt lat="47.62361" lon="6.19085">
        <ele>262</ele>
        <time>2022-03-04T13:47:12Z</time>
      </trkpt>
      <trkpt lat="47.62359" lon="6.19093">
        <ele>262</ele>
        <time>2022-03-04T13:47:15Z</time>
      </trkpt>
      <trkpt lat="47.62357" lon="6.19101">
        <ele>261.9</ele>
        <time>2022-03-04T13:47:17Z</time>
      </trkpt>
      <trkpt lat="47.62355" lon="6.19109">
        <ele>262</ele>
        <time>2022-03-04T13:47:19Z</time>
      </trkpt>
      <trkpt lat="47.62354" lon="6.19117">
        <ele>262.2</ele>
        <time>2022-03-04T13:47:21Z</time>
      </trkpt>
      <trkpt lat="47.62352" lon="6.19124">
        <ele>262.5</ele>
        <time>2022-03-04T13:47:23Z</time>
      </trkpt>
      <trkpt lat="47.6235" lon="6.19134">
        <ele>262.8</ele>
        <time>2022-03-04T13:47:26Z</time>
      </trkpt>
      <trkpt lat="47.62349" lon="6.19142">
        <ele>263</ele>
        <time>2022-03-04T13:47:28Z</time>
      </trkpt>
      <trkpt lat="47.62348" lon="6.19149">
        <ele>263.2</ele>
        <time>2022-03-04T13:47:30Z</time>
      </trkpt>
      <trkpt lat="47.62346" lon="6.19158">
        <ele>263.4</ele>
        <time>2022-03-04T13:47:33Z</time>
      </trkpt>
      <trkpt lat="47.62346" lon="6.19165">
        <ele>263.5</ele>
        <time>2022-03-04T13:47:35Z</time>
      </trkpt>
      <trkpt lat="47.62345" lon="6.19173">
        <ele>263.7</ele>
        <time>2022-03-04T13:47:38Z</time>
      </trkpt>
      <trkpt lat="47.62344" lon="6.19181">
        <ele>263.8</ele>
        <time>2022-03-04T13:47:40Z</time>
      </trkpt>
      <trkpt lat="47.62343" lon="6.1919">
        <ele>263.9</ele>
        <time>2022-03-04T13:47:43Z</time>
      </trkpt>
      <trkpt lat="47.62343" lon="6.19197">
        <ele>264.1</ele>
        <time>2022-03-04T13:47:45Z</time>
      </trkpt>
      <trkpt lat="47.62342" lon="6.19205">
        <ele>264.4</ele>
        <time>2022-03-04T13:47:48Z</time>
      </trkpt>
      <trkpt lat="47.62341" lon="6.19212">
        <ele>264.6</ele>
        <time>2022-03-04T13:47:50Z</time>
      </trkpt>
      <trkpt lat="47.6234" lon="6.19219">
        <ele>264.9</ele>
        <time>2022-03-04T13:47:52Z</time>
      </trkpt>
      <trkpt lat="47.62339" lon="6.19226">
        <ele>265.2</ele>
        <time>2022-03-04T13:47:55Z</time>
      </trkpt>
      <trkpt lat="47.62339" lon="6.19234">
        <ele>265.4</ele>
        <time>2022-03-04T13:47:57Z</time>
      </trkpt>
      <trkpt lat="47.62338" lon="6.19241">
        <ele>265.7</ele>
        <time>2022-03-04T13:48:00Z</time>
      </trkpt>
      <trkpt lat="47.62338" lon="6.19249">
        <ele>266</ele>
        <time>2022-03-04T13:48:02Z</time>
      </trkpt>
      <trkpt lat="47.62337" lon="6.19257">
        <ele>266.3</ele>
        <time>2022-03-04T13:48:05Z</time>
      </trkpt>
      <trkpt lat="47.62337" lon="6.19265">
        <ele>266.5</ele>
        <time>2022-03-04T13:48:07Z</time>
      </trkpt>
      <trkpt lat="47.62337" lon="6.19273">
        <ele>266.8</ele>
        <time>2022-03-04T13:48:10Z</time>
      </trkpt>
      <trkpt lat="47.62337" lon="6.1928">
        <ele>267</ele>
        <time>2022-03-04T13:48:12Z</time>
      </trkpt>
      <trkpt lat="47.62337" lon="6.1929">
        <ele>267.1</ele>
        <time>2022-03-04T13:48:15Z</time>
      </trkpt>
      <trkpt lat="47.62337" lon="6.19299">
        <ele>267.1</ele>
        <time>2022-03-04T13:48:18Z</time>
      </trkpt>
      <trkpt lat="47.62338" lon="6.19306">
        <ele>267.2</ele>
        <time>2022-03-04T13:48:20Z</time>
      </trkpt>
      <trkpt lat="47.62338" lon="6.19313">
        <ele>267.4</ele>
        <time>2022-03-04T13:48:22Z</time>
      </trkpt>
      <trkpt lat="47.62338" lon="6.1932">
        <ele>267.6</ele>
        <time>2022-03-04T13:48:24Z</time>
      </trkpt>
      <trkpt lat="47.62338" lon="6.19327">
        <ele>267.8</ele>
        <time>2022-03-04T13:48:26Z</time>
      </trkpt>
      <trkpt lat="47.62339" lon="6.19334">
        <ele>268</ele>
        <time>2022-03-04T13:48:28Z</time>
      </trkpt>
      <trkpt lat="47.62339" lon="6.19342">
        <ele>268.3</ele>
        <time>2022-03-04T13:48:30Z</time>
      </trkpt>
      <trkpt lat="47.6234" lon="6.19352">
        <ele>268.7</ele>
        <time>2022-03-04T13:48:33Z</time>
      </trkpt>
      <trkpt lat="47.62341" lon="6.1936">
        <ele>269</ele>
        <time>2022-03-04T13:48:36Z</time>
      </trkpt>
      <trkpt lat="47.62341" lon="6.19369">
        <ele>269</ele>
        <time>2022-03-04T13:48:38Z</time>
      </trkpt>
      <trkpt lat="47.62342" lon="6.19375">
        <ele>269</ele>
        <time>2022-03-04T13:48:40Z</time>
      </trkpt>
      <trkpt lat="47.62342" lon="6.19384">
        <ele>269</ele>
        <time>2022-03-04T13:48:43Z</time>
      </trkpt>
      <trkpt lat="47.62343" lon="6.19392">
        <ele>269</ele>
        <time>2022-03-04T13:48:45Z</time>
      </trkpt>
      <trkpt lat="47.62345" lon="6.194">
        <ele>269.2</ele>
        <time>2022-03-04T13:48:48Z</time>
      </trkpt>
      <trkpt lat="47.62345" lon="6.19407">
        <ele>269.3</ele>
        <time>2022-03-04T13:48:50Z</time>
      </trkpt>
      <trkpt lat="47.62346" lon="6.19414">
        <ele>269.4</ele>
        <time>2022-03-04T13:48:52Z</time>
      </trkpt>
      <trkpt lat="47.62346" lon="6.19421">
        <ele>269.5</ele>
        <time>2022-03-04T13:48:54Z</time>
      </trkpt>
      <trkpt lat="47.62347" lon="6.19429">
        <ele>269.5</ele>
        <time>2022-03-04T13:48:56Z</time>
      </trkpt>
      <trkpt lat="47.62348" lon="6.19436">
        <ele>269.5</ele>
        <time>2022-03-04T13:48:58Z</time>
      </trkpt>
      <trkpt lat="47.62349" lon="6.19443">
        <ele>269.6</ele>
        <time>2022-03-04T13:49:01Z</time>
      </trkpt>
      <trkpt lat="47.6235" lon="6.19453">
        <ele>269.6</ele>
        <time>2022-03-04T13:49:03Z</time>
      </trkpt>
      <trkpt lat="47.6235" lon="6.1946">
        <ele>269.6</ele>
        <time>2022-03-04T13:49:05Z</time>
      </trkpt>
      <trkpt lat="47.62351" lon="6.19467">
        <ele>269.6</ele>
        <time>2022-03-04T13:49:08Z</time>
      </trkpt>
      <trkpt lat="47.62351" lon="6.19475">
        <ele>269.7</ele>
        <time>2022-03-04T13:49:10Z</time>
      </trkpt>
      <trkpt lat="47.62353" lon="6.19486">
        <ele>270</ele>
        <time>2022-03-04T13:49:13Z</time>
      </trkpt>
      <trkpt lat="47.62354" lon="6.19494">
        <ele>270.3</ele>
        <time>2022-03-04T13:49:16Z</time>
      </trkpt>
      <trkpt lat="47.62355" lon="6.19502">
        <ele>270.5</ele>
        <time>2022-03-04T13:49:18Z</time>
      </trkpt>
      <trkpt lat="47.62356" lon="6.19511">
        <ele>270.6</ele>
        <time>2022-03-04T13:49:21Z</time>
      </trkpt>
      <trkpt lat="47.62356" lon="6.19518">
        <ele>270.7</ele>
        <time>2022-03-04T13:49:23Z</time>
      </trkpt>
      <trkpt lat="47.62358" lon="6.19527">
        <ele>270.8</ele>
        <time>2022-03-04T13:49:26Z</time>
      </trkpt>
      <trkpt lat="47.6236" lon="6.19535">
        <ele>270.9</ele>
        <time>2022-03-04T13:49:29Z</time>
      </trkpt>
      <trkpt lat="47.62362" lon="6.19543">
        <ele>271</ele>
        <time>2022-03-04T13:49:31Z</time>
      </trkpt>
      <trkpt lat="47.62363" lon="6.1955">
        <ele>271.1</ele>
        <time>2022-03-04T13:49:33Z</time>
      </trkpt>
      <trkpt lat="47.62365" lon="6.19558">
        <ele>271.1</ele>
        <time>2022-03-04T13:49:35Z</time>
      </trkpt>
      <trkpt lat="47.62366" lon="6.19564">
        <ele>271.2</ele>
        <time>2022-03-04T13:49:37Z</time>
      </trkpt>
      <trkpt lat="47.62368" lon="6.19571">
        <ele>271.2</ele>
        <time>2022-03-04T13:49:39Z</time>
      </trkpt>
      <trkpt lat="47.62369" lon="6.19579">
        <ele>271.3</ele>
        <time>2022-03-04T13:49:41Z</time>
      </trkpt>
      <trkpt lat="47.6237" lon="6.19586">
        <ele>271.3</ele>
        <time>2022-03-04T13:49:42Z</time>
      </trkpt>
      <trkpt lat="47.62371" lon="6.19593">
        <ele>271.1</ele>
        <time>2022-03-04T13:49:44Z</time>
      </trkpt>
      <trkpt lat="47.62373" lon="6.19601">
        <ele>271</ele>
        <time>2022-03-04T13:49:46Z</time>
      </trkpt>
      <trkpt lat="47.62374" lon="6.19607">
        <ele>271</ele>
        <time>2022-03-04T13:49:48Z</time>
      </trkpt>
      <trkpt lat="47.62375" lon="6.19615">
        <ele>271</ele>
        <time>2022-03-04T13:49:50Z</time>
      </trkpt>
      <trkpt lat="47.62376" lon="6.19622">
        <ele>271.1</ele>
        <time>2022-03-04T13:49:52Z</time>
      </trkpt>
      <trkpt lat="47.62377" lon="6.19629">
        <ele>271.1</ele>
        <time>2022-03-04T13:49:54Z</time>
      </trkpt>
      <trkpt lat="47.62379" lon="6.19639">
        <ele>271.3</ele>
        <time>2022-03-04T13:49:56Z</time>
      </trkpt>
      <trkpt lat="47.6238" lon="6.1965">
        <ele>271.1</ele>
        <time>2022-03-04T13:49:58Z</time>
      </trkpt>
      <trkpt lat="47.62383" lon="6.19659">
        <ele>271</ele>
        <time>2022-03-04T13:50:00Z</time>
      </trkpt>
      <trkpt lat="47.62385" lon="6.19668">
        <ele>270.8</ele>
        <time>2022-03-04T13:50:02Z</time>
      </trkpt>
      <trkpt lat="47.62388" lon="6.19677">
        <ele>270.6</ele>
        <time>2022-03-04T13:50:04Z</time>
      </trkpt>
      <trkpt lat="47.62391" lon="6.19686">
        <ele>270.4</ele>
        <time>2022-03-04T13:50:06Z</time>
      </trkpt>
      <trkpt lat="47.62394" lon="6.19695">
        <ele>270.4</ele>
        <time>2022-03-04T13:50:08Z</time>
      </trkpt>
      <trkpt lat="47.62397" lon="6.19702">
        <ele>270.3</ele>
        <time>2022-03-04T13:50:10Z</time>
      </trkpt>
      <trkpt lat="47.62401" lon="6.19711">
        <ele>270.3</ele>
        <time>2022-03-04T13:50:12Z</time>
      </trkpt>
      <trkpt lat="47.62405" lon="6.19719">
        <ele>270.3</ele>
        <time>2022-03-04T13:50:14Z</time>
      </trkpt>
      <trkpt lat="47.62408" lon="6.19725">
        <ele>270.3</ele>
        <time>2022-03-04T13:50:15Z</time>
      </trkpt>
      <trkpt lat="47.62411" lon="6.19731">
        <ele>270.3</ele>
        <time>2022-03-04T13:50:17Z</time>
      </trkpt>
      <trkpt lat="47.62415" lon="6.19739">
        <ele>270.3</ele>
        <time>2022-03-04T13:50:19Z</time>
      </trkpt>
      <trkpt lat="47.62417" lon="6.19745">
        <ele>270.2</ele>
        <time>2022-03-04T13:50:21Z</time>
      </trkpt>
      <trkpt lat="47.62421" lon="6.19751">
        <ele>270.1</ele>
        <time>2022-03-04T13:50:23Z</time>
      </trkpt>
      <trkpt lat="47.62424" lon="6.19757">
        <ele>270.1</ele>
        <time>2022-03-04T13:50:25Z</time>
      </trkpt>
      <trkpt lat="47.62427" lon="6.19762">
        <ele>270.1</ele>
        <time>2022-03-04T13:50:27Z</time>
      </trkpt>
      <trkpt lat="47.6243" lon="6.19767">
        <ele>270.2</ele>
        <time>2022-03-04T13:50:29Z</time>
      </trkpt>
      <trkpt lat="47.62433" lon="6.19774">
        <ele>270.3</ele>
        <time>2022-03-04T13:50:31Z</time>
      </trkpt>
      <trkpt lat="47.62436" lon="6.1978">
        <ele>270.4</ele>
        <time>2022-03-04T13:50:33Z</time>
      </trkpt>
      <trkpt lat="47.6244" lon="6.19787">
        <ele>270.4</ele>
        <time>2022-03-04T13:50:35Z</time>
      </trkpt>
      <trkpt lat="47.62443" lon="6.19793">
        <ele>270.4</ele>
        <time>2022-03-04T13:50:37Z</time>
      </trkpt>
      <trkpt lat="47.62445" lon="6.19799">
        <ele>270.3</ele>
        <time>2022-03-04T13:50:39Z</time>
      </trkpt>
      <trkpt lat="47.62448" lon="6.19806">
        <ele>270.1</ele>
        <time>2022-03-04T13:50:41Z</time>
      </trkpt>
      <trkpt lat="47.62451" lon="6.19813">
        <ele>270</ele>
        <time>2022-03-04T13:50:43Z</time>
      </trkpt>
      <trkpt lat="47.62453" lon="6.19819">
        <ele>269.8</ele>
        <time>2022-03-04T13:50:45Z</time>
      </trkpt>
      <trkpt lat="47.62455" lon="6.19826">
        <ele>269.6</ele>
        <time>2022-03-04T13:50:46Z</time>
      </trkpt>
      <trkpt lat="47.62457" lon="6.19836">
        <ele>269.4</ele>
        <time>2022-03-04T13:50:49Z</time>
      </trkpt>
      <trkpt lat="47.62459" lon="6.19844">
        <ele>269.1</ele>
        <time>2022-03-04T13:50:51Z</time>
      </trkpt>
      <trkpt lat="47.62461" lon="6.19855">
        <ele>268.8</ele>
        <time>2022-03-04T13:50:53Z</time>
      </trkpt>
      <trkpt lat="47.62462" lon="6.19864">
        <ele>268.6</ele>
        <time>2022-03-04T13:50:55Z</time>
      </trkpt>
      <trkpt lat="47.62463" lon="6.19877">
        <ele>268.7</ele>
        <time>2022-03-04T13:50:57Z</time>
      </trkpt>
      <trkpt lat="47.62464" lon="6.19885">
        <ele>268.7</ele>
        <time>2022-03-04T13:50:58Z</time>
      </trkpt>
      <trkpt lat="47.62464" lon="6.19892">
        <ele>268.6</ele>
        <time>2022-03-04T13:50:59Z</time>
      </trkpt>
      <trkpt lat="47.62463" lon="6.19901">
        <ele>268.2</ele>
        <time>2022-03-04T13:51:01Z</time>
      </trkpt>
      <trkpt lat="47.62462" lon="6.19911">
        <ele>267.8</ele>
        <time>2022-03-04T13:51:02Z</time>
      </trkpt>
      <trkpt lat="47.62462" lon="6.19922">
        <ele>267.6</ele>
        <time>2022-03-04T13:51:04Z</time>
      </trkpt>
      <trkpt lat="47.62461" lon="6.19931">
        <ele>267.6</ele>
        <time>2022-03-04T13:51:06Z</time>
      </trkpt>
      <trkpt lat="47.62459" lon="6.19943">
        <ele>267.5</ele>
        <time>2022-03-04T13:51:08Z</time>
      </trkpt>
      <trkpt lat="47.62458" lon="6.19952">
        <ele>267.5</ele>
        <time>2022-03-04T13:51:10Z</time>
      </trkpt>
      <trkpt lat="47.62457" lon="6.1996">
        <ele>267.5</ele>
        <time>2022-03-04T13:51:12Z</time>
      </trkpt>
      <trkpt lat="47.62457" lon="6.19967">
        <ele>267.4</ele>
        <time>2022-03-04T13:51:13Z</time>
      </trkpt>
      <trkpt lat="47.62456" lon="6.19975">
        <ele>267.4</ele>
        <time>2022-03-04T13:51:15Z</time>
      </trkpt>
      <trkpt lat="47.62455" lon="6.19983">
        <ele>267.5</ele>
        <time>2022-03-04T13:51:17Z</time>
      </trkpt>
      <trkpt lat="47.62454" lon="6.19991">
        <ele>267.6</ele>
        <time>2022-03-04T13:51:19Z</time>
      </trkpt>
      <trkpt lat="47.62452" lon="6.19999">
        <ele>267.5</ele>
        <time>2022-03-04T13:51:21Z</time>
      </trkpt>
      <trkpt lat="47.62451" lon="6.20006">
        <ele>267.3</ele>
        <time>2022-03-04T13:51:22Z</time>
      </trkpt>
      <trkpt lat="47.6245" lon="6.20015">
        <ele>266.9</ele>
        <time>2022-03-04T13:51:23Z</time>
      </trkpt>
      <trkpt lat="47.62449" lon="6.20021">
        <ele>266.6</ele>
        <time>2022-03-04T13:51:24Z</time>
      </trkpt>
      <trkpt lat="47.62447" lon="6.20031">
        <ele>266.3</ele>
        <time>2022-03-04T13:51:26Z</time>
      </trkpt>
      <trkpt lat="47.62445" lon="6.20044">
        <ele>266</ele>
        <time>2022-03-04T13:51:27Z</time>
      </trkpt>
      <trkpt lat="47.62443" lon="6.20059">
        <ele>266.1</ele>
        <time>2022-03-04T13:51:29Z</time>
      </trkpt>
      <trkpt lat="47.62442" lon="6.20067">
        <ele>266.4</ele>
        <time>2022-03-04T13:51:30Z</time>
      </trkpt>
      <trkpt lat="47.6244" lon="6.20075">
        <ele>266.8</ele>
        <time>2022-03-04T13:51:32Z</time>
      </trkpt>
      <trkpt lat="47.62439" lon="6.20082">
        <ele>267.1</ele>
        <time>2022-03-04T13:51:33Z</time>
      </trkpt>
      <trkpt lat="47.62438" lon="6.20092">
        <ele>267.5</ele>
        <time>2022-03-04T13:51:35Z</time>
      </trkpt>
      <trkpt lat="47.62437" lon="6.20099">
        <ele>267.8</ele>
        <time>2022-03-04T13:51:37Z</time>
      </trkpt>
      <trkpt lat="47.62436" lon="6.20107">
        <ele>268.1</ele>
        <time>2022-03-04T13:51:39Z</time>
      </trkpt>
      <trkpt lat="47.62436" lon="6.20114">
        <ele>268.5</ele>
        <time>2022-03-04T13:51:41Z</time>
      </trkpt>
      <trkpt lat="47.62436" lon="6.20123">
        <ele>269</ele>
        <time>2022-03-04T13:51:44Z</time>
      </trkpt>
      <trkpt lat="47.62435" lon="6.20131">
        <ele>269.5</ele>
        <time>2022-03-04T13:51:48Z</time>
      </trkpt>
      <trkpt lat="47.62435" lon="6.2014">
        <ele>270</ele>
        <time>2022-03-04T13:51:51Z</time>
      </trkpt>
      <trkpt lat="47.62434" lon="6.20148">
        <ele>270.3</ele>
        <time>2022-03-04T13:51:54Z</time>
      </trkpt>
      <trkpt lat="47.62434" lon="6.20156">
        <ele>270.6</ele>
        <time>2022-03-04T13:51:57Z</time>
      </trkpt>
      <trkpt lat="47.62434" lon="6.20163">
        <ele>270.9</ele>
        <time>2022-03-04T13:51:59Z</time>
      </trkpt>
      <trkpt lat="47.62434" lon="6.20171">
        <ele>271.1</ele>
        <time>2022-03-04T13:52:02Z</time>
      </trkpt>
      <trkpt lat="47.62434" lon="6.2018">
        <ele>271.3</ele>
        <time>2022-03-04T13:52:04Z</time>
      </trkpt>
      <trkpt lat="47.62434" lon="6.20189">
        <ele>271.5</ele>
        <time>2022-03-04T13:52:07Z</time>
      </trkpt>
      <trkpt lat="47.62434" lon="6.20196">
        <ele>271.6</ele>
        <time>2022-03-04T13:52:09Z</time>
      </trkpt>
      <trkpt lat="47.62433" lon="6.20204">
        <ele>271.7</ele>
        <time>2022-03-04T13:52:11Z</time>
      </trkpt>
      <trkpt lat="47.62433" lon="6.20211">
        <ele>271.8</ele>
        <time>2022-03-04T13:52:13Z</time>
      </trkpt>
      <trkpt lat="47.62433" lon="6.20218">
        <ele>271.9</ele>
        <time>2022-03-04T13:52:15Z</time>
      </trkpt>
      <trkpt lat="47.62434" lon="6.20227">
        <ele>272</ele>
        <time>2022-03-04T13:52:17Z</time>
      </trkpt>
      <trkpt lat="47.62433" lon="6.20234">
        <ele>272</ele>
        <time>2022-03-04T13:52:19Z</time>
      </trkpt>
      <trkpt lat="47.62434" lon="6.20243">
        <ele>272</ele>
        <time>2022-03-04T13:52:21Z</time>
      </trkpt>
      <trkpt lat="47.62434" lon="6.20251">
        <ele>272</ele>
        <time>2022-03-04T13:52:23Z</time>
      </trkpt>
      <trkpt lat="47.62434" lon="6.20259">
        <ele>271.9</ele>
        <time>2022-03-04T13:52:25Z</time>
      </trkpt>
      <trkpt lat="47.62435" lon="6.20268">
        <ele>271.8</ele>
        <time>2022-03-04T13:52:27Z</time>
      </trkpt>
      <trkpt lat="47.62435" lon="6.20276">
        <ele>271.7</ele>
        <time>2022-03-04T13:52:29Z</time>
      </trkpt>
      <trkpt lat="47.62436" lon="6.20284">
        <ele>271.7</ele>
        <time>2022-03-04T13:52:31Z</time>
      </trkpt>
      <trkpt lat="47.62436" lon="6.20291">
        <ele>271.7</ele>
        <time>2022-03-04T13:52:32Z</time>
      </trkpt>
      <trkpt lat="47.62437" lon="6.20299">
        <ele>271.7</ele>
        <time>2022-03-04T13:52:34Z</time>
      </trkpt>
      <trkpt lat="47.62438" lon="6.20307">
        <ele>271.8</ele>
        <time>2022-03-04T13:52:36Z</time>
      </trkpt>
      <trkpt lat="47.62438" lon="6.20314">
        <ele>271.8</ele>
        <time>2022-03-04T13:52:38Z</time>
      </trkpt>
      <trkpt lat="47.62438" lon="6.20322">
        <ele>271.8</ele>
        <time>2022-03-04T13:52:40Z</time>
      </trkpt>
      <trkpt lat="47.6244" lon="6.2033">
        <ele>271.8</ele>
        <time>2022-03-04T13:52:42Z</time>
      </trkpt>
      <trkpt lat="47.62441" lon="6.20337">
        <ele>272</ele>
        <time>2022-03-04T13:52:44Z</time>
      </trkpt>
      <trkpt lat="47.62441" lon="6.20344">
        <ele>272.2</ele>
        <time>2022-03-04T13:52:46Z</time>
      </trkpt>
      <trkpt lat="47.62442" lon="6.20353">
        <ele>272.5</ele>
        <time>2022-03-04T13:52:48Z</time>
      </trkpt>
      <trkpt lat="47.62443" lon="6.2036">
        <ele>272.9</ele>
        <time>2022-03-04T13:52:51Z</time>
      </trkpt>
      <trkpt lat="47.62445" lon="6.20369">
        <ele>273</ele>
        <time>2022-03-04T13:52:53Z</time>
      </trkpt>
      <trkpt lat="47.62446" lon="6.20377">
        <ele>273</ele>
        <time>2022-03-04T13:52:55Z</time>
      </trkpt>
      <trkpt lat="47.62446" lon="6.20384">
        <ele>273.1</ele>
        <time>2022-03-04T13:52:57Z</time>
      </trkpt>
      <trkpt lat="47.62447" lon="6.20391">
        <ele>273.1</ele>
        <time>2022-03-04T13:52:59Z</time>
      </trkpt>
      <trkpt lat="47.62448" lon="6.20399">
        <ele>273.2</ele>
        <time>2022-03-04T13:53:01Z</time>
      </trkpt>
      <trkpt lat="47.62449" lon="6.20407">
        <ele>273.2</ele>
        <time>2022-03-04T13:53:03Z</time>
      </trkpt>
      <trkpt lat="47.62449" lon="6.20413">
        <ele>273.3</ele>
        <time>2022-03-04T13:53:05Z</time>
      </trkpt>
      <trkpt lat="47.6245" lon="6.20421">
        <ele>273.6</ele>
        <time>2022-03-04T13:53:07Z</time>
      </trkpt>
      <trkpt lat="47.62452" lon="6.20432">
        <ele>273.9</ele>
        <time>2022-03-04T13:53:10Z</time>
      </trkpt>
      <trkpt lat="47.62453" lon="6.20439">
        <ele>274.2</ele>
        <time>2022-03-04T13:53:12Z</time>
      </trkpt>
      <trkpt lat="47.62453" lon="6.20447">
        <ele>274.4</ele>
        <time>2022-03-04T13:53:14Z</time>
      </trkpt>
      <trkpt lat="47.62454" lon="6.20454">
        <ele>274.6</ele>
        <time>2022-03-04T13:53:16Z</time>
      </trkpt>
      <trkpt lat="47.62454" lon="6.2046">
        <ele>274.7</ele>
        <time>2022-03-04T13:53:18Z</time>
      </trkpt>
      <trkpt lat="47.62455" lon="6.20467">
        <ele>274.9</ele>
        <time>2022-03-04T13:53:20Z</time>
      </trkpt>
      <trkpt lat="47.62456" lon="6.20476">
        <ele>275.1</ele>
        <time>2022-03-04T13:53:23Z</time>
      </trkpt>
      <trkpt lat="47.62456" lon="6.20484">
        <ele>275.4</ele>
        <time>2022-03-04T13:53:25Z</time>
      </trkpt>
      <trkpt lat="47.62457" lon="6.20493">
        <ele>275.7</ele>
        <time>2022-03-04T13:53:28Z</time>
      </trkpt>
      <trkpt lat="47.62458" lon="6.205">
        <ele>276</ele>
        <time>2022-03-04T13:53:30Z</time>
      </trkpt>
      <trkpt lat="47.62459" lon="6.20507">
        <ele>276.1</ele>
        <time>2022-03-04T13:53:33Z</time>
      </trkpt>
      <trkpt lat="47.62459" lon="6.20516">
        <ele>276.3</ele>
        <time>2022-03-04T13:53:36Z</time>
      </trkpt>
      <trkpt lat="47.6246" lon="6.20523">
        <ele>276.5</ele>
        <time>2022-03-04T13:53:38Z</time>
      </trkpt>
      <trkpt lat="47.62461" lon="6.20531">
        <ele>276.6</ele>
        <time>2022-03-04T13:53:41Z</time>
      </trkpt>
      <trkpt lat="47.62462" lon="6.20538">
        <ele>276.8</ele>
        <time>2022-03-04T13:53:43Z</time>
      </trkpt>
      <trkpt lat="47.62463" lon="6.20546">
        <ele>276.9</ele>
        <time>2022-03-04T13:53:46Z</time>
      </trkpt>
      <trkpt lat="47.62464" lon="6.20554">
        <ele>277</ele>
        <time>2022-03-04T13:53:47Z</time>
      </trkpt>
      <trkpt lat="47.62464" lon="6.20561">
        <ele>277.1</ele>
        <time>2022-03-04T13:53:51Z</time>
      </trkpt>
      <trkpt lat="47.62465" lon="6.20568">
        <ele>277.3</ele>
        <time>2022-03-04T13:53:53Z</time>
      </trkpt>
      <trkpt lat="47.62466" lon="6.20575">
        <ele>277.5</ele>
        <time>2022-03-04T13:53:54Z</time>
      </trkpt>
      <trkpt lat="47.62467" lon="6.20584">
        <ele>277.8</ele>
        <time>2022-03-04T13:53:58Z</time>
      </trkpt>
      <trkpt lat="47.62468" lon="6.20592">
        <ele>277.8</ele>
        <time>2022-03-04T13:53:59Z</time>
      </trkpt>
      <trkpt lat="47.62469" lon="6.20599">
        <ele>277.8</ele>
        <time>2022-03-04T13:54:01Z</time>
      </trkpt>
      <trkpt lat="47.62469" lon="6.20608">
        <ele>277.8</ele>
        <time>2022-03-04T13:54:05Z</time>
      </trkpt>
      <trkpt lat="47.6247" lon="6.20618">
        <ele>277.9</ele>
        <time>2022-03-04T13:54:07Z</time>
      </trkpt>
      <trkpt lat="47.62472" lon="6.20627">
        <ele>278</ele>
        <time>2022-03-04T13:54:08Z</time>
      </trkpt>
      <trkpt lat="47.62473" lon="6.20635">
        <ele>278</ele>
        <time>2022-03-04T13:54:11Z</time>
      </trkpt>
      <trkpt lat="47.62474" lon="6.20644">
        <ele>278</ele>
        <time>2022-03-04T13:54:14Z</time>
      </trkpt>
      <trkpt lat="47.62475" lon="6.20652">
        <ele>277.7</ele>
        <time>2022-03-04T13:54:15Z</time>
      </trkpt>
      <trkpt lat="47.62476" lon="6.20659">
        <ele>277.6</ele>
        <time>2022-03-04T13:54:17Z</time>
      </trkpt>
      <trkpt lat="47.62477" lon="6.20666">
        <ele>277.4</ele>
        <time>2022-03-04T13:54:20Z</time>
      </trkpt>
      <trkpt lat="47.62478" lon="6.20674">
        <ele>277.4</ele>
        <time>2022-03-04T13:54:21Z</time>
      </trkpt>
      <trkpt lat="47.62479" lon="6.20682">
        <ele>277.5</ele>
        <time>2022-03-04T13:54:24Z</time>
      </trkpt>
      <trkpt lat="47.6248" lon="6.2069">
        <ele>277.6</ele>
        <time>2022-03-04T13:54:26Z</time>
      </trkpt>
      <trkpt lat="47.62481" lon="6.20698">
        <ele>277.6</ele>
        <time>2022-03-04T13:54:27Z</time>
      </trkpt>
      <trkpt lat="47.62482" lon="6.20705">
        <ele>277.6</ele>
        <time>2022-03-04T13:54:30Z</time>
      </trkpt>
      <trkpt lat="47.62483" lon="6.20712">
        <ele>277.5</ele>
        <time>2022-03-04T13:54:32Z</time>
      </trkpt>
      <trkpt lat="47.62484" lon="6.20723">
        <ele>277.4</ele>
        <time>2022-03-04T13:54:33Z</time>
      </trkpt>
      <trkpt lat="47.62485" lon="6.20731">
        <ele>277.3</ele>
        <time>2022-03-04T13:54:36Z</time>
      </trkpt>
      <trkpt lat="47.62486" lon="6.2074">
        <ele>277.2</ele>
        <time>2022-03-04T13:54:38Z</time>
      </trkpt>
      <trkpt lat="47.62487" lon="6.20747">
        <ele>277.1</ele>
        <time>2022-03-04T13:54:40Z</time>
      </trkpt>
      <trkpt lat="47.62488" lon="6.20755">
        <ele>277</ele>
        <time>2022-03-04T13:54:41Z</time>
      </trkpt>
      <trkpt lat="47.62489" lon="6.20763">
        <ele>276.9</ele>
        <time>2022-03-04T13:54:44Z</time>
      </trkpt>
      <trkpt lat="47.6249" lon="6.20771">
        <ele>276.8</ele>
        <time>2022-03-04T13:54:46Z</time>
      </trkpt>
      <trkpt lat="47.62489" lon="6.20782">
        <ele>276.6</ele>
        <time>2022-03-04T13:54:48Z</time>
      </trkpt>
      <trkpt lat="47.62488" lon="6.20791">
        <ele>276.4</ele>
        <time>2022-03-04T13:54:50Z</time>
      </trkpt>
      <trkpt lat="47.62488" lon="6.20799">
        <ele>276.2</ele>
        <time>2022-03-04T13:54:52Z</time>
      </trkpt>
      <trkpt lat="47.62487" lon="6.20807">
        <ele>276.1</ele>
        <time>2022-03-04T13:54:54Z</time>
      </trkpt>
      <trkpt lat="47.62487" lon="6.20814">
        <ele>275.9</ele>
        <time>2022-03-04T13:54:55Z</time>
      </trkpt>
      <trkpt lat="47.62488" lon="6.20821">
        <ele>275.8</ele>
        <time>2022-03-04T13:54:57Z</time>
      </trkpt>
      <trkpt lat="47.62489" lon="6.20831">
        <ele>275.6</ele>
        <time>2022-03-04T13:54:58Z</time>
      </trkpt>
      <trkpt lat="47.62489" lon="6.20838">
        <ele>275.5</ele>
        <time>2022-03-04T13:55:01Z</time>
      </trkpt>
      <trkpt lat="47.62491" lon="6.2085">
        <ele>275.5</ele>
        <time>2022-03-04T13:55:02Z</time>
      </trkpt>
      <trkpt lat="47.62492" lon="6.2086">
        <ele>275.4</ele>
        <time>2022-03-04T13:55:04Z</time>
      </trkpt>
      <trkpt lat="47.62494" lon="6.20868">
        <ele>275.3</ele>
        <time>2022-03-04T13:55:06Z</time>
      </trkpt>
      <trkpt lat="47.62496" lon="6.20876">
        <ele>275.2</ele>
        <time>2022-03-04T13:55:09Z</time>
      </trkpt>
      <trkpt lat="47.62499" lon="6.20882">
        <ele>275.1</ele>
        <time>2022-03-04T13:55:11Z</time>
      </trkpt>
      <trkpt lat="47.62503" lon="6.20888">
        <ele>275.2</ele>
        <time>2022-03-04T13:55:11Z</time>
      </trkpt>
      <trkpt lat="47.62507" lon="6.20893">
        <ele>275.4</ele>
        <time>2022-03-04T13:55:14Z</time>
      </trkpt>
      <trkpt lat="47.62513" lon="6.20895">
        <ele>275.8</ele>
        <time>2022-03-04T13:55:16Z</time>
      </trkpt>
      <trkpt lat="47.62518" lon="6.20895">
        <ele>276.1</ele>
        <time>2022-03-04T13:55:18Z</time>
      </trkpt>
      <trkpt lat="47.62524" lon="6.20895">
        <ele>276.5</ele>
        <time>2022-03-04T13:55:19Z</time>
      </trkpt>
      <trkpt lat="47.6253" lon="6.20896">
        <ele>276.9</ele>
        <time>2022-03-04T13:55:22Z</time>
      </trkpt>
      <trkpt lat="47.62535" lon="6.20898">
        <ele>277.5</ele>
        <time>2022-03-04T13:55:27Z</time>
      </trkpt>
      <trkpt lat="47.62541" lon="6.209">
        <ele>278</ele>
        <time>2022-03-04T13:55:29Z</time>
      </trkpt>
      <trkpt lat="47.62545" lon="6.20904">
        <ele>278.3</ele>
        <time>2022-03-04T13:55:33Z</time>
      </trkpt>
      <trkpt lat="47.62549" lon="6.20908">
        <ele>278.6</ele>
        <time>2022-03-04T13:55:36Z</time>
      </trkpt>
      <trkpt lat="47.62554" lon="6.20911">
        <ele>279</ele>
        <time>2022-03-04T13:55:39Z</time>
      </trkpt>
      <trkpt lat="47.62558" lon="6.20915">
        <ele>279.3</ele>
        <time>2022-03-04T13:55:41Z</time>
      </trkpt>
      <trkpt lat="47.62562" lon="6.20921">
        <ele>279.4</ele>
        <time>2022-03-04T13:55:43Z</time>
      </trkpt>
      <trkpt lat="47.62566" lon="6.20924">
        <ele>279.6</ele>
        <time>2022-03-04T13:55:47Z</time>
      </trkpt>
      <trkpt lat="47.62571" lon="6.20922">
        <ele>280.3</ele>
        <time>2022-03-04T13:55:49Z</time>
      </trkpt>
      <trkpt lat="47.62577" lon="6.2092">
        <ele>281.1</ele>
        <time>2022-03-04T13:55:53Z</time>
      </trkpt>
      <trkpt lat="47.62582" lon="6.20919">
        <ele>281.7</ele>
        <time>2022-03-04T13:55:57Z</time>
      </trkpt>
      <trkpt lat="47.62586" lon="6.20918">
        <ele>282.3</ele>
        <time>2022-03-04T13:55:59Z</time>
      </trkpt>
      <trkpt lat="47.62591" lon="6.20915">
        <ele>282.8</ele>
        <time>2022-03-04T13:56:02Z</time>
      </trkpt>
      <trkpt lat="47.62596" lon="6.20913">
        <ele>283.4</ele>
        <time>2022-03-04T13:56:06Z</time>
      </trkpt>
      <trkpt lat="47.626" lon="6.2091">
        <ele>283.9</ele>
        <time>2022-03-04T13:56:09Z</time>
      </trkpt>
      <trkpt lat="47.62604" lon="6.20907">
        <ele>284.5</ele>
        <time>2022-03-04T13:56:13Z</time>
      </trkpt>
      <trkpt lat="47.62609" lon="6.20905">
        <ele>285.2</ele>
        <time>2022-03-04T13:56:17Z</time>
      </trkpt>
      <trkpt lat="47.62614" lon="6.20901">
        <ele>285.8</ele>
        <time>2022-03-04T13:56:21Z</time>
      </trkpt>
      <trkpt lat="47.62618" lon="6.20898">
        <ele>286.4</ele>
        <time>2022-03-04T13:56:25Z</time>
      </trkpt>
      <trkpt lat="47.62621" lon="6.20893">
        <ele>287</ele>
        <time>2022-03-04T13:56:28Z</time>
      </trkpt>
      <trkpt lat="47.62627" lon="6.2089">
        <ele>287.6</ele>
        <time>2022-03-04T13:56:34Z</time>
      </trkpt>
      <trkpt lat="47.62632" lon="6.20888">
        <ele>288.2</ele>
        <time>2022-03-04T13:56:38Z</time>
      </trkpt>
      <trkpt lat="47.62636" lon="6.2089">
        <ele>288.7</ele>
        <time>2022-03-04T13:56:43Z</time>
      </trkpt>
      <trkpt lat="47.62641" lon="6.20889">
        <ele>289.3</ele>
        <time>2022-03-04T13:56:48Z</time>
      </trkpt>
      <trkpt lat="47.62644" lon="6.20884">
        <ele>290</ele>
        <time>2022-03-04T13:56:53Z</time>
      </trkpt>
      <trkpt lat="47.62649" lon="6.20883">
        <ele>290.8</ele>
        <time>2022-03-04T13:56:56Z</time>
      </trkpt>
      <trkpt lat="47.62654" lon="6.20884">
        <ele>291.4</ele>
        <time>2022-03-04T13:57:00Z</time>
      </trkpt>
      <trkpt lat="47.62659" lon="6.20882">
        <ele>292.3</ele>
        <time>2022-03-04T13:57:03Z</time>
      </trkpt>
      <trkpt lat="47.62664" lon="6.20881">
        <ele>293.1</ele>
        <time>2022-03-04T13:57:08Z</time>
      </trkpt>
      <trkpt lat="47.62668" lon="6.20881">
        <ele>293.7</ele>
        <time>2022-03-04T13:57:11Z</time>
      </trkpt>
      <trkpt lat="47.62674" lon="6.20882">
        <ele>294.2</ele>
        <time>2022-03-04T13:57:16Z</time>
      </trkpt>
      <trkpt lat="47.62678" lon="6.2088">
        <ele>294.8</ele>
        <time>2022-03-04T13:57:20Z</time>
      </trkpt>
      <trkpt lat="47.62683" lon="6.20879">
        <ele>295.2</ele>
        <time>2022-03-04T13:57:25Z</time>
      </trkpt>
      <trkpt lat="47.62688" lon="6.20883">
        <ele>295.6</ele>
        <time>2022-03-04T13:57:29Z</time>
      </trkpt>
      <trkpt lat="47.62693" lon="6.20883">
        <ele>296.1</ele>
        <time>2022-03-04T13:57:32Z</time>
      </trkpt>
      <trkpt lat="47.62697" lon="6.20879">
        <ele>296.6</ele>
        <time>2022-03-04T13:57:35Z</time>
      </trkpt>
      <trkpt lat="47.62703" lon="6.20878">
        <ele>297</ele>
        <time>2022-03-04T13:57:39Z</time>
      </trkpt>
      <trkpt lat="47.62708" lon="6.2088">
        <ele>297.3</ele>
        <time>2022-03-04T13:57:43Z</time>
      </trkpt>
      <trkpt lat="47.6271" lon="6.20886">
        <ele>297.2</ele>
        <time>2022-03-04T13:57:45Z</time>
      </trkpt>
      <trkpt lat="47.62713" lon="6.20893">
        <ele>297.3</ele>
        <time>2022-03-04T13:57:50Z</time>
      </trkpt>
      <trkpt lat="47.6272" lon="6.20894">
        <ele>297.8</ele>
        <time>2022-03-04T13:57:54Z</time>
      </trkpt>
      <trkpt lat="47.62724" lon="6.20892">
        <ele>298.3</ele>
        <time>2022-03-04T13:57:58Z</time>
      </trkpt>
      <trkpt lat="47.62728" lon="6.20889">
        <ele>298.9</ele>
        <time>2022-03-04T13:58:02Z</time>
      </trkpt>
      <trkpt lat="47.62733" lon="6.20889">
        <ele>299.5</ele>
        <time>2022-03-04T13:58:24Z</time>
      </trkpt>
      <trkpt lat="47.62738" lon="6.20889">
        <ele>300.3</ele>
        <time>2022-03-04T13:59:13Z</time>
      </trkpt>
      <trkpt lat="47.62743" lon="6.2089">
        <ele>300.9</ele>
        <time>2022-03-04T13:59:18Z</time>
      </trkpt>
      <trkpt lat="47.62748" lon="6.20887">
        <ele>301.7</ele>
        <time>2022-03-04T13:59:39Z</time>
      </trkpt>
      <trkpt lat="47.62753" lon="6.20885">
        <ele>302.4</ele>
        <time>2022-03-04T13:59:44Z</time>
      </trkpt>
      <trkpt lat="47.62758" lon="6.20886">
        <ele>302.9</ele>
        <time>2022-03-04T14:00:01Z</time>
      </trkpt>
      <trkpt lat="47.62765" lon="6.20884">
        <ele>303.6</ele>
        <time>2022-03-04T14:00:04Z</time>
      </trkpt>
      <trkpt lat="47.62769" lon="6.20884">
        <ele>304.1</ele>
        <time>2022-03-04T14:00:05Z</time>
      </trkpt>
      <trkpt lat="47.62774" lon="6.20886">
        <ele>304.6</ele>
        <time>2022-03-04T14:00:11Z</time>
      </trkpt>
      <trkpt lat="47.62777" lon="6.2089">
        <ele>304.9</ele>
        <time>2022-03-04T14:00:31Z</time>
      </trkpt>
      <trkpt lat="47.62779" lon="6.20897">
        <ele>305.1</ele>
        <time>2022-03-04T14:00:41Z</time>
      </trkpt>
      <trkpt lat="47.62784" lon="6.20903">
        <ele>305.8</ele>
        <time>2022-03-04T14:00:45Z</time>
      </trkpt>
      <trkpt lat="47.62788" lon="6.20905">
        <ele>306.3</ele>
        <time>2022-03-04T14:00:49Z</time>
      </trkpt>
      <trkpt lat="47.62793" lon="6.20909">
        <ele>306.8</ele>
        <time>2022-03-04T14:00:52Z</time>
      </trkpt>
      <trkpt lat="47.62797" lon="6.20913">
        <ele>307.1</ele>
        <time>2022-03-04T14:00:54Z</time>
      </trkpt>
      <trkpt lat="47.628" lon="6.20909">
        <ele>307.6</ele>
        <time>2022-03-04T14:00:59Z</time>
      </trkpt>
      <trkpt lat="47.62804" lon="6.20905">
        <ele>308.2</ele>
        <time>2022-03-04T14:01:02Z</time>
      </trkpt>
      <trkpt lat="47.62809" lon="6.20901">
        <ele>308.9</ele>
        <time>2022-03-04T14:01:06Z</time>
      </trkpt>
      <trkpt lat="47.62813" lon="6.20898">
        <ele>309.5</ele>
        <time>2022-03-04T14:01:10Z</time>
      </trkpt>
      <trkpt lat="47.62817" lon="6.20892">
        <ele>310.1</ele>
        <time>2022-03-04T14:01:17Z</time>
      </trkpt>
      <trkpt lat="47.62818" lon="6.20885">
        <ele>310.4</ele>
        <time>2022-03-04T14:01:20Z</time>
      </trkpt>
      <trkpt lat="47.62821" lon="6.20879">
        <ele>310.7</ele>
        <time>2022-03-04T14:01:21Z</time>
      </trkpt>
      <trkpt lat="47.62825" lon="6.20874">
        <ele>311.1</ele>
        <time>2022-03-04T14:01:25Z</time>
      </trkpt>
      <trkpt lat="47.62828" lon="6.20868">
        <ele>311.5</ele>
        <time>2022-03-04T14:01:30Z</time>
      </trkpt>
      <trkpt lat="47.62831" lon="6.20862">
        <ele>311.8</ele>
        <time>2022-03-04T14:01:34Z</time>
      </trkpt>
      <trkpt lat="47.62835" lon="6.20857">
        <ele>312.2</ele>
        <time>2022-03-04T14:01:38Z</time>
      </trkpt>
      <trkpt lat="47.6284" lon="6.20852">
        <ele>312.7</ele>
        <time>2022-03-04T14:01:41Z</time>
      </trkpt>
      <trkpt lat="47.62843" lon="6.20847">
        <ele>313</ele>
        <time>2022-03-04T14:01:48Z</time>
      </trkpt>
      <trkpt lat="47.62846" lon="6.20839">
        <ele>313.4</ele>
        <time>2022-03-04T14:01:51Z</time>
      </trkpt>
      <trkpt lat="47.62848" lon="6.20832">
        <ele>313.5</ele>
        <time>2022-03-04T14:01:56Z</time>
      </trkpt>
      <trkpt lat="47.62851" lon="6.20825">
        <ele>313.7</ele>
        <time>2022-03-04T14:01:59Z</time>
      </trkpt>
      <trkpt lat="47.62856" lon="6.20816">
        <ele>314</ele>
        <time>2022-03-04T14:02:03Z</time>
      </trkpt>
      <trkpt lat="47.62858" lon="6.20809">
        <ele>313.9</ele>
        <time>2022-03-04T14:02:05Z</time>
      </trkpt>
      <trkpt lat="47.6286" lon="6.20802">
        <ele>313.9</ele>
        <time>2022-03-04T14:02:08Z</time>
      </trkpt>
      <trkpt lat="47.62863" lon="6.20796">
        <ele>314.2</ele>
        <time>2022-03-04T14:02:12Z</time>
      </trkpt>
      <trkpt lat="47.62866" lon="6.20791">
        <ele>314.5</ele>
        <time>2022-03-04T14:02:15Z</time>
      </trkpt>
      <trkpt lat="47.6287" lon="6.20786">
        <ele>314.7</ele>
        <time>2022-03-04T14:02:18Z</time>
      </trkpt>
      <trkpt lat="47.62874" lon="6.20782">
        <ele>315</ele>
        <time>2022-03-04T14:02:20Z</time>
      </trkpt>
      <trkpt lat="47.62878" lon="6.20776">
        <ele>315.2</ele>
        <time>2022-03-04T14:02:23Z</time>
      </trkpt>
      <trkpt lat="47.62882" lon="6.20771">
        <ele>315.4</ele>
        <time>2022-03-04T14:02:26Z</time>
      </trkpt>
      <trkpt lat="47.62885" lon="6.20765">
        <ele>315.6</ele>
        <time>2022-03-04T14:02:28Z</time>
      </trkpt>
      <trkpt lat="47.62887" lon="6.20759">
        <ele>315.8</ele>
        <time>2022-03-04T14:02:30Z</time>
      </trkpt>
      <trkpt lat="47.6289" lon="6.20753">
        <ele>316.1</ele>
        <time>2022-03-04T14:02:32Z</time>
      </trkpt>
      <trkpt lat="47.62893" lon="6.20744">
        <ele>316.1</ele>
        <time>2022-03-04T14:02:34Z</time>
      </trkpt>
      <trkpt lat="47.62895" lon="6.20738">
        <ele>316</ele>
        <time>2022-03-04T14:02:36Z</time>
      </trkpt>
      <trkpt lat="47.62897" lon="6.20729">
        <ele>315.8</ele>
        <time>2022-03-04T14:02:38Z</time>
      </trkpt>
      <trkpt lat="47.62898" lon="6.2072">
        <ele>315.5</ele>
        <time>2022-03-04T14:02:40Z</time>
      </trkpt>
      <trkpt lat="47.62898" lon="6.20713">
        <ele>315.1</ele>
        <time>2022-03-04T14:02:41Z</time>
      </trkpt>
      <trkpt lat="47.62899" lon="6.20704">
        <ele>314.6</ele>
        <time>2022-03-04T14:02:43Z</time>
      </trkpt>
      <trkpt lat="47.62899" lon="6.20695">
        <ele>314.1</ele>
        <time>2022-03-04T14:02:45Z</time>
      </trkpt>
      <trkpt lat="47.62902" lon="6.20686">
        <ele>314</ele>
        <time>2022-03-04T14:02:47Z</time>
      </trkpt>
      <trkpt lat="47.62904" lon="6.20679">
        <ele>313.8</ele>
        <time>2022-03-04T14:02:49Z</time>
      </trkpt>
      <trkpt lat="47.62907" lon="6.20671">
        <ele>313.5</ele>
        <time>2022-03-04T14:02:51Z</time>
      </trkpt>
      <trkpt lat="47.62909" lon="6.20665">
        <ele>313.4</ele>
        <time>2022-03-04T14:02:53Z</time>
      </trkpt>
      <trkpt lat="47.62913" lon="6.20658">
        <ele>313.3</ele>
        <time>2022-03-04T14:02:55Z</time>
      </trkpt>
      <trkpt lat="47.62916" lon="6.2065">
        <ele>313.4</ele>
        <time>2022-03-04T14:02:57Z</time>
      </trkpt>
      <trkpt lat="47.6292" lon="6.20644">
        <ele>313.4</ele>
        <time>2022-03-04T14:02:59Z</time>
      </trkpt>
      <trkpt lat="47.62922" lon="6.20637">
        <ele>313.3</ele>
        <time>2022-03-04T14:03:01Z</time>
      </trkpt>
      <trkpt lat="47.62924" lon="6.2063">
        <ele>313.2</ele>
        <time>2022-03-04T14:03:03Z</time>
      </trkpt>
      <trkpt lat="47.62926" lon="6.20624">
        <ele>313.2</ele>
        <time>2022-03-04T14:03:05Z</time>
      </trkpt>
      <trkpt lat="47.62928" lon="6.20617">
        <ele>313</ele>
        <time>2022-03-04T14:03:08Z</time>
      </trkpt>
      <trkpt lat="47.6293" lon="6.2061">
        <ele>312.9</ele>
        <time>2022-03-04T14:03:10Z</time>
      </trkpt>
      <trkpt lat="47.62932" lon="6.20602">
        <ele>312.8</ele>
        <time>2022-03-04T14:03:13Z</time>
      </trkpt>
      <trkpt lat="47.62935" lon="6.20594">
        <ele>312.7</ele>
        <time>2022-03-04T14:03:16Z</time>
      </trkpt>
      <trkpt lat="47.62937" lon="6.20588">
        <ele>312.6</ele>
        <time>2022-03-04T14:03:18Z</time>
      </trkpt>
      <trkpt lat="47.6294" lon="6.20581">
        <ele>312.6</ele>
        <time>2022-03-04T14:03:20Z</time>
      </trkpt>
      <trkpt lat="47.62943" lon="6.20576">
        <ele>312.6</ele>
        <time>2022-03-04T14:03:22Z</time>
      </trkpt>
      <trkpt lat="47.62947" lon="6.20569">
        <ele>312.7</ele>
        <time>2022-03-04T14:03:24Z</time>
      </trkpt>
      <trkpt lat="47.6295" lon="6.20561">
        <ele>312.6</ele>
        <time>2022-03-04T14:03:26Z</time>
      </trkpt>
      <trkpt lat="47.62953" lon="6.20554">
        <ele>312.5</ele>
        <time>2022-03-04T14:03:28Z</time>
      </trkpt>
      <trkpt lat="47.62956" lon="6.20547">
        <ele>312.4</ele>
        <time>2022-03-04T14:03:30Z</time>
      </trkpt>
      <trkpt lat="47.6296" lon="6.20539">
        <ele>312.3</ele>
        <time>2022-03-04T14:03:33Z</time>
      </trkpt>
      <trkpt lat="47.62964" lon="6.20535">
        <ele>312.4</ele>
        <time>2022-03-04T14:03:35Z</time>
      </trkpt>
      <trkpt lat="47.62966" lon="6.20527">
        <ele>312.3</ele>
        <time>2022-03-04T14:03:38Z</time>
      </trkpt>
      <trkpt lat="47.62968" lon="6.2052">
        <ele>312</ele>
        <time>2022-03-04T14:03:40Z</time>
      </trkpt>
      <trkpt lat="47.62971" lon="6.20514">
        <ele>311.8</ele>
        <time>2022-03-04T14:03:42Z</time>
      </trkpt>
      <trkpt lat="47.62975" lon="6.20509">
        <ele>311.8</ele>
        <time>2022-03-04T14:03:45Z</time>
      </trkpt>
      <trkpt lat="47.62979" lon="6.20504">
        <ele>311.8</ele>
        <time>2022-03-04T14:03:48Z</time>
      </trkpt>
      <trkpt lat="47.62984" lon="6.20501">
        <ele>311.9</ele>
        <time>2022-03-04T14:03:52Z</time>
      </trkpt>
      <trkpt lat="47.62988" lon="6.20498">
        <ele>312</ele>
        <time>2022-03-04T14:03:55Z</time>
      </trkpt>
      <trkpt lat="47.62994" lon="6.20496">
        <ele>312.3</ele>
        <time>2022-03-04T14:03:58Z</time>
      </trkpt>
      <trkpt lat="47.62998" lon="6.20495">
        <ele>312.5</ele>
        <time>2022-03-04T14:04:00Z</time>
      </trkpt>
      <trkpt lat="47.63003" lon="6.20494">
        <ele>312.8</ele>
        <time>2022-03-04T14:04:03Z</time>
      </trkpt>
      <trkpt lat="47.63009" lon="6.20493">
        <ele>313.2</ele>
        <time>2022-03-04T14:04:05Z</time>
      </trkpt>
      <trkpt lat="47.63015" lon="6.20491">
        <ele>313.6</ele>
        <time>2022-03-04T14:04:06Z</time>
      </trkpt>
      <trkpt lat="47.63023" lon="6.2049">
        <ele>314.2</ele>
        <time>2022-03-04T14:04:09Z</time>
      </trkpt>
      <trkpt lat="47.63027" lon="6.20491">
        <ele>314.6</ele>
        <time>2022-03-04T14:04:12Z</time>
      </trkpt>
      <trkpt lat="47.63033" lon="6.2049">
        <ele>315</ele>
        <time>2022-03-04T14:04:16Z</time>
      </trkpt>
      <trkpt lat="47.63038" lon="6.20488">
        <ele>315.3</ele>
        <time>2022-03-04T14:04:20Z</time>
      </trkpt>
      <trkpt lat="47.63043" lon="6.20491">
        <ele>315.8</ele>
        <time>2022-03-04T14:04:23Z</time>
      </trkpt>
      <trkpt lat="47.63047" lon="6.20497">
        <ele>316.3</ele>
        <time>2022-03-04T14:04:26Z</time>
      </trkpt>
      <trkpt lat="47.63051" lon="6.20501">
        <ele>316.7</ele>
        <time>2022-03-04T14:04:29Z</time>
      </trkpt>
      <trkpt lat="47.63055" lon="6.20503">
        <ele>317.1</ele>
        <time>2022-03-04T14:04:31Z</time>
      </trkpt>
      <trkpt lat="47.6306" lon="6.20506">
        <ele>317.5</ele>
        <time>2022-03-04T14:04:48Z</time>
      </trkpt>
      <trkpt lat="47.63064" lon="6.20511">
        <ele>318</ele>
        <time>2022-03-04T14:04:52Z</time>
      </trkpt>
      <trkpt lat="47.63068" lon="6.20516">
        <ele>318.5</ele>
        <time>2022-03-04T14:04:56Z</time>
      </trkpt>
      <trkpt lat="47.63073" lon="6.20517">
        <ele>318.8</ele>
        <time>2022-03-04T14:05:00Z</time>
      </trkpt>
      <trkpt lat="47.63078" lon="6.20518">
        <ele>319.2</ele>
        <time>2022-03-04T14:05:04Z</time>
      </trkpt>
      <trkpt lat="47.63081" lon="6.20523">
        <ele>319.7</ele>
        <time>2022-03-04T14:05:11Z</time>
      </trkpt>
      <trkpt lat="47.63081" lon="6.20532">
        <ele>320.2</ele>
        <time>2022-03-04T14:05:17Z</time>
      </trkpt>
      <trkpt lat="47.63079" lon="6.2054">
        <ele>320.5</ele>
        <time>2022-03-04T14:05:21Z</time>
      </trkpt>
      <trkpt lat="47.63078" lon="6.20548">
        <ele>321.1</ele>
        <time>2022-03-04T14:05:27Z</time>
      </trkpt>
      <trkpt lat="47.63082" lon="6.20552">
        <ele>321.6</ele>
        <time>2022-03-04T14:05:35Z</time>
      </trkpt>
      <trkpt lat="47.63086" lon="6.20556">
        <ele>322.1</ele>
        <time>2022-03-04T14:05:41Z</time>
      </trkpt>
      <trkpt lat="47.6309" lon="6.20559">
        <ele>322.5</ele>
        <time>2022-03-04T14:05:47Z</time>
      </trkpt>
      <trkpt lat="47.63094" lon="6.20563">
        <ele>322.9</ele>
        <time>2022-03-04T14:05:52Z</time>
      </trkpt>
      <trkpt lat="47.63098" lon="6.20566">
        <ele>323.3</ele>
        <time>2022-03-04T14:06:13Z</time>
      </trkpt>
      <trkpt lat="47.63102" lon="6.20571">
        <ele>323.8</ele>
        <time>2022-03-04T14:06:30Z</time>
      </trkpt>
      <trkpt lat="47.63105" lon="6.20575">
        <ele>324.2</ele>
        <time>2022-03-04T14:06:34Z</time>
      </trkpt>
      <trkpt lat="47.6311" lon="6.20577">
        <ele>324.5</ele>
        <time>2022-03-04T14:06:37Z</time>
      </trkpt>
      <trkpt lat="47.63114" lon="6.20579">
        <ele>324.9</ele>
        <time>2022-03-04T14:06:42Z</time>
      </trkpt>
      <trkpt lat="47.63118" lon="6.20584">
        <ele>325.6</ele>
        <time>2022-03-04T14:06:52Z</time>
      </trkpt>
      <trkpt lat="47.63121" lon="6.20589">
        <ele>326.3</ele>
        <time>2022-03-04T14:06:57Z</time>
      </trkpt>
      <trkpt lat="47.63123" lon="6.20596">
        <ele>327</ele>
        <time>2022-03-04T14:07:02Z</time>
      </trkpt>
      <trkpt lat="47.63125" lon="6.20602">
        <ele>327.7</ele>
        <time>2022-03-04T14:07:08Z</time>
      </trkpt>
      <trkpt lat="47.63127" lon="6.20608">
        <ele>328.4</ele>
        <time>2022-03-04T14:07:13Z</time>
      </trkpt>
      <trkpt lat="47.63132" lon="6.20615">
        <ele>329</ele>
        <time>2022-03-04T14:07:20Z</time>
      </trkpt>
      <trkpt lat="47.63136" lon="6.20619">
        <ele>329.4</ele>
        <time>2022-03-04T14:07:24Z</time>
      </trkpt>
      <trkpt lat="47.6314" lon="6.20623">
        <ele>329.9</ele>
        <time>2022-03-04T14:07:29Z</time>
      </trkpt>
      <trkpt lat="47.63145" lon="6.20624">
        <ele>330.2</ele>
        <time>2022-03-04T14:07:34Z</time>
      </trkpt>
      <trkpt lat="47.63145" lon="6.20631">
        <ele>330.7</ele>
        <time>2022-03-04T14:07:39Z</time>
      </trkpt>
      <trkpt lat="47.63144" lon="6.20638">
        <ele>331.1</ele>
        <time>2022-03-04T14:07:49Z</time>
      </trkpt>
      <trkpt lat="47.63144" lon="6.20645">
        <ele>331.6</ele>
        <time>2022-03-04T14:07:56Z</time>
      </trkpt>
      <trkpt lat="47.63149" lon="6.20651">
        <ele>332</ele>
        <time>2022-03-04T14:08:01Z</time>
      </trkpt>
      <trkpt lat="47.63154" lon="6.20653">
        <ele>332.3</ele>
        <time>2022-03-04T14:08:05Z</time>
      </trkpt>
      <trkpt lat="47.63159" lon="6.20656">
        <ele>332.5</ele>
        <time>2022-03-04T14:08:09Z</time>
      </trkpt>
      <trkpt lat="47.63162" lon="6.20662">
        <ele>332.8</ele>
        <time>2022-03-04T14:08:14Z</time>
      </trkpt>
      <trkpt lat="47.63166" lon="6.20665">
        <ele>332.9</ele>
        <time>2022-03-04T14:08:19Z</time>
      </trkpt>
      <trkpt lat="47.63167" lon="6.20672">
        <ele>333.6</ele>
        <time>2022-03-04T14:08:23Z</time>
      </trkpt>
      <trkpt lat="47.63168" lon="6.20679">
        <ele>334.4</ele>
        <time>2022-03-04T14:08:28Z</time>
      </trkpt>
      <trkpt lat="47.63172" lon="6.2068">
        <ele>334.5</ele>
        <time>2022-03-04T14:08:36Z</time>
      </trkpt>
      <trkpt lat="47.63177" lon="6.20682">
        <ele>334.8</ele>
        <time>2022-03-04T14:08:41Z</time>
      </trkpt>
      <trkpt lat="47.63181" lon="6.20687">
        <ele>335.4</ele>
        <time>2022-03-04T14:08:46Z</time>
      </trkpt>
      <trkpt lat="47.63182" lon="6.20694">
        <ele>336</ele>
        <time>2022-03-04T14:08:51Z</time>
      </trkpt>
      <trkpt lat="47.63184" lon="6.207">
        <ele>336.5</ele>
        <time>2022-03-04T14:08:56Z</time>
      </trkpt>
      <trkpt lat="47.63188" lon="6.20703">
        <ele>336.9</ele>
        <time>2022-03-04T14:09:01Z</time>
      </trkpt>
      <trkpt lat="47.63193" lon="6.20703">
        <ele>336.9</ele>
        <time>2022-03-04T14:09:04Z</time>
      </trkpt>
      <trkpt lat="47.63195" lon="6.20709">
        <ele>337.6</ele>
        <time>2022-03-04T14:09:18Z</time>
      </trkpt>
      <trkpt lat="47.63198" lon="6.20715">
        <ele>338.4</ele>
        <time>2022-03-04T14:09:23Z</time>
      </trkpt>
      <trkpt lat="47.63203" lon="6.20718">
        <ele>338.9</ele>
        <time>2022-03-04T14:09:28Z</time>
      </trkpt>
      <trkpt lat="47.63208" lon="6.2072">
        <ele>339.3</ele>
        <time>2022-03-04T14:09:31Z</time>
      </trkpt>
      <trkpt lat="47.63211" lon="6.20725">
        <ele>339.8</ele>
        <time>2022-03-04T14:09:36Z</time>
      </trkpt>
      <trkpt lat="47.63217" lon="6.20728">
        <ele>340.2</ele>
        <time>2022-03-04T14:09:41Z</time>
      </trkpt>
      <trkpt lat="47.63219" lon="6.20734">
        <ele>340.8</ele>
        <time>2022-03-04T14:09:47Z</time>
      </trkpt>
      <trkpt lat="47.63221" lon="6.20742">
        <ele>341.4</ele>
        <time>2022-03-04T14:09:51Z</time>
      </trkpt>
      <trkpt lat="47.6322" lon="6.20748">
        <ele>341.8</ele>
        <time>2022-03-04T14:10:06Z</time>
      </trkpt>
      <trkpt lat="47.63224" lon="6.2075">
        <ele>342.1</ele>
        <time>2022-03-04T14:10:19Z</time>
      </trkpt>
      <trkpt lat="47.63228" lon="6.20756">
        <ele>342.4</ele>
        <time>2022-03-04T14:10:23Z</time>
      </trkpt>
      <trkpt lat="47.6323" lon="6.20762">
        <ele>342.7</ele>
        <time>2022-03-04T14:10:28Z</time>
      </trkpt>
      <trkpt lat="47.63235" lon="6.20763">
        <ele>342.9</ele>
        <time>2022-03-04T14:10:35Z</time>
      </trkpt>
      <trkpt lat="47.63238" lon="6.20767">
        <ele>343.2</ele>
        <time>2022-03-04T14:10:40Z</time>
      </trkpt>
      <trkpt lat="47.6324" lon="6.20774">
        <ele>343.5</ele>
        <time>2022-03-04T14:10:45Z</time>
      </trkpt>
      <trkpt lat="47.63238" lon="6.2078">
        <ele>343.7</ele>
        <time>2022-03-04T14:10:49Z</time>
      </trkpt>
      <trkpt lat="47.63237" lon="6.20787">
        <ele>344</ele>
        <time>2022-03-04T14:10:52Z</time>
      </trkpt>
      <trkpt lat="47.63235" lon="6.20794">
        <ele>344.4</ele>
        <time>2022-03-04T14:10:59Z</time>
      </trkpt>
      <trkpt lat="47.63237" lon="6.20801">
        <ele>344.7</ele>
        <time>2022-03-04T14:11:06Z</time>
      </trkpt>
      <trkpt lat="47.63242" lon="6.20803">
        <ele>344.9</ele>
        <time>2022-03-04T14:11:11Z</time>
      </trkpt>
      <trkpt lat="47.63246" lon="6.20805">
        <ele>345</ele>
        <time>2022-03-04T14:11:12Z</time>
      </trkpt>
      <trkpt lat="47.63251" lon="6.20805">
        <ele>345</ele>
        <time>2022-03-04T14:11:16Z</time>
      </trkpt>
      <trkpt lat="47.63255" lon="6.20808">
        <ele>345.4</ele>
        <time>2022-03-04T14:11:27Z</time>
      </trkpt>
      <trkpt lat="47.6326" lon="6.2081">
        <ele>345.7</ele>
        <time>2022-03-04T14:11:51Z</time>
      </trkpt>
      <trkpt lat="47.63264" lon="6.20813">
        <ele>346</ele>
        <time>2022-03-04T14:11:54Z</time>
      </trkpt>
      <trkpt lat="47.63268" lon="6.20815">
        <ele>346.4</ele>
        <time>2022-03-04T14:11:58Z</time>
      </trkpt>
      <trkpt lat="47.6327" lon="6.20821">
        <ele>346.9</ele>
        <time>2022-03-04T14:12:03Z</time>
      </trkpt>
      <trkpt lat="47.63268" lon="6.20827">
        <ele>347.2</ele>
        <time>2022-03-04T14:12:14Z</time>
      </trkpt>
      <trkpt lat="47.63271" lon="6.20833">
        <ele>347.7</ele>
        <time>2022-03-04T14:12:20Z</time>
      </trkpt>
      <trkpt lat="47.63275" lon="6.20841">
        <ele>348.2</ele>
        <time>2022-03-04T14:12:24Z</time>
      </trkpt>
      <trkpt lat="47.63277" lon="6.20846">
        <ele>348.4</ele>
        <time>2022-03-04T14:12:28Z</time>
      </trkpt>
      <trkpt lat="47.63281" lon="6.20852">
        <ele>348.7</ele>
        <time>2022-03-04T14:12:32Z</time>
      </trkpt>
      <trkpt lat="47.63285" lon="6.20855">
        <ele>349</ele>
        <time>2022-03-04T14:12:35Z</time>
      </trkpt>
      <trkpt lat="47.63289" lon="6.20861">
        <ele>349.4</ele>
        <time>2022-03-04T14:12:39Z</time>
      </trkpt>
      <trkpt lat="47.63291" lon="6.20867">
        <ele>349.7</ele>
        <time>2022-03-04T14:12:41Z</time>
      </trkpt>
      <trkpt lat="47.63294" lon="6.20873">
        <ele>350</ele>
        <time>2022-03-04T14:12:45Z</time>
      </trkpt>
      <trkpt lat="47.63298" lon="6.20875">
        <ele>350.2</ele>
        <time>2022-03-04T14:12:48Z</time>
      </trkpt>
      <trkpt lat="47.63302" lon="6.20878">
        <ele>350.5</ele>
        <time>2022-03-04T14:12:50Z</time>
      </trkpt>
      <trkpt lat="47.63309" lon="6.2088">
        <ele>350.8</ele>
        <time>2022-03-04T14:12:54Z</time>
      </trkpt>
      <trkpt lat="47.63313" lon="6.20882">
        <ele>351</ele>
        <time>2022-03-04T14:12:57Z</time>
      </trkpt>
      <trkpt lat="47.63318" lon="6.20884">
        <ele>351.3</ele>
        <time>2022-03-04T14:12:59Z</time>
      </trkpt>
      <trkpt lat="47.63323" lon="6.20889">
        <ele>351.6</ele>
        <time>2022-03-04T14:13:03Z</time>
      </trkpt>
      <trkpt lat="47.63326" lon="6.20893">
        <ele>352</ele>
        <time>2022-03-04T14:13:07Z</time>
      </trkpt>
      <trkpt lat="47.6333" lon="6.20898">
        <ele>352.5</ele>
        <time>2022-03-04T14:13:10Z</time>
      </trkpt>
      <trkpt lat="47.63335" lon="6.20901">
        <ele>353</ele>
        <time>2022-03-04T14:13:14Z</time>
      </trkpt>
      <trkpt lat="47.63338" lon="6.20907">
        <ele>353.5</ele>
        <time>2022-03-04T14:13:17Z</time>
      </trkpt>
      <trkpt lat="47.63341" lon="6.20913">
        <ele>354</ele>
        <time>2022-03-04T14:13:22Z</time>
      </trkpt>
      <trkpt lat="47.63344" lon="6.20918">
        <ele>354.4</ele>
        <time>2022-03-04T14:13:25Z</time>
      </trkpt>
      <trkpt lat="47.63348" lon="6.20924">
        <ele>354.8</ele>
        <time>2022-03-04T14:13:29Z</time>
      </trkpt>
      <trkpt lat="47.63352" lon="6.20928">
        <ele>355.1</ele>
        <time>2022-03-04T14:13:32Z</time>
      </trkpt>
      <trkpt lat="47.63357" lon="6.20933">
        <ele>355.4</ele>
        <time>2022-03-04T14:13:35Z</time>
      </trkpt>
      <trkpt lat="47.63361" lon="6.20937">
        <ele>355.7</ele>
        <time>2022-03-04T14:13:40Z</time>
      </trkpt>
      <trkpt lat="47.63364" lon="6.20944">
        <ele>356.2</ele>
        <time>2022-03-04T14:13:44Z</time>
      </trkpt>
      <trkpt lat="47.63367" lon="6.2095">
        <ele>356.6</ele>
        <time>2022-03-04T14:13:47Z</time>
      </trkpt>
      <trkpt lat="47.63369" lon="6.20956">
        <ele>357</ele>
        <time>2022-03-04T14:13:53Z</time>
      </trkpt>
      <trkpt lat="47.6337" lon="6.20963">
        <ele>357.3</ele>
        <time>2022-03-04T14:13:57Z</time>
      </trkpt>
      <trkpt lat="47.63373" lon="6.2097">
        <ele>357.8</ele>
        <time>2022-03-04T14:14:02Z</time>
      </trkpt>
      <trkpt lat="47.63379" lon="6.20975">
        <ele>358.4</ele>
        <time>2022-03-04T14:14:05Z</time>
      </trkpt>
      <trkpt lat="47.63383" lon="6.2098">
        <ele>358.8</ele>
        <time>2022-03-04T14:14:10Z</time>
      </trkpt>
      <trkpt lat="47.63387" lon="6.20985">
        <ele>359.3</ele>
        <time>2022-03-04T14:14:13Z</time>
      </trkpt>
      <trkpt lat="47.6339" lon="6.2099">
        <ele>359.7</ele>
        <time>2022-03-04T14:14:16Z</time>
      </trkpt>
      <trkpt lat="47.63393" lon="6.20995">
        <ele>360.2</ele>
        <time>2022-03-04T14:14:19Z</time>
      </trkpt>
      <trkpt lat="47.63397" lon="6.21001">
        <ele>360.6</ele>
        <time>2022-03-04T14:14:24Z</time>
      </trkpt>
      <trkpt lat="47.634" lon="6.21007">
        <ele>361</ele>
        <time>2022-03-04T14:14:27Z</time>
      </trkpt>
      <trkpt lat="47.63401" lon="6.21013">
        <ele>361.3</ele>
        <time>2022-03-04T14:14:31Z</time>
      </trkpt>
      <trkpt lat="47.63403" lon="6.21019">
        <ele>361.7</ele>
        <time>2022-03-04T14:14:35Z</time>
      </trkpt>
      <trkpt lat="47.63405" lon="6.21026">
        <ele>362.1</ele>
        <time>2022-03-04T14:14:39Z</time>
      </trkpt>
      <trkpt lat="47.63408" lon="6.21031">
        <ele>362.3</ele>
        <time>2022-03-04T14:14:41Z</time>
      </trkpt>
      <trkpt lat="47.63414" lon="6.21036">
        <ele>362.8</ele>
        <time>2022-03-04T14:14:45Z</time>
      </trkpt>
      <trkpt lat="47.63417" lon="6.2104">
        <ele>363</ele>
        <time>2022-03-04T14:14:47Z</time>
      </trkpt>
      <trkpt lat="47.6342" lon="6.21048">
        <ele>363.2</ele>
        <time>2022-03-04T14:14:52Z</time>
      </trkpt>
      <trkpt lat="47.63424" lon="6.21055">
        <ele>363.5</ele>
        <time>2022-03-04T14:14:54Z</time>
      </trkpt>
      <trkpt lat="47.63429" lon="6.21058">
        <ele>363.9</ele>
        <time>2022-03-04T14:14:59Z</time>
      </trkpt>
      <trkpt lat="47.63433" lon="6.21063">
        <ele>364.2</ele>
        <time>2022-03-04T14:15:02Z</time>
      </trkpt>
      <trkpt lat="47.63435" lon="6.21069">
        <ele>364.4</ele>
        <time>2022-03-04T14:15:05Z</time>
      </trkpt>
      <trkpt lat="47.63438" lon="6.21075">
        <ele>364.6</ele>
        <time>2022-03-04T14:15:07Z</time>
      </trkpt>
      <trkpt lat="47.63441" lon="6.2108">
        <ele>364.8</ele>
        <time>2022-03-04T14:15:10Z</time>
      </trkpt>
      <trkpt lat="47.63445" lon="6.21086">
        <ele>365</ele>
        <time>2022-03-04T14:15:11Z</time>
      </trkpt>
      <trkpt lat="47.63449" lon="6.21092">
        <ele>365.2</ele>
        <time>2022-03-04T14:15:15Z</time>
      </trkpt>
      <trkpt lat="47.63453" lon="6.21097">
        <ele>365.3</ele>
        <time>2022-03-04T14:15:17Z</time>
      </trkpt>
      <trkpt lat="47.63456" lon="6.21101">
        <ele>365.4</ele>
        <time>2022-03-04T14:15:20Z</time>
      </trkpt>
      <trkpt lat="47.6346" lon="6.21107">
        <ele>365.6</ele>
        <time>2022-03-04T14:15:22Z</time>
      </trkpt>
      <trkpt lat="47.63464" lon="6.21113">
        <ele>365.7</ele>
        <time>2022-03-04T14:15:24Z</time>
      </trkpt>
      <trkpt lat="47.63468" lon="6.21118">
        <ele>365.8</ele>
        <time>2022-03-04T14:15:28Z</time>
      </trkpt>
      <trkpt lat="47.63472" lon="6.21124">
        <ele>366</ele>
        <time>2022-03-04T14:15:31Z</time>
      </trkpt>
      <trkpt lat="47.63477" lon="6.21129">
        <ele>366.3</ele>
        <time>2022-03-04T14:15:34Z</time>
      </trkpt>
      <trkpt lat="47.6348" lon="6.21135">
        <ele>366.6</ele>
        <time>2022-03-04T14:15:37Z</time>
      </trkpt>
      <trkpt lat="47.63484" lon="6.21141">
        <ele>366.8</ele>
        <time>2022-03-04T14:15:40Z</time>
      </trkpt>
      <trkpt lat="47.63488" lon="6.21147">
        <ele>367.1</ele>
        <time>2022-03-04T14:15:43Z</time>
      </trkpt>
      <trkpt lat="47.63491" lon="6.21153">
        <ele>367.4</ele>
        <time>2022-03-04T14:15:45Z</time>
      </trkpt>
      <trkpt lat="47.63494" lon="6.2116">
        <ele>367.6</ele>
        <time>2022-03-04T14:15:49Z</time>
      </trkpt>
      <trkpt lat="47.63497" lon="6.21166">
        <ele>367.8</ele>
        <time>2022-03-04T14:15:52Z</time>
      </trkpt>
      <trkpt lat="47.635" lon="6.21172">
        <ele>368</ele>
        <time>2022-03-04T14:15:55Z</time>
      </trkpt>
      <trkpt lat="47.63505" lon="6.21174">
        <ele>368.3</ele>
        <time>2022-03-04T14:15:59Z</time>
      </trkpt>
      <trkpt lat="47.63509" lon="6.21178">
        <ele>368.6</ele>
        <time>2022-03-04T14:16:06Z</time>
      </trkpt>
      <trkpt lat="47.63513" lon="6.21183">
        <ele>368.9</ele>
        <time>2022-03-04T14:16:10Z</time>
      </trkpt>
      <trkpt lat="47.63519" lon="6.21185">
        <ele>369.3</ele>
        <time>2022-03-04T14:16:12Z</time>
      </trkpt>
      <trkpt lat="47.63524" lon="6.21188">
        <ele>369.7</ele>
        <time>2022-03-04T14:16:14Z</time>
      </trkpt>
      <trkpt lat="47.63529" lon="6.21191">
        <ele>370.1</ele>
        <time>2022-03-04T14:16:17Z</time>
      </trkpt>
      <trkpt lat="47.63534" lon="6.21193">
        <ele>370.2</ele>
        <time>2022-03-04T14:16:20Z</time>
      </trkpt>
      <trkpt lat="47.63539" lon="6.21192">
        <ele>370.4</ele>
        <time>2022-03-04T14:16:23Z</time>
      </trkpt>
      <trkpt lat="47.63545" lon="6.21192">
        <ele>370.6</ele>
        <time>2022-03-04T14:16:26Z</time>
      </trkpt>
      <trkpt lat="47.63549" lon="6.21195">
        <ele>370.8</ele>
        <time>2022-03-04T14:16:28Z</time>
      </trkpt>
      <trkpt lat="47.63552" lon="6.21201">
        <ele>370.9</ele>
        <time>2022-03-04T14:16:32Z</time>
      </trkpt>
      <trkpt lat="47.63553" lon="6.21209">
        <ele>370.9</ele>
        <time>2022-03-04T14:16:35Z</time>
      </trkpt>
      <trkpt lat="47.63554" lon="6.21217">
        <ele>370.9</ele>
        <time>2022-03-04T14:16:38Z</time>
      </trkpt>
      <trkpt lat="47.63556" lon="6.21226">
        <ele>371</ele>
        <time>2022-03-04T14:16:40Z</time>
      </trkpt>
      <trkpt lat="47.63558" lon="6.21233">
        <ele>371.1</ele>
        <time>2022-03-04T14:16:44Z</time>
      </trkpt>
      <trkpt lat="47.63562" lon="6.21238">
        <ele>371.2</ele>
        <time>2022-03-04T14:16:45Z</time>
      </trkpt>
      <trkpt lat="47.63566" lon="6.21243">
        <ele>371.4</ele>
        <time>2022-03-04T14:16:49Z</time>
      </trkpt>
      <trkpt lat="47.6357" lon="6.21247">
        <ele>371.5</ele>
        <time>2022-03-04T14:16:52Z</time>
      </trkpt>
      <trkpt lat="47.63575" lon="6.21246">
        <ele>371.7</ele>
        <time>2022-03-04T14:16:56Z</time>
      </trkpt>
      <trkpt lat="47.63581" lon="6.21247">
        <ele>371.9</ele>
        <time>2022-03-04T14:17:01Z</time>
      </trkpt>
      <trkpt lat="47.63585" lon="6.21251">
        <ele>372</ele>
        <time>2022-03-04T14:17:03Z</time>
      </trkpt>
      <trkpt lat="47.6359" lon="6.21255">
        <ele>372</ele>
        <time>2022-03-04T14:17:06Z</time>
      </trkpt>
      <trkpt lat="47.63595" lon="6.21259">
        <ele>372</ele>
        <time>2022-03-04T14:17:09Z</time>
      </trkpt>
      <trkpt lat="47.63599" lon="6.21263">
        <ele>372</ele>
        <time>2022-03-04T14:17:11Z</time>
      </trkpt>
      <trkpt lat="47.63604" lon="6.21267">
        <ele>372</ele>
        <time>2022-03-04T14:17:13Z</time>
      </trkpt>
      <trkpt lat="47.63608" lon="6.21269">
        <ele>372</ele>
        <time>2022-03-04T14:17:15Z</time>
      </trkpt>
      <trkpt lat="47.63613" lon="6.21271">
        <ele>372.1</ele>
        <time>2022-03-04T14:17:19Z</time>
      </trkpt>
      <trkpt lat="47.63618" lon="6.21275">
        <ele>372.2</ele>
        <time>2022-03-04T14:17:22Z</time>
      </trkpt>
      <trkpt lat="47.63621" lon="6.21281">
        <ele>372.4</ele>
        <time>2022-03-04T14:17:24Z</time>
      </trkpt>
      <trkpt lat="47.63623" lon="6.21288">
        <ele>372.4</ele>
        <time>2022-03-04T14:17:28Z</time>
      </trkpt>
      <trkpt lat="47.63626" lon="6.21294">
        <ele>372.5</ele>
        <time>2022-03-04T14:17:31Z</time>
      </trkpt>
      <trkpt lat="47.63631" lon="6.21298">
        <ele>372.7</ele>
        <time>2022-03-04T14:17:33Z</time>
      </trkpt>
      <trkpt lat="47.63636" lon="6.21301">
        <ele>372.9</ele>
        <time>2022-03-04T14:17:35Z</time>
      </trkpt>
      <trkpt lat="47.6364" lon="6.21304">
        <ele>373</ele>
        <time>2022-03-04T14:17:37Z</time>
      </trkpt>
      <trkpt lat="47.63646" lon="6.21307">
        <ele>373.2</ele>
        <time>2022-03-04T14:17:39Z</time>
      </trkpt>
      <trkpt lat="47.6365" lon="6.2131">
        <ele>373.4</ele>
        <time>2022-03-04T14:17:41Z</time>
      </trkpt>
      <trkpt lat="47.63655" lon="6.21314">
        <ele>373.6</ele>
        <time>2022-03-04T14:17:43Z</time>
      </trkpt>
      <trkpt lat="47.63659" lon="6.2132">
        <ele>373.7</ele>
        <time>2022-03-04T14:17:44Z</time>
      </trkpt>
      <trkpt lat="47.63664" lon="6.21327">
        <ele>373.9</ele>
        <time>2022-03-04T14:17:47Z</time>
      </trkpt>
      <trkpt lat="47.63667" lon="6.21332">
        <ele>374</ele>
        <time>2022-03-04T14:17:51Z</time>
      </trkpt>
      <trkpt lat="47.63671" lon="6.21336">
        <ele>374.1</ele>
        <time>2022-03-04T14:17:53Z</time>
      </trkpt>
      <trkpt lat="47.63675" lon="6.2134">
        <ele>374</ele>
        <time>2022-03-04T14:17:55Z</time>
      </trkpt>
      <trkpt lat="47.63679" lon="6.21346">
        <ele>374</ele>
        <time>2022-03-04T14:17:58Z</time>
      </trkpt>
      <trkpt lat="47.63683" lon="6.21351">
        <ele>373.9</ele>
        <time>2022-03-04T14:18:00Z</time>
      </trkpt>
      <trkpt lat="47.63686" lon="6.21356">
        <ele>373.9</ele>
        <time>2022-03-04T14:18:02Z</time>
      </trkpt>
      <trkpt lat="47.6369" lon="6.21361">
        <ele>373.8</ele>
        <time>2022-03-04T14:18:04Z</time>
      </trkpt>
      <trkpt lat="47.63693" lon="6.21368">
        <ele>374</ele>
        <time>2022-03-04T14:18:06Z</time>
      </trkpt>
      <trkpt lat="47.63695" lon="6.21375">
        <ele>374</ele>
        <time>2022-03-04T14:18:08Z</time>
      </trkpt>
      <trkpt lat="47.63697" lon="6.21382">
        <ele>374</ele>
        <time>2022-03-04T14:18:10Z</time>
      </trkpt>
      <trkpt lat="47.637" lon="6.21388">
        <ele>374</ele>
        <time>2022-03-04T14:18:12Z</time>
      </trkpt>
      <trkpt lat="47.63702" lon="6.21394">
        <ele>373.9</ele>
        <time>2022-03-04T14:18:13Z</time>
      </trkpt>
      <trkpt lat="47.63702" lon="6.21401">
        <ele>373.7</ele>
        <time>2022-03-04T14:18:14Z</time>
      </trkpt>
      <trkpt lat="47.63703" lon="6.21409">
        <ele>373.5</ele>
        <time>2022-03-04T14:18:16Z</time>
      </trkpt>
      <trkpt lat="47.63703" lon="6.21416">
        <ele>373.3</ele>
        <time>2022-03-04T14:18:17Z</time>
      </trkpt>
      <trkpt lat="47.63704" lon="6.21425">
        <ele>373.2</ele>
        <time>2022-03-04T14:18:19Z</time>
      </trkpt>
      <trkpt lat="47.63706" lon="6.21434">
        <ele>373.2</ele>
        <time>2022-03-04T14:18:21Z</time>
      </trkpt>
      <trkpt lat="47.63709" lon="6.21441">
        <ele>373.1</ele>
        <time>2022-03-04T14:18:23Z</time>
      </trkpt>
      <trkpt lat="47.63712" lon="6.21447">
        <ele>373</ele>
        <time>2022-03-04T14:18:25Z</time>
      </trkpt>
      <trkpt lat="47.63718" lon="6.21452">
        <ele>373</ele>
        <time>2022-03-04T14:18:27Z</time>
      </trkpt>
      <trkpt lat="47.63723" lon="6.21457">
        <ele>373</ele>
        <time>2022-03-04T14:18:28Z</time>
      </trkpt>
      <trkpt lat="47.63727" lon="6.2146">
        <ele>373.2</ele>
        <time>2022-03-04T14:18:28Z</time>
      </trkpt>
      <trkpt lat="47.63731" lon="6.21464">
        <ele>373.3</ele>
        <time>2022-03-04T14:18:29Z</time>
      </trkpt>
      <trkpt lat="47.63738" lon="6.2147">
        <ele>373.6</ele>
        <time>2022-03-04T14:18:32Z</time>
      </trkpt>
      <trkpt lat="47.63743" lon="6.21475">
        <ele>373.6</ele>
        <time>2022-03-04T14:18:32Z</time>
      </trkpt>
      <trkpt lat="47.6375" lon="6.21481">
        <ele>373.7</ele>
        <time>2022-03-04T14:18:35Z</time>
      </trkpt>
      <trkpt lat="47.63754" lon="6.21484">
        <ele>373.6</ele>
        <time>2022-03-04T14:18:35Z</time>
      </trkpt>
      <trkpt lat="47.63762" lon="6.21488">
        <ele>373.7</ele>
        <time>2022-03-04T14:18:37Z</time>
      </trkpt>
      <trkpt lat="47.63767" lon="6.21489">
        <ele>373.8</ele>
        <time>2022-03-04T14:18:40Z</time>
      </trkpt>
      <trkpt lat="47.63773" lon="6.21491">
        <ele>373.9</ele>
        <time>2022-03-04T14:18:42Z</time>
      </trkpt>
      <trkpt lat="47.63777" lon="6.21493">
        <ele>374</ele>
        <time>2022-03-04T14:18:42Z</time>
      </trkpt>
      <trkpt lat="47.63783" lon="6.21493">
        <ele>374</ele>
        <time>2022-03-04T14:18:45Z</time>
      </trkpt>
      <trkpt lat="47.63789" lon="6.21494">
        <ele>374.1</ele>
        <time>2022-03-04T14:18:47Z</time>
      </trkpt>
      <trkpt lat="47.63795" lon="6.215">
        <ele>374</ele>
        <time>2022-03-04T14:18:48Z</time>
      </trkpt>
      <trkpt lat="47.63798" lon="6.21506">
        <ele>373.8</ele>
        <time>2022-03-04T14:18:50Z</time>
      </trkpt>
      <trkpt lat="47.63801" lon="6.21511">
        <ele>373.6</ele>
        <time>2022-03-04T14:18:54Z</time>
      </trkpt>
      <trkpt lat="47.63804" lon="6.21516">
        <ele>373.4</ele>
        <time>2022-03-04T14:18:56Z</time>
      </trkpt>
      <trkpt lat="47.63809" lon="6.2152">
        <ele>373.4</ele>
        <time>2022-03-04T14:18:58Z</time>
      </trkpt>
      <trkpt lat="47.63814" lon="6.21521">
        <ele>373.5</ele>
        <time>2022-03-04T14:19:00Z</time>
      </trkpt>
      <trkpt lat="47.63821" lon="6.21523">
        <ele>373.7</ele>
        <time>2022-03-04T14:19:02Z</time>
      </trkpt>
      <trkpt lat="47.63826" lon="6.21526">
        <ele>373.8</ele>
        <time>2022-03-04T14:19:04Z</time>
      </trkpt>
      <trkpt lat="47.63831" lon="6.21525">
        <ele>374</ele>
        <time>2022-03-04T14:19:06Z</time>
      </trkpt>
      <trkpt lat="47.63836" lon="6.21525">
        <ele>374.1</ele>
        <time>2022-03-04T14:19:08Z</time>
      </trkpt>
      <trkpt lat="47.63841" lon="6.21524">
        <ele>374.1</ele>
        <time>2022-03-04T14:19:10Z</time>
      </trkpt>
      <trkpt lat="47.63847" lon="6.21524">
        <ele>374.2</ele>
        <time>2022-03-04T14:19:12Z</time>
      </trkpt>
      <trkpt lat="47.63851" lon="6.21523">
        <ele>374.2</ele>
        <time>2022-03-04T14:19:14Z</time>
      </trkpt>
      <trkpt lat="47.63856" lon="6.2152">
        <ele>374.3</ele>
        <time>2022-03-04T14:19:16Z</time>
      </trkpt>
      <trkpt lat="47.63859" lon="6.21516">
        <ele>374.4</ele>
        <time>2022-03-04T14:19:18Z</time>
      </trkpt>
      <trkpt lat="47.63865" lon="6.21514">
        <ele>374.5</ele>
        <time>2022-03-04T14:19:20Z</time>
      </trkpt>
      <trkpt lat="47.63871" lon="6.21518">
        <ele>374.4</ele>
        <time>2022-03-04T14:19:23Z</time>
      </trkpt>
      <trkpt lat="47.63875" lon="6.21518">
        <ele>374.3</ele>
        <time>2022-03-04T14:19:26Z</time>
      </trkpt>
      <trkpt lat="47.6388" lon="6.21518">
        <ele>374.3</ele>
        <time>2022-03-04T14:19:28Z</time>
      </trkpt>
      <trkpt lat="47.63886" lon="6.2152">
        <ele>374.3</ele>
        <time>2022-03-04T14:19:30Z</time>
      </trkpt>
      <trkpt lat="47.63891" lon="6.21522">
        <ele>374.2</ele>
        <time>2022-03-04T14:19:32Z</time>
      </trkpt>
      <trkpt lat="47.63898" lon="6.21523">
        <ele>373.9</ele>
        <time>2022-03-04T14:19:34Z</time>
      </trkpt>
      <trkpt lat="47.63903" lon="6.21524">
        <ele>373.7</ele>
        <time>2022-03-04T14:19:36Z</time>
      </trkpt>
      <trkpt lat="47.6391" lon="6.21527">
        <ele>373.3</ele>
        <time>2022-03-04T14:19:38Z</time>
      </trkpt>
      <trkpt lat="47.63916" lon="6.21528">
        <ele>373</ele>
        <time>2022-03-04T14:19:40Z</time>
      </trkpt>
      <trkpt lat="47.63921" lon="6.21528">
        <ele>372.7</ele>
        <time>2022-03-04T14:19:41Z</time>
      </trkpt>
      <trkpt lat="47.63928" lon="6.21526">
        <ele>372.3</ele>
        <time>2022-03-04T14:19:43Z</time>
      </trkpt>
      <trkpt lat="47.63932" lon="6.21524">
        <ele>372.2</ele>
        <time>2022-03-04T14:19:44Z</time>
      </trkpt>
      <trkpt lat="47.63938" lon="6.2152">
        <ele>372.2</ele>
        <time>2022-03-04T14:19:46Z</time>
      </trkpt>
      <trkpt lat="47.63944" lon="6.21516">
        <ele>372.3</ele>
        <time>2022-03-04T14:19:47Z</time>
      </trkpt>
      <trkpt lat="47.63949" lon="6.21513">
        <ele>372.2</ele>
        <time>2022-03-04T14:19:49Z</time>
      </trkpt>
      <trkpt lat="47.63956" lon="6.21508">
        <ele>372.3</ele>
        <time>2022-03-04T14:19:51Z</time>
      </trkpt>
      <trkpt lat="47.63962" lon="6.21505">
        <ele>372.2</ele>
        <time>2022-03-04T14:19:53Z</time>
      </trkpt>
      <trkpt lat="47.63966" lon="6.21502">
        <ele>372.1</ele>
        <time>2022-03-04T14:19:54Z</time>
      </trkpt>
      <trkpt lat="47.63971" lon="6.215">
        <ele>372.1</ele>
        <time>2022-03-04T14:19:55Z</time>
      </trkpt>
      <trkpt lat="47.63976" lon="6.21497">
        <ele>372.2</ele>
        <time>2022-03-04T14:19:57Z</time>
      </trkpt>
      <trkpt lat="47.63981" lon="6.21494">
        <ele>372.4</ele>
        <time>2022-03-04T14:19:59Z</time>
      </trkpt>
      <trkpt lat="47.63986" lon="6.21491">
        <ele>372.5</ele>
        <time>2022-03-04T14:20:01Z</time>
      </trkpt>
      <trkpt lat="47.6399" lon="6.21489">
        <ele>372.6</ele>
        <time>2022-03-04T14:20:02Z</time>
      </trkpt>
      <trkpt lat="47.63996" lon="6.21486">
        <ele>372.7</ele>
        <time>2022-03-04T14:20:04Z</time>
      </trkpt>
      <trkpt lat="47.64003" lon="6.21482">
        <ele>372.9</ele>
        <time>2022-03-04T14:20:06Z</time>
      </trkpt>
      <trkpt lat="47.64007" lon="6.2148">
        <ele>373</ele>
        <time>2022-03-04T14:20:07Z</time>
      </trkpt>
      <trkpt lat="47.64013" lon="6.21477">
        <ele>373.1</ele>
        <time>2022-03-04T14:20:09Z</time>
      </trkpt>
      <trkpt lat="47.64018" lon="6.21474">
        <ele>373.2</ele>
        <time>2022-03-04T14:20:10Z</time>
      </trkpt>
      <trkpt lat="47.64025" lon="6.21473">
        <ele>373.1</ele>
        <time>2022-03-04T14:20:12Z</time>
      </trkpt>
      <trkpt lat="47.6403" lon="6.21472">
        <ele>372.9</ele>
        <time>2022-03-04T14:20:13Z</time>
      </trkpt>
      <trkpt lat="47.64037" lon="6.21471">
        <ele>372.7</ele>
        <time>2022-03-04T14:20:15Z</time>
      </trkpt>
      <trkpt lat="47.64041" lon="6.2147">
        <ele>372.6</ele>
        <time>2022-03-04T14:20:17Z</time>
      </trkpt>
      <trkpt lat="47.64047" lon="6.21469">
        <ele>372.5</ele>
        <time>2022-03-04T14:20:19Z</time>
      </trkpt>
      <trkpt lat="47.64053" lon="6.21467">
        <ele>372.5</ele>
        <time>2022-03-04T14:20:22Z</time>
      </trkpt>
      <trkpt lat="47.64058" lon="6.21464">
        <ele>372.5</ele>
        <time>2022-03-04T14:20:24Z</time>
      </trkpt>
      <trkpt lat="47.64062" lon="6.21462">
        <ele>372.4</ele>
        <time>2022-03-04T14:20:27Z</time>
      </trkpt>
      <trkpt lat="47.64066" lon="6.21459">
        <ele>372.4</ele>
        <time>2022-03-04T14:20:29Z</time>
      </trkpt>
      <trkpt lat="47.6407" lon="6.21453">
        <ele>372.5</ele>
        <time>2022-03-04T14:20:31Z</time>
      </trkpt>
      <trkpt lat="47.64074" lon="6.2145">
        <ele>372.4</ele>
        <time>2022-03-04T14:20:33Z</time>
      </trkpt>
      <trkpt lat="47.6408" lon="6.21443">
        <ele>372.3</ele>
        <time>2022-03-04T14:20:36Z</time>
      </trkpt>
      <trkpt lat="47.64086" lon="6.21438">
        <ele>372</ele>
        <time>2022-03-04T14:20:38Z</time>
      </trkpt>
      <trkpt lat="47.64093" lon="6.21436">
        <ele>371.5</ele>
        <time>2022-03-04T14:20:40Z</time>
      </trkpt>
      <trkpt lat="47.64099" lon="6.21434">
        <ele>371.1</ele>
        <time>2022-03-04T14:20:42Z</time>
      </trkpt>
      <trkpt lat="47.64103" lon="6.21431">
        <ele>370.7</ele>
        <time>2022-03-04T14:20:44Z</time>
      </trkpt>
      <trkpt lat="47.64108" lon="6.21428">
        <ele>370.2</ele>
        <time>2022-03-04T14:20:45Z</time>
      </trkpt>
      <trkpt lat="47.64114" lon="6.21425">
        <ele>369.8</ele>
        <time>2022-03-04T14:20:47Z</time>
      </trkpt>
      <trkpt lat="47.64121" lon="6.21422">
        <ele>369.3</ele>
        <time>2022-03-04T14:20:49Z</time>
      </trkpt>
      <trkpt lat="47.64127" lon="6.21418">
        <ele>368.9</ele>
        <time>2022-03-04T14:20:50Z</time>
      </trkpt>
      <trkpt lat="47.64131" lon="6.21414">
        <ele>368.5</ele>
        <time>2022-03-04T14:20:51Z</time>
      </trkpt>
      <trkpt lat="47.64137" lon="6.2141">
        <ele>367.9</ele>
        <time>2022-03-04T14:20:53Z</time>
      </trkpt>
      <trkpt lat="47.64143" lon="6.21406">
        <ele>367.4</ele>
        <time>2022-03-04T14:20:55Z</time>
      </trkpt>
      <trkpt lat="47.64148" lon="6.21402">
        <ele>367.1</ele>
        <time>2022-03-04T14:20:56Z</time>
      </trkpt>
      <trkpt lat="47.64153" lon="6.21398">
        <ele>366.8</ele>
        <time>2022-03-04T14:20:58Z</time>
      </trkpt>
      <trkpt lat="47.64158" lon="6.21395">
        <ele>366.5</ele>
        <time>2022-03-04T14:20:59Z</time>
      </trkpt>
      <trkpt lat="47.64164" lon="6.21392">
        <ele>366.2</ele>
        <time>2022-03-04T14:21:01Z</time>
      </trkpt>
      <trkpt lat="47.64169" lon="6.21391">
        <ele>366.1</ele>
        <time>2022-03-04T14:21:03Z</time>
      </trkpt>
      <trkpt lat="47.64174" lon="6.21389">
        <ele>366</ele>
        <time>2022-03-04T14:21:05Z</time>
      </trkpt>
      <trkpt lat="47.64179" lon="6.21388">
        <ele>366</ele>
        <time>2022-03-04T14:21:07Z</time>
      </trkpt>
      <trkpt lat="47.64183" lon="6.21385">
        <ele>365.9</ele>
        <time>2022-03-04T14:21:08Z</time>
      </trkpt>
      <trkpt lat="47.64188" lon="6.21382">
        <ele>365.8</ele>
        <time>2022-03-04T14:21:11Z</time>
      </trkpt>
      <trkpt lat="47.64194" lon="6.21379">
        <ele>365.7</ele>
        <time>2022-03-04T14:21:13Z</time>
      </trkpt>
      <trkpt lat="47.64198" lon="6.21376">
        <ele>365.5</ele>
        <time>2022-03-04T14:21:15Z</time>
      </trkpt>
      <trkpt lat="47.64202" lon="6.21374">
        <ele>365.5</ele>
        <time>2022-03-04T14:21:18Z</time>
      </trkpt>
      <trkpt lat="47.64207" lon="6.2138">
        <ele>365.7</ele>
        <time>2022-03-04T14:21:21Z</time>
      </trkpt>
      <trkpt lat="47.6421" lon="6.21385">
        <ele>365.9</ele>
        <time>2022-03-04T14:21:23Z</time>
      </trkpt>
      <trkpt lat="47.64214" lon="6.21393">
        <ele>366</ele>
        <time>2022-03-04T14:21:26Z</time>
      </trkpt>
      <trkpt lat="47.64215" lon="6.214">
        <ele>366.1</ele>
        <time>2022-03-04T14:21:28Z</time>
      </trkpt>
      <trkpt lat="47.64217" lon="6.21407">
        <ele>366.1</ele>
        <time>2022-03-04T14:21:31Z</time>
      </trkpt>
      <trkpt lat="47.64219" lon="6.21414">
        <ele>366.1</ele>
        <time>2022-03-04T14:21:33Z</time>
      </trkpt>
      <trkpt lat="47.64219" lon="6.21422">
        <ele>366.3</ele>
        <time>2022-03-04T14:21:35Z</time>
      </trkpt>
      <trkpt lat="47.64219" lon="6.2143">
        <ele>366.5</ele>
        <time>2022-03-04T14:21:37Z</time>
      </trkpt>
      <trkpt lat="47.64219" lon="6.21437">
        <ele>366.8</ele>
        <time>2022-03-04T14:21:39Z</time>
      </trkpt>
      <trkpt lat="47.6422" lon="6.21447">
        <ele>367</ele>
        <time>2022-03-04T14:21:41Z</time>
      </trkpt>
      <trkpt lat="47.64221" lon="6.21456">
        <ele>367</ele>
        <time>2022-03-04T14:21:43Z</time>
      </trkpt>
      <trkpt lat="47.64222" lon="6.21464">
        <ele>367</ele>
        <time>2022-03-04T14:21:45Z</time>
      </trkpt>
      <trkpt lat="47.64222" lon="6.21472">
        <ele>367</ele>
        <time>2022-03-04T14:21:47Z</time>
      </trkpt>
      <trkpt lat="47.64223" lon="6.21479">
        <ele>367</ele>
        <time>2022-03-04T14:21:49Z</time>
      </trkpt>
      <trkpt lat="47.64223" lon="6.21488">
        <ele>367</ele>
        <time>2022-03-04T14:21:51Z</time>
      </trkpt>
      <trkpt lat="47.64223" lon="6.21496">
        <ele>367</ele>
        <time>2022-03-04T14:21:53Z</time>
      </trkpt>
      <trkpt lat="47.64223" lon="6.21503">
        <ele>367</ele>
        <time>2022-03-04T14:21:55Z</time>
      </trkpt>
      <trkpt lat="47.64224" lon="6.21511">
        <ele>367</ele>
        <time>2022-03-04T14:21:58Z</time>
      </trkpt>
      <trkpt lat="47.64225" lon="6.21521">
        <ele>366.9</ele>
        <time>2022-03-04T14:22:00Z</time>
      </trkpt>
      <trkpt lat="47.64226" lon="6.21528">
        <ele>366.9</ele>
        <time>2022-03-04T14:22:02Z</time>
      </trkpt>
      <trkpt lat="47.64227" lon="6.21535">
        <ele>366.6</ele>
        <time>2022-03-04T14:22:04Z</time>
      </trkpt>
      <trkpt lat="47.64228" lon="6.21543">
        <ele>366.3</ele>
        <time>2022-03-04T14:22:06Z</time>
      </trkpt>
      <trkpt lat="47.64231" lon="6.2155">
        <ele>366.1</ele>
        <time>2022-03-04T14:22:08Z</time>
      </trkpt>
      <trkpt lat="47.64235" lon="6.21557">
        <ele>366</ele>
        <time>2022-03-04T14:22:11Z</time>
      </trkpt>
      <trkpt lat="47.64238" lon="6.21563">
        <ele>365.8</ele>
        <time>2022-03-04T14:22:14Z</time>
      </trkpt>
      <trkpt lat="47.64241" lon="6.21568">
        <ele>365.7</ele>
        <time>2022-03-04T14:22:17Z</time>
      </trkpt>
      <trkpt lat="47.64246" lon="6.21569">
        <ele>365.6</ele>
        <time>2022-03-04T14:22:23Z</time>
      </trkpt>
      <trkpt lat="47.64251" lon="6.21568">
        <ele>365.5</ele>
        <time>2022-03-04T14:22:26Z</time>
      </trkpt>
      <trkpt lat="47.64256" lon="6.21567">
        <ele>365.4</ele>
        <time>2022-03-04T14:22:28Z</time>
      </trkpt>
      <trkpt lat="47.64261" lon="6.21566">
        <ele>365.2</ele>
        <time>2022-03-04T14:22:30Z</time>
      </trkpt>
      <trkpt lat="47.64266" lon="6.21564">
        <ele>365.1</ele>
        <time>2022-03-04T14:22:32Z</time>
      </trkpt>
      <trkpt lat="47.6427" lon="6.21564">
        <ele>365</ele>
        <time>2022-03-04T14:22:34Z</time>
      </trkpt>
      <trkpt lat="47.64278" lon="6.21563">
        <ele>364.7</ele>
        <time>2022-03-04T14:22:36Z</time>
      </trkpt>
      <trkpt lat="47.64283" lon="6.21562">
        <ele>364.4</ele>
        <time>2022-03-04T14:22:38Z</time>
      </trkpt>
      <trkpt lat="47.64289" lon="6.21561">
        <ele>364</ele>
        <time>2022-03-04T14:22:40Z</time>
      </trkpt>
      <trkpt lat="47.64295" lon="6.2156">
        <ele>363.7</ele>
        <time>2022-03-04T14:22:42Z</time>
      </trkpt>
      <trkpt lat="47.64301" lon="6.21559">
        <ele>363.3</ele>
        <time>2022-03-04T14:22:44Z</time>
      </trkpt>
      <trkpt lat="47.64306" lon="6.21559">
        <ele>363</ele>
        <time>2022-03-04T14:22:46Z</time>
      </trkpt>
      <trkpt lat="47.64312" lon="6.21559">
        <ele>362.8</ele>
        <time>2022-03-04T14:22:48Z</time>
      </trkpt>
      <trkpt lat="47.64318" lon="6.21558">
        <ele>362.5</ele>
        <time>2022-03-04T14:22:50Z</time>
      </trkpt>
      <trkpt lat="47.64323" lon="6.21558">
        <ele>362.4</ele>
        <time>2022-03-04T14:22:51Z</time>
      </trkpt>
      <trkpt lat="47.64328" lon="6.21557">
        <ele>362.2</ele>
        <time>2022-03-04T14:22:53Z</time>
      </trkpt>
      <trkpt lat="47.64335" lon="6.21557">
        <ele>361.9</ele>
        <time>2022-03-04T14:22:56Z</time>
      </trkpt>
      <trkpt lat="47.64343" lon="6.21557">
        <ele>361.3</ele>
        <time>2022-03-04T14:22:58Z</time>
      </trkpt>
      <trkpt lat="47.64349" lon="6.21557">
        <ele>360.8</ele>
        <time>2022-03-04T14:23:00Z</time>
      </trkpt>
      <trkpt lat="47.64355" lon="6.21557">
        <ele>360.5</ele>
        <time>2022-03-04T14:23:01Z</time>
      </trkpt>
      <trkpt lat="47.64363" lon="6.21556">
        <ele>359.9</ele>
        <time>2022-03-04T14:23:03Z</time>
      </trkpt>
      <trkpt lat="47.64369" lon="6.21556">
        <ele>359.4</ele>
        <time>2022-03-04T14:23:05Z</time>
      </trkpt>
      <trkpt lat="47.64375" lon="6.21557">
        <ele>359</ele>
        <time>2022-03-04T14:23:06Z</time>
      </trkpt>
      <trkpt lat="47.6438" lon="6.21557">
        <ele>358.6</ele>
        <time>2022-03-04T14:23:07Z</time>
      </trkpt>
      <trkpt lat="47.64387" lon="6.21558">
        <ele>358.1</ele>
        <time>2022-03-04T14:23:09Z</time>
      </trkpt>
      <trkpt lat="47.64393" lon="6.2156">
        <ele>357.7</ele>
        <time>2022-03-04T14:23:11Z</time>
      </trkpt>
      <trkpt lat="47.64397" lon="6.2156">
        <ele>357.4</ele>
        <time>2022-03-04T14:23:12Z</time>
      </trkpt>
      <trkpt lat="47.64402" lon="6.21557">
        <ele>357</ele>
        <time>2022-03-04T14:23:14Z</time>
      </trkpt>
      <trkpt lat="47.64407" lon="6.21554">
        <ele>356.7</ele>
        <time>2022-03-04T14:23:16Z</time>
      </trkpt>
      <trkpt lat="47.64411" lon="6.2155">
        <ele>356.4</ele>
        <time>2022-03-04T14:23:18Z</time>
      </trkpt>
      <trkpt lat="47.64415" lon="6.21545">
        <ele>356.1</ele>
        <time>2022-03-04T14:23:19Z</time>
      </trkpt>
      <trkpt lat="47.6442" lon="6.21539">
        <ele>355.7</ele>
        <time>2022-03-04T14:23:21Z</time>
      </trkpt>
      <trkpt lat="47.64425" lon="6.21533">
        <ele>355.4</ele>
        <time>2022-03-04T14:23:23Z</time>
      </trkpt>
      <trkpt lat="47.64429" lon="6.21529">
        <ele>355.1</ele>
        <time>2022-03-04T14:23:24Z</time>
      </trkpt>
      <trkpt lat="47.64433" lon="6.21523">
        <ele>354.8</ele>
        <time>2022-03-04T14:23:26Z</time>
      </trkpt>
      <trkpt lat="47.64437" lon="6.21516">
        <ele>354.6</ele>
        <time>2022-03-04T14:23:28Z</time>
      </trkpt>
      <trkpt lat="47.6444" lon="6.21511">
        <ele>354.3</ele>
        <time>2022-03-04T14:23:29Z</time>
      </trkpt>
      <trkpt lat="47.64443" lon="6.21506">
        <ele>354.1</ele>
        <time>2022-03-04T14:23:30Z</time>
      </trkpt>
      <trkpt lat="47.64448" lon="6.21501">
        <ele>353.8</ele>
        <time>2022-03-04T14:23:32Z</time>
      </trkpt>
      <trkpt lat="47.64454" lon="6.21502">
        <ele>353.3</ele>
        <time>2022-03-04T14:23:34Z</time>
      </trkpt>
      <trkpt lat="47.64456" lon="6.21508">
        <ele>353.2</ele>
        <time>2022-03-04T14:23:36Z</time>
      </trkpt>
      <trkpt lat="47.64457" lon="6.21516">
        <ele>353.1</ele>
        <time>2022-03-04T14:23:39Z</time>
      </trkpt>
      <trkpt lat="47.64457" lon="6.21525">
        <ele>353.1</ele>
        <time>2022-03-04T14:23:42Z</time>
      </trkpt>
      <trkpt lat="47.64456" lon="6.21533">
        <ele>353.2</ele>
        <time>2022-03-04T14:23:44Z</time>
      </trkpt>
      <trkpt lat="47.64453" lon="6.21543">
        <ele>353.4</ele>
        <time>2022-03-04T14:23:47Z</time>
      </trkpt>
      <trkpt lat="47.64451" lon="6.21551">
        <ele>353.5</ele>
        <time>2022-03-04T14:23:49Z</time>
      </trkpt>
      <trkpt lat="47.64449" lon="6.21557">
        <ele>353.7</ele>
        <time>2022-03-04T14:23:51Z</time>
      </trkpt>
      <trkpt lat="47.64446" lon="6.21564">
        <ele>353.9</ele>
        <time>2022-03-04T14:23:53Z</time>
      </trkpt>
      <trkpt lat="47.64443" lon="6.21573">
        <ele>354.1</ele>
        <time>2022-03-04T14:23:56Z</time>
      </trkpt>
      <trkpt lat="47.64439" lon="6.21579">
        <ele>354.4</ele>
        <time>2022-03-04T14:23:58Z</time>
      </trkpt>
      <trkpt lat="47.64436" lon="6.21585">
        <ele>354.6</ele>
        <time>2022-03-04T14:24:00Z</time>
      </trkpt>
      <trkpt lat="47.64433" lon="6.21591">
        <ele>354.8</ele>
        <time>2022-03-04T14:24:02Z</time>
      </trkpt>
      <trkpt lat="47.64429" lon="6.21598">
        <ele>355.1</ele>
        <time>2022-03-04T14:24:05Z</time>
      </trkpt>
      <trkpt lat="47.64429" lon="6.21605">
        <ele>355.1</ele>
        <time>2022-03-04T14:24:09Z</time>
      </trkpt>
      <trkpt lat="47.64434" lon="6.21606">
        <ele>354.8</ele>
        <time>2022-03-04T14:24:12Z</time>
      </trkpt>
      <trkpt lat="47.64438" lon="6.216">
        <ele>354.5</ele>
        <time>2022-03-04T14:24:15Z</time>
      </trkpt>
      <trkpt lat="47.6444" lon="6.21592">
        <ele>354.3</ele>
        <time>2022-03-04T14:24:18Z</time>
      </trkpt>
      <trkpt lat="47.64445" lon="6.21582">
        <ele>354</ele>
        <time>2022-03-04T14:24:20Z</time>
      </trkpt>
      <trkpt lat="47.64449" lon="6.21573">
        <ele>353.7</ele>
        <time>2022-03-04T14:24:22Z</time>
      </trkpt>
      <trkpt lat="47.64453" lon="6.21564">
        <ele>353.4</ele>
        <time>2022-03-04T14:24:24Z</time>
      </trkpt>
      <trkpt lat="47.64457" lon="6.21558">
        <ele>353.1</ele>
        <time>2022-03-04T14:24:26Z</time>
      </trkpt>
      <trkpt lat="47.6446" lon="6.2155">
        <ele>352.9</ele>
        <time>2022-03-04T14:24:27Z</time>
      </trkpt>
      <trkpt lat="47.64463" lon="6.21543">
        <ele>352.6</ele>
        <time>2022-03-04T14:24:29Z</time>
      </trkpt>
      <trkpt lat="47.64467" lon="6.21536">
        <ele>352.4</ele>
        <time>2022-03-04T14:24:30Z</time>
      </trkpt>
      <trkpt lat="47.6447" lon="6.21527">
        <ele>352.1</ele>
        <time>2022-03-04T14:24:32Z</time>
      </trkpt>
      <trkpt lat="47.64472" lon="6.21519">
        <ele>352</ele>
        <time>2022-03-04T14:24:34Z</time>
      </trkpt>
      <trkpt lat="47.64472" lon="6.2151">
        <ele>352</ele>
        <time>2022-03-04T14:24:36Z</time>
      </trkpt>
      <trkpt lat="47.64473" lon="6.21501">
        <ele>352</ele>
        <time>2022-03-04T14:24:38Z</time>
      </trkpt>
      <trkpt lat="47.64473" lon="6.21491">
        <ele>351.6</ele>
        <time>2022-03-04T14:24:40Z</time>
      </trkpt>
      <trkpt lat="47.64476" lon="6.21484">
        <ele>351.1</ele>
        <time>2022-03-04T14:24:42Z</time>
      </trkpt>
      <trkpt lat="47.64477" lon="6.21476">
        <ele>350.8</ele>
        <time>2022-03-04T14:24:44Z</time>
      </trkpt>
      <trkpt lat="47.64479" lon="6.21469">
        <ele>350.5</ele>
        <time>2022-03-04T14:24:46Z</time>
      </trkpt>
      <trkpt lat="47.64482" lon="6.21463">
        <ele>350.2</ele>
        <time>2022-03-04T14:24:48Z</time>
      </trkpt>
      <trkpt lat="47.64486" lon="6.21459">
        <ele>349.7</ele>
        <time>2022-03-04T14:24:50Z</time>
      </trkpt>
      <trkpt lat="47.64491" lon="6.21456">
        <ele>349.2</ele>
        <time>2022-03-04T14:24:52Z</time>
      </trkpt>
      <trkpt lat="47.64496" lon="6.21455">
        <ele>348.8</ele>
        <time>2022-03-04T14:24:53Z</time>
      </trkpt>
      <trkpt lat="47.64501" lon="6.21452">
        <ele>348.2</ele>
        <time>2022-03-04T14:24:55Z</time>
      </trkpt>
      <trkpt lat="47.64506" lon="6.21448">
        <ele>347.5</ele>
        <time>2022-03-04T14:24:57Z</time>
      </trkpt>
      <trkpt lat="47.64512" lon="6.21445">
        <ele>346.7</ele>
        <time>2022-03-04T14:24:58Z</time>
      </trkpt>
      <trkpt lat="47.64516" lon="6.21442">
        <ele>346.3</ele>
        <time>2022-03-04T14:24:59Z</time>
      </trkpt>
      <trkpt lat="47.64528" lon="6.21436">
        <ele>345.3</ele>
        <time>2022-03-04T14:25:01Z</time>
      </trkpt>
      <trkpt lat="47.64538" lon="6.21432">
        <ele>343.9</ele>
        <time>2022-03-04T14:25:02Z</time>
      </trkpt>
      <trkpt lat="47.64547" lon="6.21429">
        <ele>342.7</ele>
        <time>2022-03-04T14:25:04Z</time>
      </trkpt>
      <trkpt lat="47.64552" lon="6.21426">
        <ele>342.2</ele>
        <time>2022-03-04T14:25:05Z</time>
      </trkpt>
      <trkpt lat="47.64556" lon="6.2142">
        <ele>341.8</ele>
        <time>2022-03-04T14:25:06Z</time>
      </trkpt>
      <trkpt lat="47.6456" lon="6.21413">
        <ele>341.6</ele>
        <time>2022-03-04T14:25:07Z</time>
      </trkpt>
      <trkpt lat="47.64564" lon="6.21405">
        <ele>341.4</ele>
        <time>2022-03-04T14:25:08Z</time>
      </trkpt>
      <trkpt lat="47.6457" lon="6.21398">
        <ele>341</ele>
        <time>2022-03-04T14:25:09Z</time>
      </trkpt>
      <trkpt lat="47.64576" lon="6.21392">
        <ele>340.6</ele>
        <time>2022-03-04T14:25:10Z</time>
      </trkpt>
      <trkpt lat="47.64583" lon="6.21386">
        <ele>340</ele>
        <time>2022-03-04T14:25:11Z</time>
      </trkpt>
      <trkpt lat="47.64592" lon="6.21378">
        <ele>339.2</ele>
        <time>2022-03-04T14:25:12Z</time>
      </trkpt>
      <trkpt lat="47.64599" lon="6.21372">
        <ele>338.6</ele>
        <time>2022-03-04T14:25:13Z</time>
      </trkpt>
      <trkpt lat="47.64605" lon="6.21365">
        <ele>338.3</ele>
        <time>2022-03-04T14:25:14Z</time>
      </trkpt>
      <trkpt lat="47.6461" lon="6.21359">
        <ele>338</ele>
        <time>2022-03-04T14:25:15Z</time>
      </trkpt>
      <trkpt lat="47.64614" lon="6.21352">
        <ele>337.7</ele>
        <time>2022-03-04T14:25:16Z</time>
      </trkpt>
      <trkpt lat="47.64618" lon="6.21345">
        <ele>337.4</ele>
        <time>2022-03-04T14:25:17Z</time>
      </trkpt>
      <trkpt lat="47.64621" lon="6.21338">
        <ele>337</ele>
        <time>2022-03-04T14:25:18Z</time>
      </trkpt>
      <trkpt lat="47.64624" lon="6.21331">
        <ele>336.5</ele>
        <time>2022-03-04T14:25:19Z</time>
      </trkpt>
      <trkpt lat="47.64627" lon="6.21324">
        <ele>335.9</ele>
        <time>2022-03-04T14:25:20Z</time>
      </trkpt>
      <trkpt lat="47.6463" lon="6.21318">
        <ele>335.4</ele>
        <time>2022-03-04T14:25:21Z</time>
      </trkpt>
      <trkpt lat="47.64632" lon="6.21311">
        <ele>335</ele>
        <time>2022-03-04T14:25:22Z</time>
      </trkpt>
      <trkpt lat="47.64634" lon="6.21305">
        <ele>334.5</ele>
        <time>2022-03-04T14:25:23Z</time>
      </trkpt>
      <trkpt lat="47.64638" lon="6.21296">
        <ele>333.8</ele>
        <time>2022-03-04T14:25:25Z</time>
      </trkpt>
      <trkpt lat="47.64641" lon="6.21285">
        <ele>333</ele>
        <time>2022-03-04T14:25:27Z</time>
      </trkpt>
      <trkpt lat="47.64645" lon="6.21273">
        <ele>332.2</ele>
        <time>2022-03-04T14:25:29Z</time>
      </trkpt>
      <trkpt lat="47.64647" lon="6.21264">
        <ele>331.6</ele>
        <time>2022-03-04T14:25:31Z</time>
      </trkpt>
      <trkpt lat="47.64653" lon="6.21253">
        <ele>330.6</ele>
        <time>2022-03-04T14:25:32Z</time>
      </trkpt>
      <trkpt lat="47.64658" lon="6.21247">
        <ele>329.9</ele>
        <time>2022-03-04T14:25:33Z</time>
      </trkpt>
      <trkpt lat="47.64663" lon="6.2124">
        <ele>329.4</ele>
        <time>2022-03-04T14:25:34Z</time>
      </trkpt>
      <trkpt lat="47.64668" lon="6.21234">
        <ele>328.9</ele>
        <time>2022-03-04T14:25:35Z</time>
      </trkpt>
      <trkpt lat="47.64673" lon="6.21228">
        <ele>328.3</ele>
        <time>2022-03-04T14:25:36Z</time>
      </trkpt>
      <trkpt lat="47.64677" lon="6.21223">
        <ele>327.9</ele>
        <time>2022-03-04T14:25:37Z</time>
      </trkpt>
      <trkpt lat="47.64684" lon="6.21218">
        <ele>327.1</ele>
        <time>2022-03-04T14:25:39Z</time>
      </trkpt>
      <trkpt lat="47.64688" lon="6.21214">
        <ele>326.6</ele>
        <time>2022-03-04T14:25:40Z</time>
      </trkpt>
      <trkpt lat="47.64691" lon="6.21207">
        <ele>326.3</ele>
        <time>2022-03-04T14:25:41Z</time>
      </trkpt>
      <trkpt lat="47.64693" lon="6.212">
        <ele>326.2</ele>
        <time>2022-03-04T14:25:42Z</time>
      </trkpt>
      <trkpt lat="47.64698" lon="6.21179">
        <ele>325.3</ele>
        <time>2022-03-04T14:25:43Z</time>
      </trkpt>
      <trkpt lat="47.64702" lon="6.21171">
        <ele>324.8</ele>
        <time>2022-03-04T14:25:44Z</time>
      </trkpt>
      <trkpt lat="47.64706" lon="6.21162">
        <ele>324.5</ele>
        <time>2022-03-04T14:25:45Z</time>
      </trkpt>
      <trkpt lat="47.64712" lon="6.21153">
        <ele>324.1</ele>
        <time>2022-03-04T14:25:46Z</time>
      </trkpt>
      <trkpt lat="47.64718" lon="6.21144">
        <ele>323.5</ele>
        <time>2022-03-04T14:25:47Z</time>
      </trkpt>
      <trkpt lat="47.64724" lon="6.21135">
        <ele>322.8</ele>
        <time>2022-03-04T14:25:48Z</time>
      </trkpt>
      <trkpt lat="47.6473" lon="6.21125">
        <ele>322.2</ele>
        <time>2022-03-04T14:25:49Z</time>
      </trkpt>
      <trkpt lat="47.64736" lon="6.21117">
        <ele>321.7</ele>
        <time>2022-03-04T14:25:50Z</time>
      </trkpt>
      <trkpt lat="47.64741" lon="6.21107">
        <ele>321.2</ele>
        <time>2022-03-04T14:25:51Z</time>
      </trkpt>
      <trkpt lat="47.64746" lon="6.21098">
        <ele>320.7</ele>
        <time>2022-03-04T14:25:52Z</time>
      </trkpt>
      <trkpt lat="47.64751" lon="6.21089">
        <ele>320.2</ele>
        <time>2022-03-04T14:25:53Z</time>
      </trkpt>
      <trkpt lat="47.64755" lon="6.2108">
        <ele>320</ele>
        <time>2022-03-04T14:25:54Z</time>
      </trkpt>
      <trkpt lat="47.64759" lon="6.21072">
        <ele>319.9</ele>
        <time>2022-03-04T14:25:55Z</time>
      </trkpt>
      <trkpt lat="47.64762" lon="6.21064">
        <ele>319.7</ele>
        <time>2022-03-04T14:25:56Z</time>
      </trkpt>
      <trkpt lat="47.64765" lon="6.21057">
        <ele>319.5</ele>
        <time>2022-03-04T14:25:57Z</time>
      </trkpt>
      <trkpt lat="47.64768" lon="6.21051">
        <ele>319.3</ele>
        <time>2022-03-04T14:25:58Z</time>
      </trkpt>
      <trkpt lat="47.64772" lon="6.21053">
        <ele>319.2</ele>
        <time>2022-03-04T14:26:05Z</time>
      </trkpt>
      <trkpt lat="47.64775" lon="6.21059">
        <ele>319.2</ele>
        <time>2022-03-04T14:26:08Z</time>
      </trkpt>
      <trkpt lat="47.64776" lon="6.21066">
        <ele>319.4</ele>
        <time>2022-03-04T14:26:11Z</time>
      </trkpt>
      <trkpt lat="47.64778" lon="6.21076">
        <ele>319.7</ele>
        <time>2022-03-04T14:26:14Z</time>
      </trkpt>
      <trkpt lat="47.6478" lon="6.21084">
        <ele>320</ele>
        <time>2022-03-04T14:26:17Z</time>
      </trkpt>
      <trkpt lat="47.64782" lon="6.21092">
        <ele>320</ele>
        <time>2022-03-04T14:26:19Z</time>
      </trkpt>
      <trkpt lat="47.64785" lon="6.21099">
        <ele>320</ele>
        <time>2022-03-04T14:26:22Z</time>
      </trkpt>
      <trkpt lat="47.64788" lon="6.21105">
        <ele>320</ele>
        <time>2022-03-04T14:26:24Z</time>
      </trkpt>
      <trkpt lat="47.64792" lon="6.21107">
        <ele>320</ele>
        <time>2022-03-04T14:27:10Z</time>
      </trkpt>
      <trkpt lat="47.64796" lon="6.21111">
        <ele>320</ele>
        <time>2022-03-04T14:27:17Z</time>
      </trkpt>
      <trkpt lat="47.648" lon="6.2112">
        <ele>320.1</ele>
        <time>2022-03-04T14:27:20Z</time>
      </trkpt>
      <trkpt lat="47.64803" lon="6.21128">
        <ele>320.1</ele>
        <time>2022-03-04T14:27:24Z</time>
      </trkpt>
      <trkpt lat="47.64809" lon="6.21143">
        <ele>320.1</ele>
        <time>2022-03-04T14:27:26Z</time>
      </trkpt>
      <trkpt lat="47.64811" lon="6.21149">
        <ele>320.2</ele>
        <time>2022-03-04T14:27:28Z</time>
      </trkpt>
      <trkpt lat="47.64814" lon="6.21155">
        <ele>320.3</ele>
        <time>2022-03-04T14:27:30Z</time>
      </trkpt>
      <trkpt lat="47.64817" lon="6.21161">
        <ele>320.4</ele>
        <time>2022-03-04T14:27:32Z</time>
      </trkpt>
      <trkpt lat="47.6482" lon="6.21168">
        <ele>320.5</ele>
        <time>2022-03-04T14:27:34Z</time>
      </trkpt>
      <trkpt lat="47.64824" lon="6.21175">
        <ele>320.7</ele>
        <time>2022-03-04T14:27:36Z</time>
      </trkpt>
      <trkpt lat="47.64828" lon="6.21181">
        <ele>320.8</ele>
        <time>2022-03-04T14:27:38Z</time>
      </trkpt>
      <trkpt lat="47.64832" lon="6.21187">
        <ele>321</ele>
        <time>2022-03-04T14:27:40Z</time>
      </trkpt>
      <trkpt lat="47.64837" lon="6.21194">
        <ele>321</ele>
        <time>2022-03-04T14:27:42Z</time>
      </trkpt>
      <trkpt lat="47.64841" lon="6.21201">
        <ele>320.8</ele>
        <time>2022-03-04T14:27:45Z</time>
      </trkpt>
      <trkpt lat="47.64843" lon="6.21208">
        <ele>320.7</ele>
        <time>2022-03-04T14:27:47Z</time>
      </trkpt>
      <trkpt lat="47.64846" lon="6.21214">
        <ele>320.6</ele>
        <time>2022-03-04T14:27:49Z</time>
      </trkpt>
      <trkpt lat="47.64848" lon="6.2122">
        <ele>320.6</ele>
        <time>2022-03-04T14:27:51Z</time>
      </trkpt>
      <trkpt lat="47.6485" lon="6.21229">
        <ele>320.4</ele>
        <time>2022-03-04T14:27:53Z</time>
      </trkpt>
      <trkpt lat="47.64851" lon="6.21238">
        <ele>320.3</ele>
        <time>2022-03-04T14:27:55Z</time>
      </trkpt>
      <trkpt lat="47.64853" lon="6.21246">
        <ele>320.1</ele>
        <time>2022-03-04T14:27:57Z</time>
      </trkpt>
      <trkpt lat="47.64855" lon="6.21255">
        <ele>320</ele>
        <time>2022-03-04T14:27:59Z</time>
      </trkpt>
      <trkpt lat="47.64855" lon="6.21263">
        <ele>320</ele>
        <time>2022-03-04T14:28:01Z</time>
      </trkpt>
      <trkpt lat="47.64856" lon="6.21276">
        <ele>320</ele>
        <time>2022-03-04T14:28:02Z</time>
      </trkpt>
      <trkpt lat="47.64856" lon="6.21285">
        <ele>319.8</ele>
        <time>2022-03-04T14:28:05Z</time>
      </trkpt>
      <trkpt lat="47.64857" lon="6.21293">
        <ele>319.5</ele>
        <time>2022-03-04T14:28:06Z</time>
      </trkpt>
      <trkpt lat="47.64857" lon="6.21302">
        <ele>319.3</ele>
        <time>2022-03-04T14:28:06Z</time>
      </trkpt>
      <trkpt lat="47.64858" lon="6.21312">
        <ele>319.2</ele>
        <time>2022-03-04T14:28:09Z</time>
      </trkpt>
      <trkpt lat="47.64858" lon="6.2132">
        <ele>319.2</ele>
        <time>2022-03-04T14:28:09Z</time>
      </trkpt>
      <trkpt lat="47.64859" lon="6.2133">
        <ele>319.1</ele>
        <time>2022-03-04T14:28:12Z</time>
      </trkpt>
      <trkpt lat="47.6486" lon="6.21337">
        <ele>319.1</ele>
        <time>2022-03-04T14:28:13Z</time>
      </trkpt>
      <trkpt lat="47.64861" lon="6.21344">
        <ele>319</ele>
        <time>2022-03-04T14:28:13Z</time>
      </trkpt>
      <trkpt lat="47.64863" lon="6.21352">
        <ele>318.9</ele>
        <time>2022-03-04T14:28:16Z</time>
      </trkpt>
      <trkpt lat="47.64864" lon="6.21359">
        <ele>318.8</ele>
        <time>2022-03-04T14:28:17Z</time>
      </trkpt>
      <trkpt lat="47.64865" lon="6.21366">
        <ele>318.9</ele>
        <time>2022-03-04T14:28:17Z</time>
      </trkpt>
      <trkpt lat="47.64867" lon="6.21374">
        <ele>319</ele>
        <time>2022-03-04T14:28:20Z</time>
      </trkpt>
      <trkpt lat="47.6487" lon="6.21384">
        <ele>319.2</ele>
        <time>2022-03-04T14:28:22Z</time>
      </trkpt>
      <trkpt lat="47.64873" lon="6.21393">
        <ele>319.4</ele>
        <time>2022-03-04T14:28:23Z</time>
      </trkpt>
      <trkpt lat="47.64876" lon="6.21401">
        <ele>319.8</ele>
        <time>2022-03-04T14:28:26Z</time>
      </trkpt>
      <trkpt lat="47.64878" lon="6.21407">
        <ele>320.1</ele>
        <time>2022-03-04T14:28:27Z</time>
      </trkpt>
      <trkpt lat="47.64881" lon="6.21413">
        <ele>320.3</ele>
        <time>2022-03-04T14:28:28Z</time>
      </trkpt>
      <trkpt lat="47.64884" lon="6.21421">
        <ele>320.6</ele>
        <time>2022-03-04T14:28:32Z</time>
      </trkpt>
      <trkpt lat="47.64886" lon="6.21427">
        <ele>320.9</ele>
        <time>2022-03-04T14:28:34Z</time>
      </trkpt>
      <trkpt lat="47.64889" lon="6.21434">
        <ele>321.2</ele>
        <time>2022-03-04T14:28:36Z</time>
      </trkpt>
      <trkpt lat="47.64891" lon="6.2144">
        <ele>321.5</ele>
        <time>2022-03-04T14:28:39Z</time>
      </trkpt>
      <trkpt lat="47.64893" lon="6.21447">
        <ele>321.8</ele>
        <time>2022-03-04T14:28:41Z</time>
      </trkpt>
      <trkpt lat="47.64895" lon="6.21454">
        <ele>322.3</ele>
        <time>2022-03-04T14:28:42Z</time>
      </trkpt>
      <trkpt lat="47.64897" lon="6.21463">
        <ele>322.8</ele>
        <time>2022-03-04T14:28:45Z</time>
      </trkpt>
      <trkpt lat="47.64897" lon="6.2147">
        <ele>323.3</ele>
        <time>2022-03-04T14:28:49Z</time>
      </trkpt>
      <trkpt lat="47.64899" lon="6.21479">
        <ele>323.6</ele>
        <time>2022-03-04T14:28:52Z</time>
      </trkpt>
      <trkpt lat="47.64901" lon="6.21485">
        <ele>323.8</ele>
        <time>2022-03-04T14:28:56Z</time>
      </trkpt>
      <trkpt lat="47.64902" lon="6.21492">
        <ele>324.1</ele>
        <time>2022-03-04T14:29:00Z</time>
      </trkpt>
      <trkpt lat="47.64904" lon="6.21499">
        <ele>324.4</ele>
        <time>2022-03-04T14:29:04Z</time>
      </trkpt>
      <trkpt lat="47.64905" lon="6.21508">
        <ele>325</ele>
        <time>2022-03-04T14:29:07Z</time>
      </trkpt>
      <trkpt lat="47.64908" lon="6.21515">
        <ele>325.4</ele>
        <time>2022-03-04T14:29:12Z</time>
      </trkpt>
      <trkpt lat="47.64911" lon="6.21522">
        <ele>325.8</ele>
        <time>2022-03-04T14:29:14Z</time>
      </trkpt>
      <trkpt lat="47.64913" lon="6.21528">
        <ele>326.2</ele>
        <time>2022-03-04T14:29:18Z</time>
      </trkpt>
      <trkpt lat="47.64915" lon="6.21534">
        <ele>326.3</ele>
        <time>2022-03-04T14:29:19Z</time>
      </trkpt>
      <trkpt lat="47.64917" lon="6.21543">
        <ele>326.5</ele>
        <time>2022-03-04T14:29:22Z</time>
      </trkpt>
      <trkpt lat="47.64917" lon="6.2155">
        <ele>326.8</ele>
        <time>2022-03-04T14:29:26Z</time>
      </trkpt>
      <trkpt lat="47.6492" lon="6.21558">
        <ele>327</ele>
        <time>2022-03-04T14:29:30Z</time>
      </trkpt>
      <trkpt lat="47.64923" lon="6.21566">
        <ele>327.2</ele>
        <time>2022-03-04T14:29:33Z</time>
      </trkpt>
      <trkpt lat="47.64925" lon="6.21573">
        <ele>327.5</ele>
        <time>2022-03-04T14:29:36Z</time>
      </trkpt>
      <trkpt lat="47.64928" lon="6.2158">
        <ele>327.8</ele>
        <time>2022-03-04T14:29:39Z</time>
      </trkpt>
      <trkpt lat="47.6493" lon="6.21587">
        <ele>328.1</ele>
        <time>2022-03-04T14:29:40Z</time>
      </trkpt>
      <trkpt lat="47.64932" lon="6.21593">
        <ele>328.4</ele>
        <time>2022-03-04T14:29:43Z</time>
      </trkpt>
      <trkpt lat="47.64934" lon="6.216">
        <ele>328.6</ele>
        <time>2022-03-04T14:29:48Z</time>
      </trkpt>
      <trkpt lat="47.64935" lon="6.21608">
        <ele>328.9</ele>
        <time>2022-03-04T14:29:50Z</time>
      </trkpt>
      <trkpt lat="47.64936" lon="6.21614">
        <ele>329.1</ele>
        <time>2022-03-04T14:29:53Z</time>
      </trkpt>
      <trkpt lat="47.64937" lon="6.21621">
        <ele>329.4</ele>
        <time>2022-03-04T14:29:57Z</time>
      </trkpt>
      <trkpt lat="47.64939" lon="6.21628">
        <ele>329.6</ele>
        <time>2022-03-04T14:30:00Z</time>
      </trkpt>
      <trkpt lat="47.6494" lon="6.21635">
        <ele>329.8</ele>
        <time>2022-03-04T14:30:01Z</time>
      </trkpt>
      <trkpt lat="47.64942" lon="6.21642">
        <ele>330</ele>
        <time>2022-03-04T14:30:05Z</time>
      </trkpt>
      <trkpt lat="47.64944" lon="6.2165">
        <ele>330</ele>
        <time>2022-03-04T14:30:08Z</time>
      </trkpt>
      <trkpt lat="47.64946" lon="6.21658">
        <ele>330</ele>
        <time>2022-03-04T14:30:11Z</time>
      </trkpt>
      <trkpt lat="47.64947" lon="6.21664">
        <ele>330</ele>
        <time>2022-03-04T14:30:13Z</time>
      </trkpt>
      <trkpt lat="47.64949" lon="6.21671">
        <ele>330.2</ele>
        <time>2022-03-04T14:30:16Z</time>
      </trkpt>
      <trkpt lat="47.64949" lon="6.21678">
        <ele>330.4</ele>
        <time>2022-03-04T14:30:17Z</time>
      </trkpt>
      <trkpt lat="47.64949" lon="6.21685">
        <ele>330.7</ele>
        <time>2022-03-04T14:30:21Z</time>
      </trkpt>
      <trkpt lat="47.64949" lon="6.21692">
        <ele>330.9</ele>
        <time>2022-03-04T14:30:24Z</time>
      </trkpt>
      <trkpt lat="47.6495" lon="6.217">
        <ele>331</ele>
        <time>2022-03-04T14:30:27Z</time>
      </trkpt>
      <trkpt lat="47.64951" lon="6.21707">
        <ele>331</ele>
        <time>2022-03-04T14:30:28Z</time>
      </trkpt>
      <trkpt lat="47.64953" lon="6.21714">
        <ele>331</ele>
        <time>2022-03-04T14:30:30Z</time>
      </trkpt>
      <trkpt lat="47.64955" lon="6.21721">
        <ele>331</ele>
        <time>2022-03-04T14:30:34Z</time>
      </trkpt>
      <trkpt lat="47.64957" lon="6.21729">
        <ele>330.8</ele>
        <time>2022-03-04T14:30:36Z</time>
      </trkpt>
      <trkpt lat="47.64958" lon="6.21737">
        <ele>330.5</ele>
        <time>2022-03-04T14:30:38Z</time>
      </trkpt>
      <trkpt lat="47.64959" lon="6.21744">
        <ele>330.2</ele>
        <time>2022-03-04T14:30:38Z</time>
      </trkpt>
      <trkpt lat="47.64961" lon="6.21754">
        <ele>329.9</ele>
        <time>2022-03-04T14:30:41Z</time>
      </trkpt>
      <trkpt lat="47.64962" lon="6.21763">
        <ele>329.5</ele>
        <time>2022-03-04T14:30:43Z</time>
      </trkpt>
      <trkpt lat="47.64963" lon="6.21771">
        <ele>329.2</ele>
        <time>2022-03-04T14:30:44Z</time>
      </trkpt>
      <trkpt lat="47.64963" lon="6.2178">
        <ele>328.9</ele>
        <time>2022-03-04T14:30:44Z</time>
      </trkpt>
      <trkpt lat="47.64964" lon="6.21789">
        <ele>328.5</ele>
        <time>2022-03-04T14:30:46Z</time>
      </trkpt>
      <trkpt lat="47.64965" lon="6.218">
        <ele>328</ele>
        <time>2022-03-04T14:30:48Z</time>
      </trkpt>
      <trkpt lat="47.64968" lon="6.21816">
        <ele>327.5</ele>
        <time>2022-03-04T14:30:48Z</time>
      </trkpt>
      <trkpt lat="47.6497" lon="6.21824">
        <ele>327.3</ele>
        <time>2022-03-04T14:30:49Z</time>
      </trkpt>
      <trkpt lat="47.64972" lon="6.21831">
        <ele>327.1</ele>
        <time>2022-03-04T14:30:50Z</time>
      </trkpt>
      <trkpt lat="47.64975" lon="6.21836">
        <ele>326.8</ele>
        <time>2022-03-04T14:30:51Z</time>
      </trkpt>
      <trkpt lat="47.64978" lon="6.21846">
        <ele>326</ele>
        <time>2022-03-04T14:30:54Z</time>
      </trkpt>
      <trkpt lat="47.64983" lon="6.21853">
        <ele>325.5</ele>
        <time>2022-03-04T14:30:54Z</time>
      </trkpt>
      <trkpt lat="47.64986" lon="6.21858">
        <ele>325.3</ele>
        <time>2022-03-04T14:30:55Z</time>
      </trkpt>
      <trkpt lat="47.6499" lon="6.21864">
        <ele>325.1</ele>
        <time>2022-03-04T14:30:56Z</time>
      </trkpt>
      <trkpt lat="47.64993" lon="6.2187">
        <ele>325.1</ele>
        <time>2022-03-04T14:30:57Z</time>
      </trkpt>
      <trkpt lat="47.64997" lon="6.21876">
        <ele>325.2</ele>
        <time>2022-03-04T14:30:58Z</time>
      </trkpt>
      <trkpt lat="47.65" lon="6.21882">
        <ele>325.3</ele>
        <time>2022-03-04T14:30:59Z</time>
      </trkpt>
      <trkpt lat="47.65004" lon="6.21888">
        <ele>325.5</ele>
        <time>2022-03-04T14:31:00Z</time>
      </trkpt>
      <trkpt lat="47.65007" lon="6.21894">
        <ele>325.3</ele>
        <time>2022-03-04T14:31:01Z</time>
      </trkpt>
      <trkpt lat="47.6501" lon="6.219">
        <ele>325.1</ele>
        <time>2022-03-04T14:31:02Z</time>
      </trkpt>
      <trkpt lat="47.65013" lon="6.21905">
        <ele>324.9</ele>
        <time>2022-03-04T14:31:03Z</time>
      </trkpt>
      <trkpt lat="47.65017" lon="6.21911">
        <ele>324.9</ele>
        <time>2022-03-04T14:31:04Z</time>
      </trkpt>
      <trkpt lat="47.6502" lon="6.21916">
        <ele>324.9</ele>
        <time>2022-03-04T14:31:05Z</time>
      </trkpt>
      <trkpt lat="47.65023" lon="6.21921">
        <ele>324.9</ele>
        <time>2022-03-04T14:31:06Z</time>
      </trkpt>
      <trkpt lat="47.65027" lon="6.2193">
        <ele>324.9</ele>
        <time>2022-03-04T14:31:08Z</time>
      </trkpt>
      <trkpt lat="47.65032" lon="6.21939">
        <ele>325</ele>
        <time>2022-03-04T14:31:10Z</time>
      </trkpt>
      <trkpt lat="47.65036" lon="6.21946">
        <ele>325.1</ele>
        <time>2022-03-04T14:31:12Z</time>
      </trkpt>
      <trkpt lat="47.65043" lon="6.2194">
        <ele>326.6</ele>
        <time>2022-03-04T14:31:15Z</time>
      </trkpt>
      <trkpt lat="47.65045" lon="6.21947">
        <ele>326.3</ele>
        <time>2022-03-04T14:31:16Z</time>
      </trkpt>
      <trkpt lat="47.65048" lon="6.21955">
        <ele>326.4</ele>
        <time>2022-03-04T14:31:17Z</time>
      </trkpt>
      <trkpt lat="47.6505" lon="6.21961">
        <ele>326.5</ele>
        <time>2022-03-04T14:31:17Z</time>
      </trkpt>
      <trkpt lat="47.65053" lon="6.21968">
        <ele>326.7</ele>
        <time>2022-03-04T14:31:20Z</time>
      </trkpt>
      <trkpt lat="47.65056" lon="6.21975">
        <ele>326.8</ele>
        <time>2022-03-04T14:31:21Z</time>
      </trkpt>
      <trkpt lat="47.65059" lon="6.21982">
        <ele>326.9</ele>
        <time>2022-03-04T14:31:23Z</time>
      </trkpt>
      <trkpt lat="47.65063" lon="6.21988">
        <ele>326.9</ele>
        <time>2022-03-04T14:31:25Z</time>
      </trkpt>
      <trkpt lat="47.65067" lon="6.21993">
        <ele>327.1</ele>
        <time>2022-03-04T14:31:26Z</time>
      </trkpt>
      <trkpt lat="47.6507" lon="6.22">
        <ele>327.1</ele>
        <time>2022-03-04T14:31:28Z</time>
      </trkpt>
      <trkpt lat="47.65073" lon="6.22005">
        <ele>327.4</ele>
        <time>2022-03-04T14:31:28Z</time>
      </trkpt>
      <trkpt lat="47.65077" lon="6.22011">
        <ele>327.6</ele>
        <time>2022-03-04T14:31:31Z</time>
      </trkpt>
      <trkpt lat="47.65082" lon="6.22022">
        <ele>328.1</ele>
        <time>2022-03-04T14:31:33Z</time>
      </trkpt>
      <trkpt lat="47.65086" lon="6.22028">
        <ele>328.2</ele>
        <time>2022-03-04T14:31:33Z</time>
      </trkpt>
      <trkpt lat="47.65091" lon="6.22038">
        <ele>327.8</ele>
        <time>2022-03-04T14:31:36Z</time>
      </trkpt>
      <trkpt lat="47.65094" lon="6.22044">
        <ele>327.6</ele>
        <time>2022-03-04T14:31:36Z</time>
      </trkpt>
      <trkpt lat="47.65098" lon="6.22051">
        <ele>327.4</ele>
        <time>2022-03-04T14:31:39Z</time>
      </trkpt>
      <trkpt lat="47.65102" lon="6.22056">
        <ele>327.3</ele>
        <time>2022-03-04T14:31:39Z</time>
      </trkpt>
      <trkpt lat="47.65106" lon="6.22064">
        <ele>327.3</ele>
        <time>2022-03-04T14:31:42Z</time>
      </trkpt>
      <trkpt lat="47.6511" lon="6.22071">
        <ele>327.3</ele>
        <time>2022-03-04T14:31:44Z</time>
      </trkpt>
      <trkpt lat="47.65114" lon="6.22079">
        <ele>327.5</ele>
        <time>2022-03-04T14:31:46Z</time>
      </trkpt>
      <trkpt lat="47.65118" lon="6.22086">
        <ele>327.7</ele>
        <time>2022-03-04T14:31:48Z</time>
      </trkpt>
      <trkpt lat="47.65122" lon="6.22094">
        <ele>328</ele>
        <time>2022-03-04T14:31:49Z</time>
      </trkpt>
      <trkpt lat="47.65125" lon="6.22102">
        <ele>328.2</ele>
        <time>2022-03-04T14:31:52Z</time>
      </trkpt>
      <trkpt lat="47.65129" lon="6.22111">
        <ele>328.3</ele>
        <time>2022-03-04T14:31:53Z</time>
      </trkpt>
      <trkpt lat="47.65133" lon="6.22118">
        <ele>328.5</ele>
        <time>2022-03-04T14:31:56Z</time>
      </trkpt>
      <trkpt lat="47.65136" lon="6.22125">
        <ele>328.8</ele>
        <time>2022-03-04T14:31:58Z</time>
      </trkpt>
      <trkpt lat="47.65139" lon="6.2213">
        <ele>329</ele>
        <time>2022-03-04T14:31:58Z</time>
      </trkpt>
      <trkpt lat="47.65142" lon="6.22136">
        <ele>329.1</ele>
        <time>2022-03-04T14:32:00Z</time>
      </trkpt>
      <trkpt lat="47.65147" lon="6.22143">
        <ele>329.2</ele>
        <time>2022-03-04T14:32:04Z</time>
      </trkpt>
      <trkpt lat="47.6515" lon="6.22149">
        <ele>329.2</ele>
        <time>2022-03-04T14:32:05Z</time>
      </trkpt>
      <trkpt lat="47.65154" lon="6.22156">
        <ele>329.3</ele>
        <time>2022-03-04T14:32:09Z</time>
      </trkpt>
      <trkpt lat="47.65157" lon="6.22161">
        <ele>329.4</ele>
        <time>2022-03-04T14:32:12Z</time>
      </trkpt>
      <trkpt lat="47.65162" lon="6.22168">
        <ele>329.7</ele>
        <time>2022-03-04T14:32:15Z</time>
      </trkpt>
      <trkpt lat="47.65165" lon="6.22174">
        <ele>330.1</ele>
        <time>2022-03-04T14:32:16Z</time>
      </trkpt>
      <trkpt lat="47.65168" lon="6.2218">
        <ele>330.4</ele>
        <time>2022-03-04T14:32:20Z</time>
      </trkpt>
      <trkpt lat="47.65171" lon="6.22186">
        <ele>330.4</ele>
        <time>2022-03-04T14:32:23Z</time>
      </trkpt>
      <trkpt lat="47.65173" lon="6.22193">
        <ele>330.3</ele>
        <time>2022-03-04T14:32:26Z</time>
      </trkpt>
      <trkpt lat="47.65176" lon="6.22198">
        <ele>330.2</ele>
        <time>2022-03-04T14:32:28Z</time>
      </trkpt>
      <trkpt lat="47.65179" lon="6.22206">
        <ele>330.4</ele>
        <time>2022-03-04T14:32:30Z</time>
      </trkpt>
      <trkpt lat="47.65181" lon="6.22212">
        <ele>330.7</ele>
        <time>2022-03-04T14:32:33Z</time>
      </trkpt>
      <trkpt lat="47.65183" lon="6.22219">
        <ele>331.1</ele>
        <time>2022-03-04T14:32:36Z</time>
      </trkpt>
      <trkpt lat="47.65186" lon="6.22225">
        <ele>331.5</ele>
        <time>2022-03-04T14:32:37Z</time>
      </trkpt>
      <trkpt lat="47.65188" lon="6.22232">
        <ele>331.9</ele>
        <time>2022-03-04T14:32:41Z</time>
      </trkpt>
      <trkpt lat="47.6519" lon="6.22239">
        <ele>332.3</ele>
        <time>2022-03-04T14:32:44Z</time>
      </trkpt>
      <trkpt lat="47.65193" lon="6.22245">
        <ele>332.7</ele>
        <time>2022-03-04T14:32:46Z</time>
      </trkpt>
      <trkpt lat="47.65196" lon="6.22251">
        <ele>333</ele>
        <time>2022-03-04T14:32:49Z</time>
      </trkpt>
      <trkpt lat="47.65198" lon="6.22257">
        <ele>333.1</ele>
        <time>2022-03-04T14:32:50Z</time>
      </trkpt>
      <trkpt lat="47.65201" lon="6.22263">
        <ele>333.2</ele>
        <time>2022-03-04T14:32:54Z</time>
      </trkpt>
      <trkpt lat="47.65204" lon="6.22269">
        <ele>333.4</ele>
        <time>2022-03-04T14:32:56Z</time>
      </trkpt>
      <trkpt lat="47.65208" lon="6.22275">
        <ele>333.4</ele>
        <time>2022-03-04T14:32:58Z</time>
      </trkpt>
      <trkpt lat="47.65212" lon="6.2228">
        <ele>333.5</ele>
        <time>2022-03-04T14:33:02Z</time>
      </trkpt>
      <trkpt lat="47.65216" lon="6.22286">
        <ele>333.8</ele>
        <time>2022-03-04T14:33:05Z</time>
      </trkpt>
      <trkpt lat="47.6522" lon="6.22292">
        <ele>334.1</ele>
        <time>2022-03-04T14:33:08Z</time>
      </trkpt>
      <trkpt lat="47.65224" lon="6.22298">
        <ele>334.4</ele>
        <time>2022-03-04T14:33:11Z</time>
      </trkpt>
      <trkpt lat="47.65228" lon="6.22304">
        <ele>334.7</ele>
        <time>2022-03-04T14:33:14Z</time>
      </trkpt>
      <trkpt lat="47.65226" lon="6.22312">
        <ele>335.1</ele>
        <time>2022-03-04T14:33:16Z</time>
      </trkpt>
      <trkpt lat="47.65223" lon="6.22316">
        <ele>335.3</ele>
        <time>2022-03-04T14:33:20Z</time>
      </trkpt>
      <trkpt lat="47.65218" lon="6.22319">
        <ele>335.5</ele>
        <time>2022-03-04T14:33:23Z</time>
      </trkpt>
      <trkpt lat="47.65214" lon="6.22322">
        <ele>335.6</ele>
        <time>2022-03-04T14:33:26Z</time>
      </trkpt>
      <trkpt lat="47.65209" lon="6.22326">
        <ele>335.7</ele>
        <time>2022-03-04T14:33:29Z</time>
      </trkpt>
      <trkpt lat="47.65203" lon="6.22329">
        <ele>335.8</ele>
        <time>2022-03-04T14:33:32Z</time>
      </trkpt>
      <trkpt lat="47.65198" lon="6.2233">
        <ele>335.9</ele>
        <time>2022-03-04T14:33:36Z</time>
      </trkpt>
      <trkpt lat="47.65193" lon="6.22331">
        <ele>335.9</ele>
        <time>2022-03-04T14:33:39Z</time>
      </trkpt>
      <trkpt lat="47.65188" lon="6.22332">
        <ele>335.9</ele>
        <time>2022-03-04T14:33:42Z</time>
      </trkpt>
      <trkpt lat="47.65184" lon="6.22335">
        <ele>336.1</ele>
        <time>2022-03-04T14:33:44Z</time>
      </trkpt>
      <trkpt lat="47.65179" lon="6.22339">
        <ele>336.2</ele>
        <time>2022-03-04T14:33:48Z</time>
      </trkpt>
      <trkpt lat="47.65176" lon="6.22345">
        <ele>336.4</ele>
        <time>2022-03-04T14:33:50Z</time>
      </trkpt>
      <trkpt lat="47.65173" lon="6.22349">
        <ele>336.6</ele>
        <time>2022-03-04T14:33:55Z</time>
      </trkpt>
      <trkpt lat="47.65169" lon="6.22355">
        <ele>336.8</ele>
        <time>2022-03-04T14:34:00Z</time>
      </trkpt>
      <trkpt lat="47.65166" lon="6.22361">
        <ele>337</ele>
        <time>2022-03-04T14:34:04Z</time>
      </trkpt>
      <trkpt lat="47.65162" lon="6.22368">
        <ele>337.1</ele>
        <time>2022-03-04T14:34:08Z</time>
      </trkpt>
      <trkpt lat="47.65159" lon="6.22375">
        <ele>337.2</ele>
        <time>2022-03-04T14:34:12Z</time>
      </trkpt>
      <trkpt lat="47.65155" lon="6.2238">
        <ele>337.3</ele>
        <time>2022-03-04T14:34:15Z</time>
      </trkpt>
      <trkpt lat="47.65152" lon="6.22385">
        <ele>337.3</ele>
        <time>2022-03-04T14:34:17Z</time>
      </trkpt>
      <trkpt lat="47.65148" lon="6.2239">
        <ele>337.4</ele>
        <time>2022-03-04T14:34:18Z</time>
      </trkpt>
      <trkpt lat="47.65143" lon="6.22395">
        <ele>337.3</ele>
        <time>2022-03-04T14:34:21Z</time>
      </trkpt>
      <trkpt lat="47.65138" lon="6.22399">
        <ele>337.3</ele>
        <time>2022-03-04T14:34:23Z</time>
      </trkpt>
      <trkpt lat="47.65132" lon="6.22401">
        <ele>337</ele>
        <time>2022-03-04T14:34:25Z</time>
      </trkpt>
      <trkpt lat="47.65128" lon="6.22403">
        <ele>336.7</ele>
        <time>2022-03-04T14:34:27Z</time>
      </trkpt>
      <trkpt lat="47.65122" lon="6.22406">
        <ele>336.4</ele>
        <time>2022-03-04T14:34:29Z</time>
      </trkpt>
      <trkpt lat="47.65118" lon="6.22408">
        <ele>336.2</ele>
        <time>2022-03-04T14:34:31Z</time>
      </trkpt>
      <trkpt lat="47.65112" lon="6.22411">
        <ele>335.8</ele>
        <time>2022-03-04T14:34:33Z</time>
      </trkpt>
      <trkpt lat="47.65106" lon="6.22414">
        <ele>335.6</ele>
        <time>2022-03-04T14:34:35Z</time>
      </trkpt>
      <trkpt lat="47.65101" lon="6.22416">
        <ele>335.3</ele>
        <time>2022-03-04T14:34:37Z</time>
      </trkpt>
      <trkpt lat="47.65096" lon="6.22418">
        <ele>335</ele>
        <time>2022-03-04T14:34:39Z</time>
      </trkpt>
      <trkpt lat="47.65092" lon="6.22418">
        <ele>334.7</ele>
        <time>2022-03-04T14:35:02Z</time>
      </trkpt>
      <trkpt lat="47.65086" lon="6.22417">
        <ele>334.2</ele>
        <time>2022-03-04T14:35:04Z</time>
      </trkpt>
      <trkpt lat="47.65081" lon="6.22417">
        <ele>333.9</ele>
        <time>2022-03-04T14:35:16Z</time>
      </trkpt>
      <trkpt lat="47.65077" lon="6.2242">
        <ele>333.7</ele>
        <time>2022-03-04T14:35:23Z</time>
      </trkpt>
      <trkpt lat="47.65076" lon="6.22427">
        <ele>333.8</ele>
        <time>2022-03-04T14:35:39Z</time>
      </trkpt>
      <trkpt lat="47.65077" lon="6.22433">
        <ele>334.2</ele>
        <time>2022-03-04T14:36:26Z</time>
      </trkpt>
      <trkpt lat="47.65078" lon="6.2244">
        <ele>334.4</ele>
        <time>2022-03-04T14:36:36Z</time>
      </trkpt>
      <trkpt lat="47.65076" lon="6.22447">
        <ele>334.5</ele>
        <time>2022-03-04T14:36:39Z</time>
      </trkpt>
      <trkpt lat="47.65075" lon="6.22454">
        <ele>334.4</ele>
        <time>2022-03-04T14:36:42Z</time>
      </trkpt>
      <trkpt lat="47.65071" lon="6.2246">
        <ele>334.1</ele>
        <time>2022-03-04T14:36:45Z</time>
      </trkpt>
      <trkpt lat="47.65067" lon="6.22469">
        <ele>333.8</ele>
        <time>2022-03-04T14:36:48Z</time>
      </trkpt>
      <trkpt lat="47.65063" lon="6.22477">
        <ele>333.5</ele>
        <time>2022-03-04T14:36:50Z</time>
      </trkpt>
      <trkpt lat="47.65059" lon="6.22484">
        <ele>333.3</ele>
        <time>2022-03-04T14:36:52Z</time>
      </trkpt>
      <trkpt lat="47.65056" lon="6.22491">
        <ele>333</ele>
        <time>2022-03-04T14:36:54Z</time>
      </trkpt>
      <trkpt lat="47.65053" lon="6.22496">
        <ele>332.8</ele>
        <time>2022-03-04T14:36:55Z</time>
      </trkpt>
      <trkpt lat="47.6505" lon="6.22503">
        <ele>332.6</ele>
        <time>2022-03-04T14:36:57Z</time>
      </trkpt>
      <trkpt lat="47.65046" lon="6.2251">
        <ele>332.3</ele>
        <time>2022-03-04T14:36:59Z</time>
      </trkpt>
      <trkpt lat="47.65043" lon="6.22517">
        <ele>332.1</ele>
        <time>2022-03-04T14:37:01Z</time>
      </trkpt>
      <trkpt lat="47.65039" lon="6.22523">
        <ele>331.8</ele>
        <time>2022-03-04T14:37:02Z</time>
      </trkpt>
      <trkpt lat="47.65036" lon="6.22528">
        <ele>331.6</ele>
        <time>2022-03-04T14:37:03Z</time>
      </trkpt>
      <trkpt lat="47.65031" lon="6.22535">
        <ele>331.2</ele>
        <time>2022-03-04T14:37:05Z</time>
      </trkpt>
      <trkpt lat="47.65027" lon="6.2254">
        <ele>331</ele>
        <time>2022-03-04T14:37:06Z</time>
      </trkpt>
      <trkpt lat="47.65023" lon="6.22545">
        <ele>330.6</ele>
        <time>2022-03-04T14:37:07Z</time>
      </trkpt>
      <trkpt lat="47.65018" lon="6.22552">
        <ele>330.3</ele>
        <time>2022-03-04T14:37:09Z</time>
      </trkpt>
      <trkpt lat="47.65014" lon="6.22556">
        <ele>330</ele>
        <time>2022-03-04T14:37:10Z</time>
      </trkpt>
      <trkpt lat="47.65009" lon="6.2256">
        <ele>329.5</ele>
        <time>2022-03-04T14:37:11Z</time>
      </trkpt>
      <trkpt lat="47.65005" lon="6.22566">
        <ele>329</ele>
        <time>2022-03-04T14:37:13Z</time>
      </trkpt>
      <trkpt lat="47.65" lon="6.22572">
        <ele>328.4</ele>
        <time>2022-03-04T14:37:15Z</time>
      </trkpt>
      <trkpt lat="47.64997" lon="6.22576">
        <ele>328</ele>
        <time>2022-03-04T14:37:16Z</time>
      </trkpt>
      <trkpt lat="47.64991" lon="6.22583">
        <ele>327.4</ele>
        <time>2022-03-04T14:37:18Z</time>
      </trkpt>
      <trkpt lat="47.64987" lon="6.22587">
        <ele>327.1</ele>
        <time>2022-03-04T14:37:20Z</time>
      </trkpt>
      <trkpt lat="47.64983" lon="6.22592">
        <ele>326.8</ele>
        <time>2022-03-04T14:37:21Z</time>
      </trkpt>
      <trkpt lat="47.64977" lon="6.22599">
        <ele>326.4</ele>
        <time>2022-03-04T14:37:23Z</time>
      </trkpt>
      <trkpt lat="47.64973" lon="6.22603">
        <ele>326</ele>
        <time>2022-03-04T14:37:25Z</time>
      </trkpt>
      <trkpt lat="47.64968" lon="6.22608">
        <ele>325.6</ele>
        <time>2022-03-04T14:37:26Z</time>
      </trkpt>
      <trkpt lat="47.64965" lon="6.22617">
        <ele>325.1</ele>
        <time>2022-03-04T14:37:28Z</time>
      </trkpt>
      <trkpt lat="47.64962" lon="6.22623">
        <ele>324.7</ele>
        <time>2022-03-04T14:37:30Z</time>
      </trkpt>
      <trkpt lat="47.64959" lon="6.22632">
        <ele>324.1</ele>
        <time>2022-03-04T14:37:33Z</time>
      </trkpt>
      <trkpt lat="47.64961" lon="6.22625">
        <ele>324.5</ele>
        <time>2022-03-04T14:37:37Z</time>
      </trkpt>
      <trkpt lat="47.6496" lon="6.22618">
        <ele>324.6</ele>
        <time>2022-03-04T14:38:04Z</time>
      </trkpt>
      <trkpt lat="47.64958" lon="6.2261">
        <ele>324.5</ele>
        <time>2022-03-04T14:38:07Z</time>
      </trkpt>
      <trkpt lat="47.64955" lon="6.22605">
        <ele>324.2</ele>
        <time>2022-03-04T14:38:09Z</time>
      </trkpt>
      <trkpt lat="47.64954" lon="6.22612">
        <ele>324</ele>
        <time>2022-03-04T14:38:43Z</time>
      </trkpt>
      <trkpt lat="47.64953" lon="6.22619">
        <ele>323.8</ele>
        <time>2022-03-04T14:38:52Z</time>
      </trkpt>
      <trkpt lat="47.64954" lon="6.22627">
        <ele>323.8</ele>
        <time>2022-03-04T14:39:35Z</time>
      </trkpt>
      <trkpt lat="47.64956" lon="6.22634">
        <ele>323.9</ele>
        <time>2022-03-04T14:39:39Z</time>
      </trkpt>
      <trkpt lat="47.64958" lon="6.2264">
        <ele>323.9</ele>
        <time>2022-03-04T14:39:41Z</time>
      </trkpt>
      <trkpt lat="47.64959" lon="6.22647">
        <ele>323.8</ele>
        <time>2022-03-04T14:39:43Z</time>
      </trkpt>
      <trkpt lat="47.64962" lon="6.22655">
        <ele>323.7</ele>
        <time>2022-03-04T14:39:45Z</time>
      </trkpt>
      <trkpt lat="47.64965" lon="6.22661">
        <ele>323.7</ele>
        <time>2022-03-04T14:39:48Z</time>
      </trkpt>
      <trkpt lat="47.64967" lon="6.22667">
        <ele>323.6</ele>
        <time>2022-03-04T14:39:50Z</time>
      </trkpt>
      <trkpt lat="47.64969" lon="6.22676">
        <ele>323.5</ele>
        <time>2022-03-04T14:39:52Z</time>
      </trkpt>
      <trkpt lat="47.64972" lon="6.22682">
        <ele>323.4</ele>
        <time>2022-03-04T14:39:54Z</time>
      </trkpt>
      <trkpt lat="47.64974" lon="6.22688">
        <ele>323.4</ele>
        <time>2022-03-04T14:39:56Z</time>
      </trkpt>
      <trkpt lat="47.64977" lon="6.22696">
        <ele>323.5</ele>
        <time>2022-03-04T14:39:58Z</time>
      </trkpt>
      <trkpt lat="47.6498" lon="6.22704">
        <ele>323.7</ele>
        <time>2022-03-04T14:40:00Z</time>
      </trkpt>
      <trkpt lat="47.64983" lon="6.22712">
        <ele>323.9</ele>
        <time>2022-03-04T14:40:03Z</time>
      </trkpt>
      <trkpt lat="47.64985" lon="6.2272">
        <ele>324</ele>
        <time>2022-03-04T14:40:05Z</time>
      </trkpt>
      <trkpt lat="47.64988" lon="6.22727">
        <ele>324</ele>
        <time>2022-03-04T14:40:07Z</time>
      </trkpt>
      <trkpt lat="47.6499" lon="6.22735">
        <ele>324</ele>
        <time>2022-03-04T14:40:09Z</time>
      </trkpt>
      <trkpt lat="47.64992" lon="6.22742">
        <ele>323.9</ele>
        <time>2022-03-04T14:40:11Z</time>
      </trkpt>
      <trkpt lat="47.64994" lon="6.22749">
        <ele>323.8</ele>
        <time>2022-03-04T14:40:13Z</time>
      </trkpt>
      <trkpt lat="47.64996" lon="6.22755">
        <ele>323.8</ele>
        <time>2022-03-04T14:40:14Z</time>
      </trkpt>
      <trkpt lat="47.64997" lon="6.22762">
        <ele>323.8</ele>
        <time>2022-03-04T14:40:16Z</time>
      </trkpt>
      <trkpt lat="47.64999" lon="6.22769">
        <ele>323.9</ele>
        <time>2022-03-04T14:40:18Z</time>
      </trkpt>
      <trkpt lat="47.65" lon="6.22776">
        <ele>324</ele>
        <time>2022-03-04T14:40:20Z</time>
      </trkpt>
      <trkpt lat="47.65002" lon="6.22783">
        <ele>324.1</ele>
        <time>2022-03-04T14:40:22Z</time>
      </trkpt>
      <trkpt lat="47.65004" lon="6.22789">
        <ele>324.2</ele>
        <time>2022-03-04T14:40:24Z</time>
      </trkpt>
      <trkpt lat="47.65006" lon="6.22797">
        <ele>324.3</ele>
        <time>2022-03-04T14:40:26Z</time>
      </trkpt>
      <trkpt lat="47.65008" lon="6.22803">
        <ele>324.3</ele>
        <time>2022-03-04T14:40:28Z</time>
      </trkpt>
      <trkpt lat="47.6501" lon="6.2281">
        <ele>324.4</ele>
        <time>2022-03-04T14:40:30Z</time>
      </trkpt>
      <trkpt lat="47.65012" lon="6.22816">
        <ele>324.4</ele>
        <time>2022-03-04T14:40:32Z</time>
      </trkpt>
      <trkpt lat="47.65014" lon="6.22824">
        <ele>324.5</ele>
        <time>2022-03-04T14:40:35Z</time>
      </trkpt>
      <trkpt lat="47.65016" lon="6.22831">
        <ele>324.6</ele>
        <time>2022-03-04T14:40:37Z</time>
      </trkpt>
      <trkpt lat="47.65018" lon="6.22837">
        <ele>324.5</ele>
        <time>2022-03-04T14:40:40Z</time>
      </trkpt>
      <trkpt lat="47.6502" lon="6.22844">
        <ele>324.4</ele>
        <time>2022-03-04T14:40:42Z</time>
      </trkpt>
      <trkpt lat="47.65023" lon="6.22853">
        <ele>324.1</ele>
        <time>2022-03-04T14:40:45Z</time>
      </trkpt>
      <trkpt lat="47.65026" lon="6.22861">
        <ele>323.9</ele>
        <time>2022-03-04T14:40:48Z</time>
      </trkpt>
      <trkpt lat="47.65029" lon="6.22869">
        <ele>324</ele>
        <time>2022-03-04T14:40:51Z</time>
      </trkpt>
      <trkpt lat="47.65032" lon="6.22877">
        <ele>324.1</ele>
        <time>2022-03-04T14:40:54Z</time>
      </trkpt>
      <trkpt lat="47.65035" lon="6.22886">
        <ele>324</ele>
        <time>2022-03-04T14:40:57Z</time>
      </trkpt>
      <trkpt lat="47.65037" lon="6.22894">
        <ele>324</ele>
        <time>2022-03-04T14:40:59Z</time>
      </trkpt>
      <trkpt lat="47.65039" lon="6.229">
        <ele>324</ele>
        <time>2022-03-04T14:41:01Z</time>
      </trkpt>
      <trkpt lat="47.65042" lon="6.22908">
        <ele>324</ele>
        <time>2022-03-04T14:41:03Z</time>
      </trkpt>
      <trkpt lat="47.65044" lon="6.22914">
        <ele>324</ele>
        <time>2022-03-04T14:41:05Z</time>
      </trkpt>
      <trkpt lat="47.65045" lon="6.2292">
        <ele>323.9</ele>
        <time>2022-03-04T14:41:07Z</time>
      </trkpt>
      <trkpt lat="47.65048" lon="6.22928">
        <ele>323.6</ele>
        <time>2022-03-04T14:41:10Z</time>
      </trkpt>
      <trkpt lat="47.6505" lon="6.22935">
        <ele>323.3</ele>
        <time>2022-03-04T14:41:12Z</time>
      </trkpt>
      <trkpt lat="47.65051" lon="6.22941">
        <ele>323.1</ele>
        <time>2022-03-04T14:41:14Z</time>
      </trkpt>
      <trkpt lat="47.65053" lon="6.22949">
        <ele>322.8</ele>
        <time>2022-03-04T14:41:17Z</time>
      </trkpt>
      <trkpt lat="47.65056" lon="6.22956">
        <ele>322.6</ele>
        <time>2022-03-04T14:41:19Z</time>
      </trkpt>
      <trkpt lat="47.65058" lon="6.22964">
        <ele>322.2</ele>
        <time>2022-03-04T14:41:22Z</time>
      </trkpt>
      <trkpt lat="47.65061" lon="6.2297">
        <ele>321.9</ele>
        <time>2022-03-04T14:41:24Z</time>
      </trkpt>
      <trkpt lat="47.65064" lon="6.22978">
        <ele>321.4</ele>
        <time>2022-03-04T14:41:26Z</time>
      </trkpt>
      <trkpt lat="47.65067" lon="6.22984">
        <ele>321.1</ele>
        <time>2022-03-04T14:41:28Z</time>
      </trkpt>
      <trkpt lat="47.65071" lon="6.22993">
        <ele>320.8</ele>
        <time>2022-03-04T14:41:30Z</time>
      </trkpt>
      <trkpt lat="47.65074" lon="6.22999">
        <ele>320.7</ele>
        <time>2022-03-04T14:41:32Z</time>
      </trkpt>
      <trkpt lat="47.65079" lon="6.23007">
        <ele>320.3</ele>
        <time>2022-03-04T14:41:34Z</time>
      </trkpt>
      <trkpt lat="47.65082" lon="6.23013">
        <ele>320</ele>
        <time>2022-03-04T14:41:35Z</time>
      </trkpt>
      <trkpt lat="47.65086" lon="6.23019">
        <ele>319.6</ele>
        <time>2022-03-04T14:41:37Z</time>
      </trkpt>
      <trkpt lat="47.6509" lon="6.23025">
        <ele>319.1</ele>
        <time>2022-03-04T14:41:39Z</time>
      </trkpt>
      <trkpt lat="47.65093" lon="6.23031">
        <ele>318.8</ele>
        <time>2022-03-04T14:41:40Z</time>
      </trkpt>
      <trkpt lat="47.65098" lon="6.23037">
        <ele>318.5</ele>
        <time>2022-03-04T14:41:42Z</time>
      </trkpt>
      <trkpt lat="47.65104" lon="6.23044">
        <ele>318.3</ele>
        <time>2022-03-04T14:41:44Z</time>
      </trkpt>
      <trkpt lat="47.65108" lon="6.23049">
        <ele>318.1</ele>
        <time>2022-03-04T14:41:46Z</time>
      </trkpt>
      <trkpt lat="47.65114" lon="6.23055">
        <ele>318.2</ele>
        <time>2022-03-04T14:41:47Z</time>
      </trkpt>
      <trkpt lat="47.65118" lon="6.2306">
        <ele>318.3</ele>
        <time>2022-03-04T14:41:48Z</time>
      </trkpt>
      <trkpt lat="47.65126" lon="6.23066">
        <ele>318.5</ele>
        <time>2022-03-04T14:41:50Z</time>
      </trkpt>
      <trkpt lat="47.6513" lon="6.2307">
        <ele>318.7</ele>
        <time>2022-03-04T14:41:51Z</time>
      </trkpt>
      <trkpt lat="47.65135" lon="6.23074">
        <ele>319</ele>
        <time>2022-03-04T14:41:53Z</time>
      </trkpt>
      <trkpt lat="47.6514" lon="6.23079">
        <ele>319.3</ele>
        <time>2022-03-04T14:41:55Z</time>
      </trkpt>
      <trkpt lat="47.65145" lon="6.23082">
        <ele>319.5</ele>
        <time>2022-03-04T14:41:57Z</time>
      </trkpt>
      <trkpt lat="47.65151" lon="6.23087">
        <ele>319.5</ele>
        <time>2022-03-04T14:42:00Z</time>
      </trkpt>
      <trkpt lat="47.65155" lon="6.23091">
        <ele>319.5</ele>
        <time>2022-03-04T14:42:02Z</time>
      </trkpt>
      <trkpt lat="47.6516" lon="6.23095">
        <ele>319.5</ele>
        <time>2022-03-04T14:42:04Z</time>
      </trkpt>
      <trkpt lat="47.65165" lon="6.231">
        <ele>319.6</ele>
        <time>2022-03-04T14:42:07Z</time>
      </trkpt>
      <trkpt lat="47.65169" lon="6.23103">
        <ele>319.6</ele>
        <time>2022-03-04T14:42:09Z</time>
      </trkpt>
      <trkpt lat="47.65173" lon="6.23107">
        <ele>319.5</ele>
        <time>2022-03-04T14:42:11Z</time>
      </trkpt>
      <trkpt lat="47.65178" lon="6.23109">
        <ele>319.5</ele>
        <time>2022-03-04T14:42:13Z</time>
      </trkpt>
      <trkpt lat="47.65182" lon="6.23112">
        <ele>319.4</ele>
        <time>2022-03-04T14:42:15Z</time>
      </trkpt>
      <trkpt lat="47.65187" lon="6.23115">
        <ele>319.4</ele>
        <time>2022-03-04T14:42:17Z</time>
      </trkpt>
      <trkpt lat="47.65192" lon="6.23119">
        <ele>319.3</ele>
        <time>2022-03-04T14:42:20Z</time>
      </trkpt>
      <trkpt lat="47.65197" lon="6.23121">
        <ele>319.5</ele>
        <time>2022-03-04T14:42:22Z</time>
      </trkpt>
      <trkpt lat="47.65202" lon="6.23123">
        <ele>319.7</ele>
        <time>2022-03-04T14:42:24Z</time>
      </trkpt>
      <trkpt lat="47.65206" lon="6.23125">
        <ele>319.9</ele>
        <time>2022-03-04T14:42:26Z</time>
      </trkpt>
      <trkpt lat="47.65211" lon="6.23127">
        <ele>320.1</ele>
        <time>2022-03-04T14:42:28Z</time>
      </trkpt>
      <trkpt lat="47.65217" lon="6.23128">
        <ele>320.4</ele>
        <time>2022-03-04T14:42:31Z</time>
      </trkpt>
      <trkpt lat="47.65223" lon="6.23131">
        <ele>320.6</ele>
        <time>2022-03-04T14:42:33Z</time>
      </trkpt>
      <trkpt lat="47.65228" lon="6.23134">
        <ele>320.4</ele>
        <time>2022-03-04T14:42:36Z</time>
      </trkpt>
      <trkpt lat="47.65234" lon="6.23137">
        <ele>320.2</ele>
        <time>2022-03-04T14:42:39Z</time>
      </trkpt>
      <trkpt lat="47.65239" lon="6.23139">
        <ele>319.9</ele>
        <time>2022-03-04T14:42:41Z</time>
      </trkpt>
      <trkpt lat="47.65244" lon="6.23141">
        <ele>319.6</ele>
        <time>2022-03-04T14:42:43Z</time>
      </trkpt>
      <trkpt lat="47.65248" lon="6.23144">
        <ele>319.3</ele>
        <time>2022-03-04T14:42:46Z</time>
      </trkpt>
      <trkpt lat="47.65253" lon="6.23146">
        <ele>319.2</ele>
        <time>2022-03-04T14:42:48Z</time>
      </trkpt>
      <trkpt lat="47.65258" lon="6.23148">
        <ele>319.3</ele>
        <time>2022-03-04T14:42:51Z</time>
      </trkpt>
      <trkpt lat="47.65264" lon="6.23149">
        <ele>319.7</ele>
        <time>2022-03-04T14:42:54Z</time>
      </trkpt>
      <trkpt lat="47.6527" lon="6.2315">
        <ele>320.2</ele>
        <time>2022-03-04T14:42:56Z</time>
      </trkpt>
      <trkpt lat="47.65277" lon="6.23152">
        <ele>320.5</ele>
        <time>2022-03-04T14:42:59Z</time>
      </trkpt>
      <trkpt lat="47.65283" lon="6.23154">
        <ele>320.9</ele>
        <time>2022-03-04T14:43:01Z</time>
      </trkpt>
      <trkpt lat="47.65287" lon="6.23156">
        <ele>321.1</ele>
        <time>2022-03-04T14:43:03Z</time>
      </trkpt>
      <trkpt lat="47.65293" lon="6.23159">
        <ele>321.5</ele>
        <time>2022-03-04T14:43:06Z</time>
      </trkpt>
      <trkpt lat="47.65298" lon="6.23161">
        <ele>321.7</ele>
        <time>2022-03-04T14:43:08Z</time>
      </trkpt>
      <trkpt lat="47.65302" lon="6.23165">
        <ele>321.8</ele>
        <time>2022-03-04T14:43:10Z</time>
      </trkpt>
      <trkpt lat="47.65308" lon="6.23171">
        <ele>321.6</ele>
        <time>2022-03-04T14:43:13Z</time>
      </trkpt>
      <trkpt lat="47.65311" lon="6.23176">
        <ele>321.4</ele>
        <time>2022-03-04T14:43:15Z</time>
      </trkpt>
      <trkpt lat="47.65317" lon="6.23182">
        <ele>321.2</ele>
        <time>2022-03-04T14:43:18Z</time>
      </trkpt>
      <trkpt lat="47.65321" lon="6.23186">
        <ele>321.2</ele>
        <time>2022-03-04T14:43:20Z</time>
      </trkpt>
      <trkpt lat="47.65325" lon="6.23192">
        <ele>321.2</ele>
        <time>2022-03-04T14:43:23Z</time>
      </trkpt>
      <trkpt lat="47.65328" lon="6.23196">
        <ele>321.4</ele>
        <time>2022-03-04T14:43:25Z</time>
      </trkpt>
      <trkpt lat="47.65332" lon="6.23203">
        <ele>321.5</ele>
        <time>2022-03-04T14:43:28Z</time>
      </trkpt>
      <trkpt lat="47.65335" lon="6.23208">
        <ele>321.5</ele>
        <time>2022-03-04T14:43:30Z</time>
      </trkpt>
      <trkpt lat="47.65338" lon="6.23213">
        <ele>321.3</ele>
        <time>2022-03-04T14:43:32Z</time>
      </trkpt>
      <trkpt lat="47.65342" lon="6.23218">
        <ele>321.1</ele>
        <time>2022-03-04T14:43:34Z</time>
      </trkpt>
      <trkpt lat="47.65346" lon="6.23223">
        <ele>321</ele>
        <time>2022-03-04T14:43:36Z</time>
      </trkpt>
      <trkpt lat="47.6535" lon="6.23227">
        <ele>321.3</ele>
        <time>2022-03-04T14:43:39Z</time>
      </trkpt>
      <trkpt lat="47.65354" lon="6.23231">
        <ele>321.6</ele>
        <time>2022-03-04T14:43:41Z</time>
      </trkpt>
      <trkpt lat="47.65359" lon="6.23236">
        <ele>321.9</ele>
        <time>2022-03-04T14:43:44Z</time>
      </trkpt>
      <trkpt lat="47.65363" lon="6.23239">
        <ele>322</ele>
        <time>2022-03-04T14:43:47Z</time>
      </trkpt>
      <trkpt lat="47.65368" lon="6.23242">
        <ele>321.9</ele>
        <time>2022-03-04T14:43:50Z</time>
      </trkpt>
      <trkpt lat="47.65372" lon="6.23248">
        <ele>322</ele>
        <time>2022-03-04T14:43:53Z</time>
      </trkpt>
      <trkpt lat="47.65377" lon="6.23254">
        <ele>322.3</ele>
        <time>2022-03-04T14:43:56Z</time>
      </trkpt>
      <trkpt lat="47.65381" lon="6.23259">
        <ele>322.5</ele>
        <time>2022-03-04T14:43:59Z</time>
      </trkpt>
      <trkpt lat="47.65388" lon="6.23263">
        <ele>322.5</ele>
        <time>2022-03-04T14:44:01Z</time>
      </trkpt>
      <trkpt lat="47.65394" lon="6.23266">
        <ele>322.6</ele>
        <time>2022-03-04T14:44:04Z</time>
      </trkpt>
      <trkpt lat="47.65399" lon="6.23268">
        <ele>322.9</ele>
        <time>2022-03-04T14:44:05Z</time>
      </trkpt>
      <trkpt lat="47.65405" lon="6.23271">
        <ele>323.1</ele>
        <time>2022-03-04T14:44:09Z</time>
      </trkpt>
      <trkpt lat="47.65409" lon="6.23273">
        <ele>323.3</ele>
        <time>2022-03-04T14:44:11Z</time>
      </trkpt>
      <trkpt lat="47.65415" lon="6.23273">
        <ele>323.4</ele>
        <time>2022-03-04T14:44:13Z</time>
      </trkpt>
      <trkpt lat="47.6542" lon="6.23274">
        <ele>323.5</ele>
        <time>2022-03-04T14:44:15Z</time>
      </trkpt>
      <trkpt lat="47.65425" lon="6.23275">
        <ele>323.6</ele>
        <time>2022-03-04T14:44:18Z</time>
      </trkpt>
      <trkpt lat="47.6543" lon="6.23275">
        <ele>323.7</ele>
        <time>2022-03-04T14:44:20Z</time>
      </trkpt>
      <trkpt lat="47.65435" lon="6.23275">
        <ele>323.7</ele>
        <time>2022-03-04T14:44:22Z</time>
      </trkpt>
      <trkpt lat="47.6544" lon="6.23274">
        <ele>323.6</ele>
        <time>2022-03-04T14:44:24Z</time>
      </trkpt>
      <trkpt lat="47.65447" lon="6.23273">
        <ele>323.7</ele>
        <time>2022-03-04T14:44:26Z</time>
      </trkpt>
      <trkpt lat="47.65453" lon="6.23272">
        <ele>324</ele>
        <time>2022-03-04T14:44:28Z</time>
      </trkpt>
      <trkpt lat="47.65458" lon="6.23271">
        <ele>324.2</ele>
        <time>2022-03-04T14:44:29Z</time>
      </trkpt>
      <trkpt lat="47.65463" lon="6.23269">
        <ele>324.4</ele>
        <time>2022-03-04T14:44:30Z</time>
      </trkpt>
      <trkpt lat="47.65467" lon="6.23268">
        <ele>324.7</ele>
        <time>2022-03-04T14:44:30Z</time>
      </trkpt>
      <trkpt lat="47.65473" lon="6.23267">
        <ele>324.9</ele>
        <time>2022-03-04T14:44:33Z</time>
      </trkpt>
      <trkpt lat="47.65479" lon="6.23266">
        <ele>324.8</ele>
        <time>2022-03-04T14:44:34Z</time>
      </trkpt>
      <trkpt lat="47.65484" lon="6.23264">
        <ele>324.7</ele>
        <time>2022-03-04T14:44:34Z</time>
      </trkpt>
      <trkpt lat="47.6549" lon="6.23263">
        <ele>324.8</ele>
        <time>2022-03-04T14:44:36Z</time>
      </trkpt>
      <trkpt lat="47.65496" lon="6.23261">
        <ele>324.9</ele>
        <time>2022-03-04T14:44:38Z</time>
      </trkpt>
      <trkpt lat="47.655" lon="6.2326">
        <ele>325</ele>
        <time>2022-03-04T14:44:39Z</time>
      </trkpt>
      <trkpt lat="47.65505" lon="6.23258">
        <ele>324.6</ele>
        <time>2022-03-04T14:44:40Z</time>
      </trkpt>
      <trkpt lat="47.6551" lon="6.23257">
        <ele>324.3</ele>
        <time>2022-03-04T14:44:40Z</time>
      </trkpt>
      <trkpt lat="47.65516" lon="6.23257">
        <ele>323.9</ele>
        <time>2022-03-04T14:44:43Z</time>
      </trkpt>
      <trkpt lat="47.65521" lon="6.23258">
        <ele>323.5</ele>
        <time>2022-03-04T14:44:44Z</time>
      </trkpt>
      <trkpt lat="47.65526" lon="6.23261">
        <ele>323.1</ele>
        <time>2022-03-04T14:44:45Z</time>
      </trkpt>
      <trkpt lat="47.65531" lon="6.23265">
        <ele>322.6</ele>
        <time>2022-03-04T14:44:46Z</time>
      </trkpt>
      <trkpt lat="47.65536" lon="6.2327">
        <ele>322.3</ele>
        <time>2022-03-04T14:44:47Z</time>
      </trkpt>
      <trkpt lat="47.65546" lon="6.23281">
        <ele>321.8</ele>
        <time>2022-03-04T14:44:47Z</time>
      </trkpt>
      <trkpt lat="47.65552" lon="6.23289">
        <ele>321.7</ele>
        <time>2022-03-04T14:44:48Z</time>
      </trkpt>
      <trkpt lat="47.65557" lon="6.23296">
        <ele>321.5</ele>
        <time>2022-03-04T14:44:49Z</time>
      </trkpt>
      <trkpt lat="47.65562" lon="6.23304">
        <ele>321.4</ele>
        <time>2022-03-04T14:44:50Z</time>
      </trkpt>
      <trkpt lat="47.65567" lon="6.2331">
        <ele>321.4</ele>
        <time>2022-03-04T14:44:51Z</time>
      </trkpt>
      <trkpt lat="47.65571" lon="6.23317">
        <ele>321.3</ele>
        <time>2022-03-04T14:44:52Z</time>
      </trkpt>
      <trkpt lat="47.65576" lon="6.23323">
        <ele>321.2</ele>
        <time>2022-03-04T14:44:53Z</time>
      </trkpt>
      <trkpt lat="47.6558" lon="6.23329">
        <ele>321.1</ele>
        <time>2022-03-04T14:44:54Z</time>
      </trkpt>
      <trkpt lat="47.65584" lon="6.23335">
        <ele>321</ele>
        <time>2022-03-04T14:44:55Z</time>
      </trkpt>
      <trkpt lat="47.65588" lon="6.2334">
        <ele>320.9</ele>
        <time>2022-03-04T14:44:56Z</time>
      </trkpt>
      <trkpt lat="47.65592" lon="6.23346">
        <ele>320.8</ele>
        <time>2022-03-04T14:44:57Z</time>
      </trkpt>
      <trkpt lat="47.65596" lon="6.23352">
        <ele>320.8</ele>
        <time>2022-03-04T14:44:58Z</time>
      </trkpt>
      <trkpt lat="47.656" lon="6.23358">
        <ele>320.7</ele>
        <time>2022-03-04T14:44:59Z</time>
      </trkpt>
      <trkpt lat="47.65603" lon="6.23365">
        <ele>320.7</ele>
        <time>2022-03-04T14:45:00Z</time>
      </trkpt>
      <trkpt lat="47.65606" lon="6.23371">
        <ele>320.6</ele>
        <time>2022-03-04T14:45:01Z</time>
      </trkpt>
      <trkpt lat="47.65609" lon="6.23377">
        <ele>320.7</ele>
        <time>2022-03-04T14:45:02Z</time>
      </trkpt>
      <trkpt lat="47.65613" lon="6.23383">
        <ele>320.7</ele>
        <time>2022-03-04T14:45:03Z</time>
      </trkpt>
      <trkpt lat="47.65616" lon="6.23389">
        <ele>320.8</ele>
        <time>2022-03-04T14:45:04Z</time>
      </trkpt>
      <trkpt lat="47.65619" lon="6.23395">
        <ele>320.8</ele>
        <time>2022-03-04T14:45:05Z</time>
      </trkpt>
      <trkpt lat="47.65622" lon="6.234">
        <ele>320.8</ele>
        <time>2022-03-04T14:45:06Z</time>
      </trkpt>
      <trkpt lat="47.65625" lon="6.23406">
        <ele>320.8</ele>
        <time>2022-03-04T14:45:07Z</time>
      </trkpt>
      <trkpt lat="47.65628" lon="6.23411">
        <ele>320.9</ele>
        <time>2022-03-04T14:45:08Z</time>
      </trkpt>
      <trkpt lat="47.65632" lon="6.23419">
        <ele>320.9</ele>
        <time>2022-03-04T14:45:10Z</time>
      </trkpt>
      <trkpt lat="47.65639" lon="6.23425">
        <ele>320.7</ele>
        <time>2022-03-04T14:45:12Z</time>
      </trkpt>
      <trkpt lat="47.65647" lon="6.23424">
        <ele>320.8</ele>
        <time>2022-03-04T14:45:14Z</time>
      </trkpt>
      <trkpt lat="47.65652" lon="6.23418">
        <ele>321</ele>
        <time>2022-03-04T14:45:16Z</time>
      </trkpt>
      <trkpt lat="47.65657" lon="6.23417">
        <ele>321</ele>
        <time>2022-03-04T14:45:20Z</time>
      </trkpt>
      <trkpt lat="47.6566" lon="6.23411">
        <ele>320.8</ele>
        <time>2022-03-04T14:45:21Z</time>
      </trkpt>
      <trkpt lat="47.65663" lon="6.23404">
        <ele>320.6</ele>
        <time>2022-03-04T14:45:21Z</time>
      </trkpt>
      <trkpt lat="47.65666" lon="6.23397">
        <ele>320.3</ele>
        <time>2022-03-04T14:45:24Z</time>
      </trkpt>
      <trkpt lat="47.65669" lon="6.23388">
        <ele>320.1</ele>
        <time>2022-03-04T14:45:26Z</time>
      </trkpt>
      <trkpt lat="47.65673" lon="6.23382">
        <ele>320.2</ele>
        <time>2022-03-04T14:45:27Z</time>
      </trkpt>
      <trkpt lat="47.65674" lon="6.23374">
        <ele>320.3</ele>
        <time>2022-03-04T14:45:27Z</time>
      </trkpt>
      <trkpt lat="47.65676" lon="6.23367">
        <ele>320.3</ele>
        <time>2022-03-04T14:45:30Z</time>
      </trkpt>
      <trkpt lat="47.65676" lon="6.2336">
        <ele>320.3</ele>
        <time>2022-03-04T14:45:31Z</time>
      </trkpt>
      <trkpt lat="47.65678" lon="6.23347">
        <ele>320.4</ele>
        <time>2022-03-04T14:45:33Z</time>
      </trkpt>
      <trkpt lat="47.65679" lon="6.23336">
        <ele>320.4</ele>
        <time>2022-03-04T14:45:35Z</time>
      </trkpt>
      <trkpt lat="47.6568" lon="6.23323">
        <ele>320.1</ele>
        <time>2022-03-04T14:45:36Z</time>
      </trkpt>
      <trkpt lat="47.65681" lon="6.23315">
        <ele>319.9</ele>
        <time>2022-03-04T14:45:39Z</time>
      </trkpt>
      <trkpt lat="47.65682" lon="6.23306">
        <ele>319.6</ele>
        <time>2022-03-04T14:45:39Z</time>
      </trkpt>
      <trkpt lat="47.65683" lon="6.23297">
        <ele>319.4</ele>
        <time>2022-03-04T14:45:42Z</time>
      </trkpt>
      <trkpt lat="47.65684" lon="6.23286">
        <ele>319.4</ele>
        <time>2022-03-04T14:45:42Z</time>
      </trkpt>
      <trkpt lat="47.65685" lon="6.23277">
        <ele>319.3</ele>
        <time>2022-03-04T14:45:45Z</time>
      </trkpt>
      <trkpt lat="47.65686" lon="6.23269">
        <ele>319</ele>
        <time>2022-03-04T14:45:46Z</time>
      </trkpt>
      <trkpt lat="47.65686" lon="6.2326">
        <ele>318.8</ele>
        <time>2022-03-04T14:45:46Z</time>
      </trkpt>
      <trkpt lat="47.65687" lon="6.23249">
        <ele>318.5</ele>
        <time>2022-03-04T14:45:49Z</time>
      </trkpt>
      <trkpt lat="47.65689" lon="6.23231">
        <ele>318.5</ele>
        <time>2022-03-04T14:45:50Z</time>
      </trkpt>
      <trkpt lat="47.6569" lon="6.23224">
        <ele>318.5</ele>
        <time>2022-03-04T14:45:51Z</time>
      </trkpt>
      <trkpt lat="47.65691" lon="6.23217">
        <ele>318.6</ele>
        <time>2022-03-04T14:45:52Z</time>
      </trkpt>
      <trkpt lat="47.65692" lon="6.2321">
        <ele>318.7</ele>
        <time>2022-03-04T14:45:53Z</time>
      </trkpt>
      <trkpt lat="47.65693" lon="6.23203">
        <ele>318.8</ele>
        <time>2022-03-04T14:45:54Z</time>
      </trkpt>
      <trkpt lat="47.65694" lon="6.2319">
        <ele>319</ele>
        <time>2022-03-04T14:45:56Z</time>
      </trkpt>
      <trkpt lat="47.65695" lon="6.23182">
        <ele>319</ele>
        <time>2022-03-04T14:46:00Z</time>
      </trkpt>
      <trkpt lat="47.65697" lon="6.23166">
        <ele>319.1</ele>
        <time>2022-03-04T14:46:02Z</time>
      </trkpt>
      <trkpt lat="47.65698" lon="6.23157">
        <ele>318.8</ele>
        <time>2022-03-04T14:46:03Z</time>
      </trkpt>
      <trkpt lat="47.657" lon="6.2314">
        <ele>318.4</ele>
        <time>2022-03-04T14:46:04Z</time>
      </trkpt>
      <trkpt lat="47.65701" lon="6.23133">
        <ele>318.5</ele>
        <time>2022-03-04T14:46:05Z</time>
      </trkpt>
      <trkpt lat="47.65703" lon="6.23122">
        <ele>318.6</ele>
        <time>2022-03-04T14:46:08Z</time>
      </trkpt>
      <trkpt lat="47.65706" lon="6.23115">
        <ele>318.8</ele>
        <time>2022-03-04T14:46:08Z</time>
      </trkpt>
      <trkpt lat="47.65709" lon="6.23109">
        <ele>319</ele>
        <time>2022-03-04T14:46:10Z</time>
      </trkpt>
      <trkpt lat="47.6571" lon="6.231">
        <ele>319.1</ele>
        <time>2022-03-04T14:46:12Z</time>
      </trkpt>
      <trkpt lat="47.6571" lon="6.23091">
        <ele>319.1</ele>
        <time>2022-03-04T14:46:13Z</time>
      </trkpt>
      <trkpt lat="47.6571" lon="6.23084">
        <ele>319.1</ele>
        <time>2022-03-04T14:46:14Z</time>
      </trkpt>
      <trkpt lat="47.6571" lon="6.23077">
        <ele>319.1</ele>
        <time>2022-03-04T14:46:14Z</time>
      </trkpt>
      <trkpt lat="47.6571" lon="6.23068">
        <ele>319.1</ele>
        <time>2022-03-04T14:46:17Z</time>
      </trkpt>
      <trkpt lat="47.6571" lon="6.23061">
        <ele>319.1</ele>
        <time>2022-03-04T14:46:18Z</time>
      </trkpt>
      <trkpt lat="47.6571" lon="6.23053">
        <ele>319.2</ele>
        <time>2022-03-04T14:46:19Z</time>
      </trkpt>
      <trkpt lat="47.65711" lon="6.23044">
        <ele>319.4</ele>
        <time>2022-03-04T14:46:20Z</time>
      </trkpt>
      <trkpt lat="47.65712" lon="6.23036">
        <ele>319.5</ele>
        <time>2022-03-04T14:46:22Z</time>
      </trkpt>
      <trkpt lat="47.65713" lon="6.23025">
        <ele>319.6</ele>
        <time>2022-03-04T14:46:23Z</time>
      </trkpt>
      <trkpt lat="47.65714" lon="6.23017">
        <ele>319.4</ele>
        <time>2022-03-04T14:46:23Z</time>
      </trkpt>
      <trkpt lat="47.65715" lon="6.2301">
        <ele>319.3</ele>
        <time>2022-03-04T14:46:24Z</time>
      </trkpt>
      <trkpt lat="47.65716" lon="6.23003">
        <ele>319.1</ele>
        <time>2022-03-04T14:46:25Z</time>
      </trkpt>
      <trkpt lat="47.65716" lon="6.22996">
        <ele>319</ele>
        <time>2022-03-04T14:46:26Z</time>
      </trkpt>
      <trkpt lat="47.65716" lon="6.22989">
        <ele>319</ele>
        <time>2022-03-04T14:46:27Z</time>
      </trkpt>
      <trkpt lat="47.65716" lon="6.22976">
        <ele>319</ele>
        <time>2022-03-04T14:46:29Z</time>
      </trkpt>
      <trkpt lat="47.65715" lon="6.22969">
        <ele>318.9</ele>
        <time>2022-03-04T14:46:30Z</time>
      </trkpt>
      <trkpt lat="47.65715" lon="6.22961">
        <ele>318.7</ele>
        <time>2022-03-04T14:46:31Z</time>
      </trkpt>
      <trkpt lat="47.65714" lon="6.22953">
        <ele>318.5</ele>
        <time>2022-03-04T14:46:32Z</time>
      </trkpt>
      <trkpt lat="47.65713" lon="6.22945">
        <ele>318.3</ele>
        <time>2022-03-04T14:46:33Z</time>
      </trkpt>
      <trkpt lat="47.65713" lon="6.22937">
        <ele>318.1</ele>
        <time>2022-03-04T14:46:34Z</time>
      </trkpt>
      <trkpt lat="47.65712" lon="6.2293">
        <ele>317.8</ele>
        <time>2022-03-04T14:46:35Z</time>
      </trkpt>
      <trkpt lat="47.65711" lon="6.22923">
        <ele>317.6</ele>
        <time>2022-03-04T14:46:36Z</time>
      </trkpt>
      <trkpt lat="47.6571" lon="6.2291">
        <ele>317.3</ele>
        <time>2022-03-04T14:46:38Z</time>
      </trkpt>
      <trkpt lat="47.65709" lon="6.22903">
        <ele>317.2</ele>
        <time>2022-03-04T14:46:39Z</time>
      </trkpt>
      <trkpt lat="47.65708" lon="6.22896">
        <ele>317.2</ele>
        <time>2022-03-04T14:46:40Z</time>
      </trkpt>
      <trkpt lat="47.65705" lon="6.22884">
        <ele>316.9</ele>
        <time>2022-03-04T14:46:42Z</time>
      </trkpt>
      <trkpt lat="47.65704" lon="6.22878">
        <ele>316.7</ele>
        <time>2022-03-04T14:46:43Z</time>
      </trkpt>
      <trkpt lat="47.65702" lon="6.22871">
        <ele>316.5</ele>
        <time>2022-03-04T14:46:44Z</time>
      </trkpt>
      <trkpt lat="47.657" lon="6.22865">
        <ele>316.3</ele>
        <time>2022-03-04T14:46:45Z</time>
      </trkpt>
      <trkpt lat="47.65698" lon="6.22858">
        <ele>316.2</ele>
        <time>2022-03-04T14:46:46Z</time>
      </trkpt>
      <trkpt lat="47.65696" lon="6.22852">
        <ele>316.1</ele>
        <time>2022-03-04T14:46:47Z</time>
      </trkpt>
      <trkpt lat="47.65693" lon="6.22845">
        <ele>315.9</ele>
        <time>2022-03-04T14:46:48Z</time>
      </trkpt>
      <trkpt lat="47.65691" lon="6.22838">
        <ele>315.4</ele>
        <time>2022-03-04T14:46:49Z</time>
      </trkpt>
      <trkpt lat="47.65688" lon="6.2283">
        <ele>314.9</ele>
        <time>2022-03-04T14:46:50Z</time>
      </trkpt>
      <trkpt lat="47.65686" lon="6.22823">
        <ele>314.4</ele>
        <time>2022-03-04T14:46:51Z</time>
      </trkpt>
      <trkpt lat="47.65683" lon="6.22814">
        <ele>313.9</ele>
        <time>2022-03-04T14:46:52Z</time>
      </trkpt>
      <trkpt lat="47.65681" lon="6.22806">
        <ele>313.5</ele>
        <time>2022-03-04T14:46:53Z</time>
      </trkpt>
      <trkpt lat="47.65678" lon="6.22797">
        <ele>313</ele>
        <time>2022-03-04T14:46:54Z</time>
      </trkpt>
      <trkpt lat="47.65675" lon="6.22788">
        <ele>312.6</ele>
        <time>2022-03-04T14:46:55Z</time>
      </trkpt>
      <trkpt lat="47.65673" lon="6.22777">
        <ele>312.1</ele>
        <time>2022-03-04T14:46:56Z</time>
      </trkpt>
      <trkpt lat="47.65671" lon="6.22767">
        <ele>311.6</ele>
        <time>2022-03-04T14:46:57Z</time>
      </trkpt>
      <trkpt lat="47.6567" lon="6.22756">
        <ele>311</ele>
        <time>2022-03-04T14:46:58Z</time>
      </trkpt>
      <trkpt lat="47.6567" lon="6.22745">
        <ele>310.3</ele>
        <time>2022-03-04T14:46:59Z</time>
      </trkpt>
      <trkpt lat="47.65672" lon="6.22735">
        <ele>309.8</ele>
        <time>2022-03-04T14:47:00Z</time>
      </trkpt>
      <trkpt lat="47.65674" lon="6.22725">
        <ele>309.1</ele>
        <time>2022-03-04T14:47:01Z</time>
      </trkpt>
      <trkpt lat="47.65677" lon="6.22715">
        <ele>308.6</ele>
        <time>2022-03-04T14:47:02Z</time>
      </trkpt>
      <trkpt lat="47.65681" lon="6.22705">
        <ele>308.3</ele>
        <time>2022-03-04T14:47:03Z</time>
      </trkpt>
      <trkpt lat="47.65686" lon="6.22697">
        <ele>307.9</ele>
        <time>2022-03-04T14:47:04Z</time>
      </trkpt>
      <trkpt lat="47.65691" lon="6.22689">
        <ele>307.5</ele>
        <time>2022-03-04T14:47:05Z</time>
      </trkpt>
      <trkpt lat="47.65698" lon="6.22683">
        <ele>306.8</ele>
        <time>2022-03-04T14:47:06Z</time>
      </trkpt>
      <trkpt lat="47.65704" lon="6.22679">
        <ele>305.9</ele>
        <time>2022-03-04T14:47:07Z</time>
      </trkpt>
      <trkpt lat="47.6571" lon="6.22676">
        <ele>305.1</ele>
        <time>2022-03-04T14:47:08Z</time>
      </trkpt>
      <trkpt lat="47.65716" lon="6.22674">
        <ele>304.2</ele>
        <time>2022-03-04T14:47:09Z</time>
      </trkpt>
      <trkpt lat="47.65722" lon="6.22672">
        <ele>303.5</ele>
        <time>2022-03-04T14:47:10Z</time>
      </trkpt>
      <trkpt lat="47.65728" lon="6.22669">
        <ele>302.6</ele>
        <time>2022-03-04T14:47:11Z</time>
      </trkpt>
      <trkpt lat="47.65734" lon="6.22666">
        <ele>301.9</ele>
        <time>2022-03-04T14:47:12Z</time>
      </trkpt>
      <trkpt lat="47.65741" lon="6.22663">
        <ele>301.1</ele>
        <time>2022-03-04T14:47:13Z</time>
      </trkpt>
      <trkpt lat="47.65748" lon="6.22659">
        <ele>300.2</ele>
        <time>2022-03-04T14:47:14Z</time>
      </trkpt>
      <trkpt lat="47.65753" lon="6.22654">
        <ele>299.7</ele>
        <time>2022-03-04T14:47:15Z</time>
      </trkpt>
      <trkpt lat="47.65759" lon="6.22646">
        <ele>299.5</ele>
        <time>2022-03-04T14:47:16Z</time>
      </trkpt>
      <trkpt lat="47.65764" lon="6.22638">
        <ele>299.5</ele>
        <time>2022-03-04T14:47:17Z</time>
      </trkpt>
      <trkpt lat="47.65769" lon="6.22629">
        <ele>299.5</ele>
        <time>2022-03-04T14:47:18Z</time>
      </trkpt>
      <trkpt lat="47.65773" lon="6.22619">
        <ele>299.5</ele>
        <time>2022-03-04T14:47:19Z</time>
      </trkpt>
      <trkpt lat="47.65777" lon="6.2261">
        <ele>299.4</ele>
        <time>2022-03-04T14:47:20Z</time>
      </trkpt>
      <trkpt lat="47.65781" lon="6.22599">
        <ele>299.1</ele>
        <time>2022-03-04T14:47:21Z</time>
      </trkpt>
      <trkpt lat="47.65785" lon="6.22589">
        <ele>298.7</ele>
        <time>2022-03-04T14:47:22Z</time>
      </trkpt>
      <trkpt lat="47.65788" lon="6.22578">
        <ele>298.7</ele>
        <time>2022-03-04T14:47:23Z</time>
      </trkpt>
      <trkpt lat="47.6579" lon="6.22566">
        <ele>299</ele>
        <time>2022-03-04T14:47:24Z</time>
      </trkpt>
      <trkpt lat="47.65793" lon="6.22554">
        <ele>299.3</ele>
        <time>2022-03-04T14:47:25Z</time>
      </trkpt>
      <trkpt lat="47.65795" lon="6.22543">
        <ele>299.1</ele>
        <time>2022-03-04T14:47:26Z</time>
      </trkpt>
      <trkpt lat="47.65796" lon="6.22534">
        <ele>299.1</ele>
        <time>2022-03-04T14:47:27Z</time>
      </trkpt>
      <trkpt lat="47.65797" lon="6.22525">
        <ele>299.3</ele>
        <time>2022-03-04T14:47:28Z</time>
      </trkpt>
      <trkpt lat="47.65798" lon="6.22516">
        <ele>299.7</ele>
        <time>2022-03-04T14:47:29Z</time>
      </trkpt>
      <trkpt lat="47.658" lon="6.22507">
        <ele>299.8</ele>
        <time>2022-03-04T14:47:30Z</time>
      </trkpt>
      <trkpt lat="47.658" lon="6.22498">
        <ele>300.1</ele>
        <time>2022-03-04T14:47:31Z</time>
      </trkpt>
      <trkpt lat="47.65801" lon="6.2249">
        <ele>299.8</ele>
        <time>2022-03-04T14:47:32Z</time>
      </trkpt>
      <trkpt lat="47.65802" lon="6.22481">
        <ele>299.7</ele>
        <time>2022-03-04T14:47:33Z</time>
      </trkpt>
      <trkpt lat="47.65802" lon="6.22473">
        <ele>299.6</ele>
        <time>2022-03-04T14:47:34Z</time>
      </trkpt>
      <trkpt lat="47.65802" lon="6.22465">
        <ele>299.7</ele>
        <time>2022-03-04T14:47:35Z</time>
      </trkpt>
      <trkpt lat="47.65803" lon="6.22458">
        <ele>299.7</ele>
        <time>2022-03-04T14:47:36Z</time>
      </trkpt>
      <trkpt lat="47.65804" lon="6.22451">
        <ele>299.7</ele>
        <time>2022-03-04T14:47:37Z</time>
      </trkpt>
      <trkpt lat="47.65804" lon="6.22444">
        <ele>299.7</ele>
        <time>2022-03-04T14:47:38Z</time>
      </trkpt>
      <trkpt lat="47.65806" lon="6.22432">
        <ele>299</ele>
        <time>2022-03-04T14:47:40Z</time>
      </trkpt>
      <trkpt lat="47.65807" lon="6.22417">
        <ele>298.5</ele>
        <time>2022-03-04T14:47:42Z</time>
      </trkpt>
      <trkpt lat="47.65808" lon="6.22407">
        <ele>298.4</ele>
        <time>2022-03-04T14:47:43Z</time>
      </trkpt>
      <trkpt lat="47.65809" lon="6.22397">
        <ele>298.5</ele>
        <time>2022-03-04T14:47:44Z</time>
      </trkpt>
      <trkpt lat="47.6581" lon="6.22385">
        <ele>298.3</ele>
        <time>2022-03-04T14:47:45Z</time>
      </trkpt>
      <trkpt lat="47.65811" lon="6.22374">
        <ele>298.1</ele>
        <time>2022-03-04T14:47:46Z</time>
      </trkpt>
      <trkpt lat="47.65812" lon="6.22364">
        <ele>297.7</ele>
        <time>2022-03-04T14:47:47Z</time>
      </trkpt>
      <trkpt lat="47.65812" lon="6.22355">
        <ele>297.6</ele>
        <time>2022-03-04T14:47:48Z</time>
      </trkpt>
      <trkpt lat="47.65812" lon="6.22346">
        <ele>297.6</ele>
        <time>2022-03-04T14:47:49Z</time>
      </trkpt>
      <trkpt lat="47.65812" lon="6.22337">
        <ele>297.7</ele>
        <time>2022-03-04T14:47:50Z</time>
      </trkpt>
      <trkpt lat="47.65811" lon="6.2233">
        <ele>297.9</ele>
        <time>2022-03-04T14:47:51Z</time>
      </trkpt>
      <trkpt lat="47.65811" lon="6.22323">
        <ele>297.9</ele>
        <time>2022-03-04T14:47:52Z</time>
      </trkpt>
      <trkpt lat="47.65812" lon="6.22313">
        <ele>297.7</ele>
        <time>2022-03-04T14:47:54Z</time>
      </trkpt>
      <trkpt lat="47.65812" lon="6.22302">
        <ele>297.4</ele>
        <time>2022-03-04T14:47:56Z</time>
      </trkpt>
      <trkpt lat="47.65812" lon="6.22295">
        <ele>297.2</ele>
        <time>2022-03-04T14:47:57Z</time>
      </trkpt>
      <trkpt lat="47.65813" lon="6.22288">
        <ele>296.9</ele>
        <time>2022-03-04T14:48:00Z</time>
      </trkpt>
      <trkpt lat="47.65814" lon="6.2228">
        <ele>296.4</ele>
        <time>2022-03-04T14:48:01Z</time>
      </trkpt>
      <trkpt lat="47.65814" lon="6.22271">
        <ele>296.2</ele>
        <time>2022-03-04T14:48:04Z</time>
      </trkpt>
      <trkpt lat="47.65815" lon="6.22261">
        <ele>295.9</ele>
        <time>2022-03-04T14:48:06Z</time>
      </trkpt>
      <trkpt lat="47.65815" lon="6.22251">
        <ele>295.8</ele>
        <time>2022-03-04T14:48:06Z</time>
      </trkpt>
      <trkpt lat="47.65816" lon="6.22243">
        <ele>295.5</ele>
        <time>2022-03-04T14:48:09Z</time>
      </trkpt>
      <trkpt lat="47.65817" lon="6.22234">
        <ele>294.9</ele>
        <time>2022-03-04T14:48:09Z</time>
      </trkpt>
      <trkpt lat="47.65819" lon="6.22224">
        <ele>294.3</ele>
        <time>2022-03-04T14:48:12Z</time>
      </trkpt>
      <trkpt lat="47.6582" lon="6.22212">
        <ele>294.3</ele>
        <time>2022-03-04T14:48:14Z</time>
      </trkpt>
      <trkpt lat="47.6582" lon="6.22205">
        <ele>294.3</ele>
        <time>2022-03-04T14:48:14Z</time>
      </trkpt>
      <trkpt lat="47.65821" lon="6.22196">
        <ele>294.2</ele>
        <time>2022-03-04T14:48:17Z</time>
      </trkpt>
      <trkpt lat="47.65823" lon="6.22189">
        <ele>293.8</ele>
        <time>2022-03-04T14:48:18Z</time>
      </trkpt>
      <trkpt lat="47.65824" lon="6.22183">
        <ele>293.4</ele>
        <time>2022-03-04T14:48:19Z</time>
      </trkpt>
      <trkpt lat="47.65826" lon="6.22175">
        <ele>292.7</ele>
        <time>2022-03-04T14:48:20Z</time>
      </trkpt>
      <trkpt lat="47.65829" lon="6.22168">
        <ele>291.8</ele>
        <time>2022-03-04T14:48:22Z</time>
      </trkpt>
      <trkpt lat="47.65832" lon="6.22161">
        <ele>290.9</ele>
        <time>2022-03-04T14:48:23Z</time>
      </trkpt>
      <trkpt lat="47.65837" lon="6.22149">
        <ele>290.1</ele>
        <time>2022-03-04T14:48:24Z</time>
      </trkpt>
      <trkpt lat="47.6584" lon="6.22142">
        <ele>289.6</ele>
        <time>2022-03-04T14:48:27Z</time>
      </trkpt>
      <trkpt lat="47.65843" lon="6.22134">
        <ele>289.3</ele>
        <time>2022-03-04T14:48:28Z</time>
      </trkpt>
      <trkpt lat="47.65845" lon="6.22126">
        <ele>289.1</ele>
        <time>2022-03-04T14:48:28Z</time>
      </trkpt>
      <trkpt lat="47.65846" lon="6.22118">
        <ele>289.1</ele>
        <time>2022-03-04T14:48:30Z</time>
      </trkpt>
      <trkpt lat="47.65847" lon="6.2211">
        <ele>289.1</ele>
        <time>2022-03-04T14:48:32Z</time>
      </trkpt>
      <trkpt lat="47.65849" lon="6.22102">
        <ele>289.1</ele>
        <time>2022-03-04T14:48:33Z</time>
      </trkpt>
      <trkpt lat="47.6585" lon="6.22094">
        <ele>289.2</ele>
        <time>2022-03-04T14:48:33Z</time>
      </trkpt>
      <trkpt lat="47.65851" lon="6.22087">
        <ele>289.3</ele>
        <time>2022-03-04T14:48:35Z</time>
      </trkpt>
      <trkpt lat="47.65853" lon="6.22073">
        <ele>289.1</ele>
        <time>2022-03-04T14:48:36Z</time>
      </trkpt>
      <trkpt lat="47.65856" lon="6.2206">
        <ele>288.6</ele>
        <time>2022-03-04T14:48:38Z</time>
      </trkpt>
      <trkpt lat="47.65857" lon="6.22052">
        <ele>288.5</ele>
        <time>2022-03-04T14:48:41Z</time>
      </trkpt>
      <trkpt lat="47.65858" lon="6.22044">
        <ele>288.4</ele>
        <time>2022-03-04T14:48:42Z</time>
      </trkpt>
      <trkpt lat="47.65858" lon="6.22037">
        <ele>288.5</ele>
        <time>2022-03-04T14:48:43Z</time>
      </trkpt>
      <trkpt lat="47.6586" lon="6.22028">
        <ele>288.4</ele>
        <time>2022-03-04T14:48:43Z</time>
      </trkpt>
      <trkpt lat="47.65861" lon="6.22017">
        <ele>287.9</ele>
        <time>2022-03-04T14:48:45Z</time>
      </trkpt>
      <trkpt lat="47.65864" lon="6.22009">
        <ele>287.4</ele>
        <time>2022-03-04T14:48:48Z</time>
      </trkpt>
      <trkpt lat="47.65867" lon="6.21998">
        <ele>286.8</ele>
        <time>2022-03-04T14:48:49Z</time>
      </trkpt>
      <trkpt lat="47.65868" lon="6.2199">
        <ele>286.6</ele>
        <time>2022-03-04T14:48:52Z</time>
      </trkpt>
      <trkpt lat="47.6587" lon="6.21983">
        <ele>286.3</ele>
        <time>2022-03-04T14:48:53Z</time>
      </trkpt>
      <trkpt lat="47.65871" lon="6.21976">
        <ele>286.1</ele>
        <time>2022-03-04T14:48:54Z</time>
      </trkpt>
      <trkpt lat="47.65872" lon="6.21969">
        <ele>286</ele>
        <time>2022-03-04T14:48:55Z</time>
      </trkpt>
      <trkpt lat="47.65874" lon="6.21959">
        <ele>285.9</ele>
        <time>2022-03-04T14:48:57Z</time>
      </trkpt>
      <trkpt lat="47.65875" lon="6.21951">
        <ele>285.8</ele>
        <time>2022-03-04T14:48:58Z</time>
      </trkpt>
      <trkpt lat="47.65877" lon="6.2194">
        <ele>285.9</ele>
        <time>2022-03-04T14:48:59Z</time>
      </trkpt>
      <trkpt lat="47.65878" lon="6.21931">
        <ele>286.1</ele>
        <time>2022-03-04T14:49:00Z</time>
      </trkpt>
      <trkpt lat="47.65879" lon="6.21923">
        <ele>286.2</ele>
        <time>2022-03-04T14:49:01Z</time>
      </trkpt>
      <trkpt lat="47.65881" lon="6.21911">
        <ele>286.3</ele>
        <time>2022-03-04T14:49:03Z</time>
      </trkpt>
      <trkpt lat="47.65882" lon="6.21904">
        <ele>286.2</ele>
        <time>2022-03-04T14:49:04Z</time>
      </trkpt>
      <trkpt lat="47.65883" lon="6.21895">
        <ele>286</ele>
        <time>2022-03-04T14:49:05Z</time>
      </trkpt>
      <trkpt lat="47.65885" lon="6.21886">
        <ele>285.8</ele>
        <time>2022-03-04T14:49:07Z</time>
      </trkpt>
      <trkpt lat="47.65886" lon="6.21878">
        <ele>285.6</ele>
        <time>2022-03-04T14:49:08Z</time>
      </trkpt>
      <trkpt lat="47.65887" lon="6.21868">
        <ele>285.3</ele>
        <time>2022-03-04T14:49:08Z</time>
      </trkpt>
      <trkpt lat="47.65889" lon="6.21862">
        <ele>285.1</ele>
        <time>2022-03-04T14:49:10Z</time>
      </trkpt>
      <trkpt lat="47.6589" lon="6.21853">
        <ele>284.5</ele>
        <time>2022-03-04T14:49:11Z</time>
      </trkpt>
      <trkpt lat="47.65892" lon="6.21844">
        <ele>284</ele>
        <time>2022-03-04T14:49:13Z</time>
      </trkpt>
      <trkpt lat="47.65894" lon="6.21834">
        <ele>283.5</ele>
        <time>2022-03-04T14:49:14Z</time>
      </trkpt>
      <trkpt lat="47.65899" lon="6.21824">
        <ele>282.8</ele>
        <time>2022-03-04T14:49:16Z</time>
      </trkpt>
      <trkpt lat="47.65904" lon="6.21817">
        <ele>282.1</ele>
        <time>2022-03-04T14:49:17Z</time>
      </trkpt>
      <trkpt lat="47.65912" lon="6.21806">
        <ele>280.6</ele>
        <time>2022-03-04T14:49:17Z</time>
      </trkpt>
      <trkpt lat="47.65919" lon="6.218">
        <ele>279.8</ele>
        <time>2022-03-04T14:49:18Z</time>
      </trkpt>
      <trkpt lat="47.65925" lon="6.21795">
        <ele>279.1</ele>
        <time>2022-03-04T14:49:19Z</time>
      </trkpt>
      <trkpt lat="47.65931" lon="6.21791">
        <ele>278.5</ele>
        <time>2022-03-04T14:49:20Z</time>
      </trkpt>
      <trkpt lat="47.65935" lon="6.21787">
        <ele>278</ele>
        <time>2022-03-04T14:49:21Z</time>
      </trkpt>
      <trkpt lat="47.6594" lon="6.21784">
        <ele>277.5</ele>
        <time>2022-03-04T14:49:22Z</time>
      </trkpt>
      <trkpt lat="47.65944" lon="6.2178">
        <ele>277.1</ele>
        <time>2022-03-04T14:49:23Z</time>
      </trkpt>
      <trkpt lat="47.65948" lon="6.21778">
        <ele>276.7</ele>
        <time>2022-03-04T14:49:25Z</time>
      </trkpt>
      <trkpt lat="47.65952" lon="6.21769">
        <ele>276.8</ele>
        <time>2022-03-04T14:49:28Z</time>
      </trkpt>
      <trkpt lat="47.65959" lon="6.2176">
        <ele>276.6</ele>
        <time>2022-03-04T14:49:28Z</time>
      </trkpt>
      <trkpt lat="47.65964" lon="6.21757">
        <ele>276.3</ele>
        <time>2022-03-04T14:49:29Z</time>
      </trkpt>
      <trkpt lat="47.6597" lon="6.21756">
        <ele>275.9</ele>
        <time>2022-03-04T14:49:30Z</time>
      </trkpt>
      <trkpt lat="47.65976" lon="6.21755">
        <ele>275.5</ele>
        <time>2022-03-04T14:49:31Z</time>
      </trkpt>
      <trkpt lat="47.65982" lon="6.21754">
        <ele>275.1</ele>
        <time>2022-03-04T14:49:32Z</time>
      </trkpt>
      <trkpt lat="47.65988" lon="6.21752">
        <ele>274.7</ele>
        <time>2022-03-04T14:49:33Z</time>
      </trkpt>
      <trkpt lat="47.65994" lon="6.21751">
        <ele>274.3</ele>
        <time>2022-03-04T14:49:34Z</time>
      </trkpt>
      <trkpt lat="47.66" lon="6.21751">
        <ele>273.9</ele>
        <time>2022-03-04T14:49:35Z</time>
      </trkpt>
      <trkpt lat="47.66007" lon="6.21752">
        <ele>273.4</ele>
        <time>2022-03-04T14:49:36Z</time>
      </trkpt>
      <trkpt lat="47.66014" lon="6.21753">
        <ele>272.8</ele>
        <time>2022-03-04T14:49:37Z</time>
      </trkpt>
      <trkpt lat="47.66021" lon="6.21755">
        <ele>272.1</ele>
        <time>2022-03-04T14:49:38Z</time>
      </trkpt>
      <trkpt lat="47.66029" lon="6.2176">
        <ele>271.2</ele>
        <time>2022-03-04T14:49:39Z</time>
      </trkpt>
      <trkpt lat="47.66036" lon="6.21768">
        <ele>270.5</ele>
        <time>2022-03-04T14:49:40Z</time>
      </trkpt>
      <trkpt lat="47.66042" lon="6.21776">
        <ele>269.6</ele>
        <time>2022-03-04T14:49:41Z</time>
      </trkpt>
      <trkpt lat="47.66049" lon="6.21786">
        <ele>268.6</ele>
        <time>2022-03-04T14:49:42Z</time>
      </trkpt>
      <trkpt lat="47.66055" lon="6.21796">
        <ele>267.7</ele>
        <time>2022-03-04T14:49:43Z</time>
      </trkpt>
      <trkpt lat="47.66062" lon="6.21807">
        <ele>266.8</ele>
        <time>2022-03-04T14:49:44Z</time>
      </trkpt>
      <trkpt lat="47.66069" lon="6.21818">
        <ele>265.4</ele>
        <time>2022-03-04T14:49:45Z</time>
      </trkpt>
      <trkpt lat="47.66077" lon="6.21828">
        <ele>264.4</ele>
        <time>2022-03-04T14:49:46Z</time>
      </trkpt>
      <trkpt lat="47.66085" lon="6.21838">
        <ele>263.3</ele>
        <time>2022-03-04T14:49:47Z</time>
      </trkpt>
      <trkpt lat="47.66093" lon="6.21848">
        <ele>262</ele>
        <time>2022-03-04T14:49:48Z</time>
      </trkpt>
      <trkpt lat="47.661" lon="6.21858">
        <ele>261</ele>
        <time>2022-03-04T14:49:49Z</time>
      </trkpt>
      <trkpt lat="47.66107" lon="6.21867">
        <ele>260</ele>
        <time>2022-03-04T14:49:50Z</time>
      </trkpt>
      <trkpt lat="47.66113" lon="6.21876">
        <ele>258.9</ele>
        <time>2022-03-04T14:49:51Z</time>
      </trkpt>
      <trkpt lat="47.6612" lon="6.21885">
        <ele>257.6</ele>
        <time>2022-03-04T14:49:52Z</time>
      </trkpt>
      <trkpt lat="47.66127" lon="6.21894">
        <ele>256.4</ele>
        <time>2022-03-04T14:49:53Z</time>
      </trkpt>
      <trkpt lat="47.66134" lon="6.21902">
        <ele>255.4</ele>
        <time>2022-03-04T14:49:54Z</time>
      </trkpt>
      <trkpt lat="47.66141" lon="6.21911">
        <ele>254.6</ele>
        <time>2022-03-04T14:49:55Z</time>
      </trkpt>
      <trkpt lat="47.66147" lon="6.2192">
        <ele>253.9</ele>
        <time>2022-03-04T14:49:56Z</time>
      </trkpt>
      <trkpt lat="47.66154" lon="6.21929">
        <ele>253.2</ele>
        <time>2022-03-04T14:49:57Z</time>
      </trkpt>
      <trkpt lat="47.66161" lon="6.21937">
        <ele>252.6</ele>
        <time>2022-03-04T14:49:58Z</time>
      </trkpt>
      <trkpt lat="47.66169" lon="6.21945">
        <ele>251.7</ele>
        <time>2022-03-04T14:49:59Z</time>
      </trkpt>
      <trkpt lat="47.66176" lon="6.21952">
        <ele>250.3</ele>
        <time>2022-03-04T14:50:00Z</time>
      </trkpt>
      <trkpt lat="47.66184" lon="6.21955">
        <ele>249.5</ele>
        <time>2022-03-04T14:50:01Z</time>
      </trkpt>
      <trkpt lat="47.66192" lon="6.21956">
        <ele>249</ele>
        <time>2022-03-04T14:50:02Z</time>
      </trkpt>
      <trkpt lat="47.66199" lon="6.21955">
        <ele>248.1</ele>
        <time>2022-03-04T14:50:03Z</time>
      </trkpt>
      <trkpt lat="47.66207" lon="6.21952">
        <ele>247.2</ele>
        <time>2022-03-04T14:50:04Z</time>
      </trkpt>
      <trkpt lat="47.66214" lon="6.21947">
        <ele>246.3</ele>
        <time>2022-03-04T14:50:05Z</time>
      </trkpt>
      <trkpt lat="47.66221" lon="6.21942">
        <ele>245.5</ele>
        <time>2022-03-04T14:50:06Z</time>
      </trkpt>
      <trkpt lat="47.66227" lon="6.21935">
        <ele>245</ele>
        <time>2022-03-04T14:50:07Z</time>
      </trkpt>
      <trkpt lat="47.66233" lon="6.21929">
        <ele>244.4</ele>
        <time>2022-03-04T14:50:08Z</time>
      </trkpt>
      <trkpt lat="47.66238" lon="6.21922">
        <ele>243.8</ele>
        <time>2022-03-04T14:50:09Z</time>
      </trkpt>
      <trkpt lat="47.66244" lon="6.21915">
        <ele>243.3</ele>
        <time>2022-03-04T14:50:10Z</time>
      </trkpt>
      <trkpt lat="47.66249" lon="6.21908">
        <ele>242.8</ele>
        <time>2022-03-04T14:50:11Z</time>
      </trkpt>
      <trkpt lat="47.66254" lon="6.21901">
        <ele>242.9</ele>
        <time>2022-03-04T14:50:12Z</time>
      </trkpt>
      <trkpt lat="47.66259" lon="6.21895">
        <ele>242.5</ele>
        <time>2022-03-04T14:50:13Z</time>
      </trkpt>
      <trkpt lat="47.66264" lon="6.2189">
        <ele>241.6</ele>
        <time>2022-03-04T14:50:14Z</time>
      </trkpt>
      <trkpt lat="47.66268" lon="6.21885">
        <ele>240.7</ele>
        <time>2022-03-04T14:50:15Z</time>
      </trkpt>
      <trkpt lat="47.66272" lon="6.21881">
        <ele>239.8</ele>
        <time>2022-03-04T14:50:16Z</time>
      </trkpt>
      <trkpt lat="47.66279" lon="6.21873">
        <ele>238.3</ele>
        <time>2022-03-04T14:50:18Z</time>
      </trkpt>
      <trkpt lat="47.66283" lon="6.21864">
        <ele>237.6</ele>
        <time>2022-03-04T14:50:20Z</time>
      </trkpt>
      <trkpt lat="47.66283" lon="6.21851">
        <ele>237.5</ele>
        <time>2022-03-04T14:50:22Z</time>
      </trkpt>
      <trkpt lat="47.66283" lon="6.21843">
        <ele>237.5</ele>
        <time>2022-03-04T14:50:23Z</time>
      </trkpt>
      <trkpt lat="47.66285" lon="6.21831">
        <ele>237.5</ele>
        <time>2022-03-04T14:50:25Z</time>
      </trkpt>
      <trkpt lat="47.6629" lon="6.21828">
        <ele>237.1</ele>
        <time>2022-03-04T14:50:28Z</time>
      </trkpt>
      <trkpt lat="47.66291" lon="6.2182">
        <ele>236.8</ele>
        <time>2022-03-04T14:50:36Z</time>
      </trkpt>
      <trkpt lat="47.66295" lon="6.21813">
        <ele>236.3</ele>
        <time>2022-03-04T14:50:38Z</time>
      </trkpt>
      <trkpt lat="47.66299" lon="6.21806">
        <ele>235.7</ele>
        <time>2022-03-04T14:50:39Z</time>
      </trkpt>
      <trkpt lat="47.66302" lon="6.218">
        <ele>235.4</ele>
        <time>2022-03-04T14:50:39Z</time>
      </trkpt>
      <trkpt lat="47.66306" lon="6.21792">
        <ele>234.9</ele>
        <time>2022-03-04T14:50:42Z</time>
      </trkpt>
      <trkpt lat="47.66312" lon="6.21778">
        <ele>234.3</ele>
        <time>2022-03-04T14:50:42Z</time>
      </trkpt>
      <trkpt lat="47.66315" lon="6.21771">
        <ele>234</ele>
        <time>2022-03-04T14:50:43Z</time>
      </trkpt>
      <trkpt lat="47.66317" lon="6.21763">
        <ele>233.7</ele>
        <time>2022-03-04T14:50:44Z</time>
      </trkpt>
      <trkpt lat="47.6632" lon="6.21755">
        <ele>233.5</ele>
        <time>2022-03-04T14:50:45Z</time>
      </trkpt>
      <trkpt lat="47.66322" lon="6.21747">
        <ele>233.3</ele>
        <time>2022-03-04T14:50:46Z</time>
      </trkpt>
      <trkpt lat="47.66324" lon="6.21738">
        <ele>233.2</ele>
        <time>2022-03-04T14:50:47Z</time>
      </trkpt>
      <trkpt lat="47.66325" lon="6.21729">
        <ele>233.1</ele>
        <time>2022-03-04T14:50:48Z</time>
      </trkpt>
      <trkpt lat="47.66326" lon="6.2172">
        <ele>233.1</ele>
        <time>2022-03-04T14:50:49Z</time>
      </trkpt>
      <trkpt lat="47.66327" lon="6.21711">
        <ele>233.2</ele>
        <time>2022-03-04T14:50:50Z</time>
      </trkpt>
      <trkpt lat="47.66328" lon="6.21701">
        <ele>233.4</ele>
        <time>2022-03-04T14:50:51Z</time>
      </trkpt>
      <trkpt lat="47.66329" lon="6.21692">
        <ele>233.5</ele>
        <time>2022-03-04T14:50:52Z</time>
      </trkpt>
      <trkpt lat="47.66329" lon="6.21683">
        <ele>233.5</ele>
        <time>2022-03-04T14:50:53Z</time>
      </trkpt>
      <trkpt lat="47.66329" lon="6.21675">
        <ele>233.5</ele>
        <time>2022-03-04T14:50:54Z</time>
      </trkpt>
      <trkpt lat="47.66328" lon="6.21666">
        <ele>233.5</ele>
        <time>2022-03-04T14:50:55Z</time>
      </trkpt>
      <trkpt lat="47.66328" lon="6.21658">
        <ele>233.3</ele>
        <time>2022-03-04T14:50:56Z</time>
      </trkpt>
      <trkpt lat="47.66327" lon="6.2165">
        <ele>233.1</ele>
        <time>2022-03-04T14:50:57Z</time>
      </trkpt>
      <trkpt lat="47.66326" lon="6.21641">
        <ele>232.9</ele>
        <time>2022-03-04T14:50:58Z</time>
      </trkpt>
      <trkpt lat="47.66325" lon="6.21632">
        <ele>232.6</ele>
        <time>2022-03-04T14:50:59Z</time>
      </trkpt>
      <trkpt lat="47.66324" lon="6.21624">
        <ele>232.3</ele>
        <time>2022-03-04T14:51:00Z</time>
      </trkpt>
      <trkpt lat="47.66322" lon="6.21617">
        <ele>232.1</ele>
        <time>2022-03-04T14:51:01Z</time>
      </trkpt>
      <trkpt lat="47.66321" lon="6.21609">
        <ele>231.8</ele>
        <time>2022-03-04T14:51:02Z</time>
      </trkpt>
      <trkpt lat="47.66319" lon="6.21601">
        <ele>231.7</ele>
        <time>2022-03-04T14:51:03Z</time>
      </trkpt>
      <trkpt lat="47.66317" lon="6.21592">
        <ele>231.4</ele>
        <time>2022-03-04T14:51:04Z</time>
      </trkpt>
      <trkpt lat="47.66315" lon="6.21583">
        <ele>231</ele>
        <time>2022-03-04T14:51:05Z</time>
      </trkpt>
      <trkpt lat="47.66313" lon="6.21573">
        <ele>230.6</ele>
        <time>2022-03-04T14:51:06Z</time>
      </trkpt>
      <trkpt lat="47.66311" lon="6.21563">
        <ele>230.3</ele>
        <time>2022-03-04T14:51:07Z</time>
      </trkpt>
      <trkpt lat="47.66309" lon="6.21553">
        <ele>229.9</ele>
        <time>2022-03-04T14:51:08Z</time>
      </trkpt>
      <trkpt lat="47.66307" lon="6.21543">
        <ele>229.5</ele>
        <time>2022-03-04T14:51:09Z</time>
      </trkpt>
      <trkpt lat="47.66306" lon="6.21533">
        <ele>229.2</ele>
        <time>2022-03-04T14:51:10Z</time>
      </trkpt>
      <trkpt lat="47.66305" lon="6.21524">
        <ele>229.1</ele>
        <time>2022-03-04T14:51:11Z</time>
      </trkpt>
      <trkpt lat="47.66304" lon="6.21515">
        <ele>229.2</ele>
        <time>2022-03-04T14:51:12Z</time>
      </trkpt>
      <trkpt lat="47.66303" lon="6.21507">
        <ele>229.2</ele>
        <time>2022-03-04T14:51:13Z</time>
      </trkpt>
      <trkpt lat="47.66303" lon="6.21498">
        <ele>229.1</ele>
        <time>2022-03-04T14:51:14Z</time>
      </trkpt>
      <trkpt lat="47.66304" lon="6.2149">
        <ele>228.7</ele>
        <time>2022-03-04T14:51:15Z</time>
      </trkpt>
      <trkpt lat="47.66306" lon="6.21481">
        <ele>228.3</ele>
        <time>2022-03-04T14:51:16Z</time>
      </trkpt>
      <trkpt lat="47.66307" lon="6.21471">
        <ele>228</ele>
        <time>2022-03-04T14:51:17Z</time>
      </trkpt>
      <trkpt lat="47.66309" lon="6.21462">
        <ele>228</ele>
        <time>2022-03-04T14:51:18Z</time>
      </trkpt>
      <trkpt lat="47.6631" lon="6.21454">
        <ele>228</ele>
        <time>2022-03-04T14:51:19Z</time>
      </trkpt>
      <trkpt lat="47.66311" lon="6.21445">
        <ele>228</ele>
        <time>2022-03-04T14:51:20Z</time>
      </trkpt>
      <trkpt lat="47.66311" lon="6.21437">
        <ele>227.9</ele>
        <time>2022-03-04T14:51:21Z</time>
      </trkpt>
      <trkpt lat="47.66311" lon="6.21429">
        <ele>227.9</ele>
        <time>2022-03-04T14:51:22Z</time>
      </trkpt>
      <trkpt lat="47.66311" lon="6.21422">
        <ele>227.8</ele>
        <time>2022-03-04T14:51:23Z</time>
      </trkpt>
      <trkpt lat="47.66312" lon="6.21415">
        <ele>227.8</ele>
        <time>2022-03-04T14:51:24Z</time>
      </trkpt>
      <trkpt lat="47.66312" lon="6.21408">
        <ele>227.8</ele>
        <time>2022-03-04T14:51:25Z</time>
      </trkpt>
      <trkpt lat="47.66313" lon="6.21401">
        <ele>227.7</ele>
        <time>2022-03-04T14:51:26Z</time>
      </trkpt>
      <trkpt lat="47.66315" lon="6.21392">
        <ele>227.7</ele>
        <time>2022-03-04T14:51:28Z</time>
      </trkpt>
      <trkpt lat="47.66318" lon="6.21384">
        <ele>227.5</ele>
        <time>2022-03-04T14:51:30Z</time>
      </trkpt>
      <trkpt lat="47.66321" lon="6.21378">
        <ele>227.5</ele>
        <time>2022-03-04T14:51:32Z</time>
      </trkpt>
      <trkpt lat="47.66323" lon="6.21371">
        <ele>227.5</ele>
        <time>2022-03-04T14:51:35Z</time>
      </trkpt>
      <trkpt lat="47.66325" lon="6.21363">
        <ele>227.7</ele>
        <time>2022-03-04T14:51:37Z</time>
      </trkpt>
      <trkpt lat="47.66328" lon="6.21352">
        <ele>227.8</ele>
        <time>2022-03-04T14:51:39Z</time>
      </trkpt>
      <trkpt lat="47.6633" lon="6.21345">
        <ele>227.9</ele>
        <time>2022-03-04T14:51:40Z</time>
      </trkpt>
      <trkpt lat="47.66332" lon="6.21338">
        <ele>227.9</ele>
        <time>2022-03-04T14:51:40Z</time>
      </trkpt>
      <trkpt lat="47.66335" lon="6.21326">
        <ele>228</ele>
        <time>2022-03-04T14:51:42Z</time>
      </trkpt>
      <trkpt lat="47.66337" lon="6.21318">
        <ele>228</ele>
        <time>2022-03-04T14:51:44Z</time>
      </trkpt>
      <trkpt lat="47.66339" lon="6.21309">
        <ele>228</ele>
        <time>2022-03-04T14:51:48Z</time>
      </trkpt>
      <trkpt lat="47.6634" lon="6.21301">
        <ele>228</ele>
        <time>2022-03-04T14:51:50Z</time>
      </trkpt>
      <trkpt lat="47.66342" lon="6.21294">
        <ele>228</ele>
        <time>2022-03-04T14:51:52Z</time>
      </trkpt>
      <trkpt lat="47.66346" lon="6.21286">
        <ele>228</ele>
        <time>2022-03-04T14:51:54Z</time>
      </trkpt>
      <trkpt lat="47.66348" lon="6.21275">
        <ele>228</ele>
        <time>2022-03-04T14:51:56Z</time>
      </trkpt>
      <trkpt lat="47.66351" lon="6.21264">
        <ele>228</ele>
        <time>2022-03-04T14:51:57Z</time>
      </trkpt>
      <trkpt lat="47.66354" lon="6.21258">
        <ele>228</ele>
        <time>2022-03-04T14:52:00Z</time>
      </trkpt>
      <trkpt lat="47.66356" lon="6.21252">
        <ele>228</ele>
        <time>2022-03-04T14:52:01Z</time>
      </trkpt>
      <trkpt lat="47.66359" lon="6.21245">
        <ele>228</ele>
        <time>2022-03-04T14:52:02Z</time>
      </trkpt>
      <trkpt lat="47.66362" lon="6.2124">
        <ele>228</ele>
        <time>2022-03-04T14:52:02Z</time>
      </trkpt>
      <trkpt lat="47.66365" lon="6.21231">
        <ele>228.2</ele>
        <time>2022-03-04T14:52:05Z</time>
      </trkpt>
      <trkpt lat="47.66369" lon="6.21223">
        <ele>228.3</ele>
        <time>2022-03-04T14:52:07Z</time>
      </trkpt>
      <trkpt lat="47.66373" lon="6.21215">
        <ele>228.6</ele>
        <time>2022-03-04T14:52:09Z</time>
      </trkpt>
      <trkpt lat="47.66378" lon="6.21205">
        <ele>228.9</ele>
        <time>2022-03-04T14:52:10Z</time>
      </trkpt>
      <trkpt lat="47.66381" lon="6.21198">
        <ele>229</ele>
        <time>2022-03-04T14:52:12Z</time>
      </trkpt>
      <trkpt lat="47.66384" lon="6.21192">
        <ele>229.1</ele>
        <time>2022-03-04T14:52:14Z</time>
      </trkpt>
      <trkpt lat="47.66386" lon="6.21185">
        <ele>229.4</ele>
        <time>2022-03-04T14:52:16Z</time>
      </trkpt>
      <trkpt lat="47.66389" lon="6.21178">
        <ele>229.6</ele>
        <time>2022-03-04T14:52:18Z</time>
      </trkpt>
      <trkpt lat="47.66392" lon="6.21172">
        <ele>230</ele>
        <time>2022-03-04T14:52:20Z</time>
      </trkpt>
      <trkpt lat="47.66395" lon="6.21166">
        <ele>230.4</ele>
        <time>2022-03-04T14:52:23Z</time>
      </trkpt>
      <trkpt lat="47.66398" lon="6.2116">
        <ele>230.9</ele>
        <time>2022-03-04T14:52:26Z</time>
      </trkpt>
      <trkpt lat="47.66401" lon="6.21152">
        <ele>231.4</ele>
        <time>2022-03-04T14:52:29Z</time>
      </trkpt>
      <trkpt lat="47.66402" lon="6.21144">
        <ele>231.8</ele>
        <time>2022-03-04T14:52:33Z</time>
      </trkpt>
      <trkpt lat="47.66403" lon="6.21137">
        <ele>232.1</ele>
        <time>2022-03-04T14:52:36Z</time>
      </trkpt>
      <trkpt lat="47.66403" lon="6.21129">
        <ele>232.5</ele>
        <time>2022-03-04T14:52:39Z</time>
      </trkpt>
      <trkpt lat="47.66402" lon="6.21122">
        <ele>232.9</ele>
        <time>2022-03-04T14:52:42Z</time>
      </trkpt>
      <trkpt lat="47.66402" lon="6.21113">
        <ele>233.4</ele>
        <time>2022-03-04T14:52:45Z</time>
      </trkpt>
      <trkpt lat="47.66402" lon="6.21105">
        <ele>233.8</ele>
        <time>2022-03-04T14:52:48Z</time>
      </trkpt>
      <trkpt lat="47.66402" lon="6.21097">
        <ele>234.2</ele>
        <time>2022-03-04T14:52:51Z</time>
      </trkpt>
      <trkpt lat="47.66402" lon="6.21089">
        <ele>234.6</ele>
        <time>2022-03-04T14:52:54Z</time>
      </trkpt>
      <trkpt lat="47.66401" lon="6.2108">
        <ele>235</ele>
        <time>2022-03-04T14:52:57Z</time>
      </trkpt>
      <trkpt lat="47.66401" lon="6.21072">
        <ele>235.4</ele>
        <time>2022-03-04T14:53:00Z</time>
      </trkpt>
      <trkpt lat="47.664" lon="6.21065">
        <ele>235.7</ele>
        <time>2022-03-04T14:53:03Z</time>
      </trkpt>
      <trkpt lat="47.66399" lon="6.21058">
        <ele>236</ele>
        <time>2022-03-04T14:53:07Z</time>
      </trkpt>
      <trkpt lat="47.66399" lon="6.2105">
        <ele>236.4</ele>
        <time>2022-03-04T14:53:10Z</time>
      </trkpt>
      <trkpt lat="47.66399" lon="6.21041">
        <ele>236.9</ele>
        <time>2022-03-04T14:53:14Z</time>
      </trkpt>
      <trkpt lat="47.66398" lon="6.21033">
        <ele>237.1</ele>
        <time>2022-03-04T14:53:17Z</time>
      </trkpt>
      <trkpt lat="47.66398" lon="6.21026">
        <ele>237.3</ele>
        <time>2022-03-04T14:53:20Z</time>
      </trkpt>
      <trkpt lat="47.66397" lon="6.21019">
        <ele>237.6</ele>
        <time>2022-03-04T14:53:23Z</time>
      </trkpt>
      <trkpt lat="47.66398" lon="6.21011">
        <ele>237.9</ele>
        <time>2022-03-04T14:53:27Z</time>
      </trkpt>
      <trkpt lat="47.66397" lon="6.21003">
        <ele>238</ele>
        <time>2022-03-04T14:53:31Z</time>
      </trkpt>
      <trkpt lat="47.66396" lon="6.20995">
        <ele>238.2</ele>
        <time>2022-03-04T14:53:35Z</time>
      </trkpt>
      <trkpt lat="47.66395" lon="6.20987">
        <ele>238.4</ele>
        <time>2022-03-04T14:53:39Z</time>
      </trkpt>
      <trkpt lat="47.66395" lon="6.2098">
        <ele>238.7</ele>
        <time>2022-03-04T14:53:42Z</time>
      </trkpt>
      <trkpt lat="47.66396" lon="6.20972">
        <ele>239.1</ele>
        <time>2022-03-04T14:53:45Z</time>
      </trkpt>
      <trkpt lat="47.66398" lon="6.20965">
        <ele>239.7</ele>
        <time>2022-03-04T14:53:49Z</time>
      </trkpt>
      <trkpt lat="47.664" lon="6.20957">
        <ele>240.5</ele>
        <time>2022-03-04T14:53:54Z</time>
      </trkpt>
      <trkpt lat="47.66402" lon="6.2095">
        <ele>241.1</ele>
        <time>2022-03-04T14:53:56Z</time>
      </trkpt>
      <trkpt lat="47.66402" lon="6.20943">
        <ele>241.4</ele>
        <time>2022-03-04T14:53:59Z</time>
      </trkpt>
      <trkpt lat="47.66401" lon="6.20936">
        <ele>241.6</ele>
        <time>2022-03-04T14:54:02Z</time>
      </trkpt>
      <trkpt lat="47.66399" lon="6.20929">
        <ele>241.7</ele>
        <time>2022-03-04T14:54:06Z</time>
      </trkpt>
      <trkpt lat="47.66398" lon="6.20922">
        <ele>241.8</ele>
        <time>2022-03-04T14:54:11Z</time>
      </trkpt>
      <trkpt lat="47.66398" lon="6.20915">
        <ele>242.1</ele>
        <time>2022-03-04T14:54:14Z</time>
      </trkpt>
      <trkpt lat="47.66398" lon="6.20907">
        <ele>242.6</ele>
        <time>2022-03-04T14:54:17Z</time>
      </trkpt>
      <trkpt lat="47.66397" lon="6.20897">
        <ele>243.1</ele>
        <time>2022-03-04T14:54:20Z</time>
      </trkpt>
      <trkpt lat="47.66395" lon="6.2089">
        <ele>243.4</ele>
        <time>2022-03-04T14:54:23Z</time>
      </trkpt>
      <trkpt lat="47.66393" lon="6.20882">
        <ele>243.3</ele>
        <time>2022-03-04T14:54:26Z</time>
      </trkpt>
      <trkpt lat="47.66391" lon="6.20876">
        <ele>243.2</ele>
        <time>2022-03-04T14:54:28Z</time>
      </trkpt>
      <trkpt lat="47.6639" lon="6.20868">
        <ele>243.1</ele>
        <time>2022-03-04T14:54:30Z</time>
      </trkpt>
      <trkpt lat="47.66388" lon="6.20859">
        <ele>242.9</ele>
        <time>2022-03-04T14:54:32Z</time>
      </trkpt>
      <trkpt lat="47.66387" lon="6.2085">
        <ele>242.8</ele>
        <time>2022-03-04T14:54:34Z</time>
      </trkpt>
      <trkpt lat="47.66386" lon="6.20838">
        <ele>242.9</ele>
        <time>2022-03-04T14:54:37Z</time>
      </trkpt>
      <trkpt lat="47.66385" lon="6.2083">
        <ele>243</ele>
        <time>2022-03-04T14:54:39Z</time>
      </trkpt>
      <trkpt lat="47.66383" lon="6.20824">
        <ele>243.4</ele>
        <time>2022-03-04T14:54:41Z</time>
      </trkpt>
      <trkpt lat="47.66382" lon="6.20817">
        <ele>243.8</ele>
        <time>2022-03-04T14:54:44Z</time>
      </trkpt>
      <trkpt lat="47.6638" lon="6.2081">
        <ele>244.1</ele>
        <time>2022-03-04T14:54:46Z</time>
      </trkpt>
      <trkpt lat="47.66376" lon="6.20805">
        <ele>244.1</ele>
        <time>2022-03-04T14:54:49Z</time>
      </trkpt>
      <trkpt lat="47.66372" lon="6.208">
        <ele>244.1</ele>
        <time>2022-03-04T14:54:51Z</time>
      </trkpt>
      <trkpt lat="47.66369" lon="6.20795">
        <ele>244.1</ele>
        <time>2022-03-04T14:54:53Z</time>
      </trkpt>
      <trkpt lat="47.66367" lon="6.20789">
        <ele>244.2</ele>
        <time>2022-03-04T14:54:56Z</time>
      </trkpt>
      <trkpt lat="47.66365" lon="6.20781">
        <ele>244.3</ele>
        <time>2022-03-04T14:54:59Z</time>
      </trkpt>
      <trkpt lat="47.66364" lon="6.20773">
        <ele>244.5</ele>
        <time>2022-03-04T14:55:02Z</time>
      </trkpt>
      <trkpt lat="47.66362" lon="6.20767">
        <ele>244.5</ele>
        <time>2022-03-04T14:55:04Z</time>
      </trkpt>
      <trkpt lat="47.6636" lon="6.20758">
        <ele>244.6</ele>
        <time>2022-03-04T14:55:07Z</time>
      </trkpt>
      <trkpt lat="47.66358" lon="6.2075">
        <ele>244.8</ele>
        <time>2022-03-04T14:55:10Z</time>
      </trkpt>
      <trkpt lat="47.66353" lon="6.20746">
        <ele>245</ele>
        <time>2022-03-04T14:55:13Z</time>
      </trkpt>
      <trkpt lat="47.66348" lon="6.20743">
        <ele>245.2</ele>
        <time>2022-03-04T14:55:16Z</time>
      </trkpt>
      <trkpt lat="47.66342" lon="6.20739">
        <ele>245.4</ele>
        <time>2022-03-04T14:55:19Z</time>
      </trkpt>
      <trkpt lat="47.66337" lon="6.20736">
        <ele>245.6</ele>
        <time>2022-03-04T14:55:23Z</time>
      </trkpt>
      <trkpt lat="47.66332" lon="6.20732">
        <ele>246</ele>
        <time>2022-03-04T14:55:27Z</time>
      </trkpt>
      <trkpt lat="47.66327" lon="6.20729">
        <ele>246.4</ele>
        <time>2022-03-04T14:55:31Z</time>
      </trkpt>
      <trkpt lat="47.66322" lon="6.20728">
        <ele>246.7</ele>
        <time>2022-03-04T14:55:34Z</time>
      </trkpt>
      <trkpt lat="47.66317" lon="6.20728">
        <ele>246.8</ele>
        <time>2022-03-04T14:55:37Z</time>
      </trkpt>
      <trkpt lat="47.66313" lon="6.20728">
        <ele>247</ele>
        <time>2022-03-04T14:55:40Z</time>
      </trkpt>
      <trkpt lat="47.66307" lon="6.20727">
        <ele>247.3</ele>
        <time>2022-03-04T14:55:44Z</time>
      </trkpt>
      <trkpt lat="47.66302" lon="6.20724">
        <ele>247.8</ele>
        <time>2022-03-04T14:55:48Z</time>
      </trkpt>
      <trkpt lat="47.66297" lon="6.20724">
        <ele>247.8</ele>
        <time>2022-03-04T14:55:52Z</time>
      </trkpt>
      <trkpt lat="47.66292" lon="6.20724">
        <ele>247.8</ele>
        <time>2022-03-04T14:55:55Z</time>
      </trkpt>
      <trkpt lat="47.66287" lon="6.20723">
        <ele>247.9</ele>
        <time>2022-03-04T14:55:59Z</time>
      </trkpt>
      <trkpt lat="47.66283" lon="6.2072">
        <ele>248.4</ele>
        <time>2022-03-04T14:56:03Z</time>
      </trkpt>
      <trkpt lat="47.66278" lon="6.20719">
        <ele>248.4</ele>
        <time>2022-03-04T14:56:07Z</time>
      </trkpt>
      <trkpt lat="47.66273" lon="6.20718">
        <ele>248.7</ele>
        <time>2022-03-04T14:56:11Z</time>
      </trkpt>
      <trkpt lat="47.66269" lon="6.20713">
        <ele>249.6</ele>
        <time>2022-03-04T14:56:16Z</time>
      </trkpt>
      <trkpt lat="47.66264" lon="6.20711">
        <ele>250.1</ele>
        <time>2022-03-04T14:56:20Z</time>
      </trkpt>
      <trkpt lat="47.66259" lon="6.20706">
        <ele>251</ele>
        <time>2022-03-04T14:56:24Z</time>
      </trkpt>
      <trkpt lat="47.66256" lon="6.20701">
        <ele>251.8</ele>
        <time>2022-03-04T14:56:27Z</time>
      </trkpt>
      <trkpt lat="47.66253" lon="6.20695">
        <ele>252.8</ele>
        <time>2022-03-04T14:56:31Z</time>
      </trkpt>
      <trkpt lat="47.66248" lon="6.20692">
        <ele>253.4</ele>
        <time>2022-03-04T14:56:36Z</time>
      </trkpt>
      <trkpt lat="47.66245" lon="6.20687">
        <ele>254.3</ele>
        <time>2022-03-04T14:56:40Z</time>
      </trkpt>
      <trkpt lat="47.66242" lon="6.20681">
        <ele>255.2</ele>
        <time>2022-03-04T14:56:43Z</time>
      </trkpt>
      <trkpt lat="47.66237" lon="6.20678">
        <ele>255.8</ele>
        <time>2022-03-04T14:56:47Z</time>
      </trkpt>
      <trkpt lat="47.66232" lon="6.20675">
        <ele>256.5</ele>
        <time>2022-03-04T14:56:51Z</time>
      </trkpt>
      <trkpt lat="47.66231" lon="6.20668">
        <ele>257.4</ele>
        <time>2022-03-04T14:56:56Z</time>
      </trkpt>
      <trkpt lat="47.66228" lon="6.20663">
        <ele>258.4</ele>
        <time>2022-03-04T14:57:00Z</time>
      </trkpt>
      <trkpt lat="47.66224" lon="6.2066">
        <ele>259</ele>
        <time>2022-03-04T14:57:04Z</time>
      </trkpt>
      <trkpt lat="47.6622" lon="6.20655">
        <ele>259.7</ele>
        <time>2022-03-04T14:57:08Z</time>
      </trkpt>
      <trkpt lat="47.66219" lon="6.20648">
        <ele>260.7</ele>
        <time>2022-03-04T14:57:12Z</time>
      </trkpt>
      <trkpt lat="47.66215" lon="6.20641">
        <ele>261.7</ele>
        <time>2022-03-04T14:57:17Z</time>
      </trkpt>
      <trkpt lat="47.66211" lon="6.20641">
        <ele>261.8</ele>
        <time>2022-03-04T14:57:21Z</time>
      </trkpt>
      <trkpt lat="47.66207" lon="6.20637">
        <ele>262.2</ele>
        <time>2022-03-04T14:57:25Z</time>
      </trkpt>
      <trkpt lat="47.66203" lon="6.20632">
        <ele>262.9</ele>
        <time>2022-03-04T14:57:30Z</time>
      </trkpt>
      <trkpt lat="47.66199" lon="6.20628">
        <ele>263.5</ele>
        <time>2022-03-04T14:57:35Z</time>
      </trkpt>
      <trkpt lat="47.66194" lon="6.20625">
        <ele>264</ele>
        <time>2022-03-04T14:57:39Z</time>
      </trkpt>
      <trkpt lat="47.66189" lon="6.20623">
        <ele>264.3</ele>
        <time>2022-03-04T14:57:44Z</time>
      </trkpt>
      <trkpt lat="47.66185" lon="6.20618">
        <ele>265</ele>
        <time>2022-03-04T14:57:49Z</time>
      </trkpt>
      <trkpt lat="47.6618" lon="6.20614">
        <ele>265.6</ele>
        <time>2022-03-04T14:57:54Z</time>
      </trkpt>
      <trkpt lat="47.66175" lon="6.20612">
        <ele>265.9</ele>
        <time>2022-03-04T14:57:58Z</time>
      </trkpt>
      <trkpt lat="47.6617" lon="6.20609">
        <ele>266.4</ele>
        <time>2022-03-04T14:58:02Z</time>
      </trkpt>
      <trkpt lat="47.66165" lon="6.20606">
        <ele>266.9</ele>
        <time>2022-03-04T14:58:06Z</time>
      </trkpt>
      <trkpt lat="47.6616" lon="6.20605">
        <ele>267.1</ele>
        <time>2022-03-04T14:58:10Z</time>
      </trkpt>
      <trkpt lat="47.66155" lon="6.20602">
        <ele>267.3</ele>
        <time>2022-03-04T14:58:14Z</time>
      </trkpt>
      <trkpt lat="47.66151" lon="6.206">
        <ele>267.6</ele>
        <time>2022-03-04T14:58:18Z</time>
      </trkpt>
      <trkpt lat="47.66146" lon="6.206">
        <ele>267.5</ele>
        <time>2022-03-04T15:01:16Z</time>
      </trkpt>
      <trkpt lat="47.66141" lon="6.20597">
        <ele>267.6</ele>
        <time>2022-03-04T15:01:19Z</time>
      </trkpt>
      <trkpt lat="47.66134" lon="6.20593">
        <ele>267.5</ele>
        <time>2022-03-04T15:01:22Z</time>
      </trkpt>
      <trkpt lat="47.66129" lon="6.2059">
        <ele>267.1</ele>
        <time>2022-03-04T15:01:24Z</time>
      </trkpt>
      <trkpt lat="47.66122" lon="6.20586">
        <ele>266.8</ele>
        <time>2022-03-04T15:01:26Z</time>
      </trkpt>
      <trkpt lat="47.66113" lon="6.20582">
        <ele>266.4</ele>
        <time>2022-03-04T15:01:28Z</time>
      </trkpt>
      <trkpt lat="47.66109" lon="6.2058">
        <ele>266.3</ele>
        <time>2022-03-04T15:01:29Z</time>
      </trkpt>
      <trkpt lat="47.661" lon="6.20575">
        <ele>266.1</ele>
        <time>2022-03-04T15:01:31Z</time>
      </trkpt>
      <trkpt lat="47.66095" lon="6.20572">
        <ele>266.1</ele>
        <time>2022-03-04T15:01:32Z</time>
      </trkpt>
      <trkpt lat="47.66091" lon="6.2057">
        <ele>266</ele>
        <time>2022-03-04T15:01:33Z</time>
      </trkpt>
      <trkpt lat="47.66086" lon="6.20567">
        <ele>265.9</ele>
        <time>2022-03-04T15:01:34Z</time>
      </trkpt>
      <trkpt lat="47.66081" lon="6.20565">
        <ele>265.9</ele>
        <time>2022-03-04T15:01:35Z</time>
      </trkpt>
      <trkpt lat="47.66077" lon="6.20562">
        <ele>265.8</ele>
        <time>2022-03-04T15:01:36Z</time>
      </trkpt>
      <trkpt lat="47.66068" lon="6.20557">
        <ele>265.7</ele>
        <time>2022-03-04T15:01:38Z</time>
      </trkpt>
      <trkpt lat="47.66063" lon="6.20555">
        <ele>265.6</ele>
        <time>2022-03-04T15:01:39Z</time>
      </trkpt>
      <trkpt lat="47.66054" lon="6.20551">
        <ele>265.4</ele>
        <time>2022-03-04T15:01:41Z</time>
      </trkpt>
      <trkpt lat="47.66046" lon="6.20546">
        <ele>265.1</ele>
        <time>2022-03-04T15:01:43Z</time>
      </trkpt>
      <trkpt lat="47.66041" lon="6.20543">
        <ele>265.1</ele>
        <time>2022-03-04T15:01:44Z</time>
      </trkpt>
      <trkpt lat="47.66037" lon="6.2054">
        <ele>265</ele>
        <time>2022-03-04T15:01:45Z</time>
      </trkpt>
      <trkpt lat="47.66033" lon="6.20537">
        <ele>265</ele>
        <time>2022-03-04T15:01:46Z</time>
      </trkpt>
      <trkpt lat="47.66028" lon="6.20535">
        <ele>265</ele>
        <time>2022-03-04T15:01:47Z</time>
      </trkpt>
      <trkpt lat="47.66024" lon="6.20533">
        <ele>265</ele>
        <time>2022-03-04T15:01:48Z</time>
      </trkpt>
      <trkpt lat="47.66019" lon="6.2053">
        <ele>265</ele>
        <time>2022-03-04T15:01:49Z</time>
      </trkpt>
      <trkpt lat="47.66015" lon="6.20528">
        <ele>265.1</ele>
        <time>2022-03-04T15:01:50Z</time>
      </trkpt>
      <trkpt lat="47.6601" lon="6.20525">
        <ele>265.1</ele>
        <time>2022-03-04T15:01:51Z</time>
      </trkpt>
      <trkpt lat="47.66002" lon="6.20522">
        <ele>265</ele>
        <time>2022-03-04T15:01:53Z</time>
      </trkpt>
      <trkpt lat="47.65994" lon="6.20518">
        <ele>265.2</ele>
        <time>2022-03-04T15:01:56Z</time>
      </trkpt>
      <trkpt lat="47.65989" lon="6.20516">
        <ele>265.3</ele>
        <time>2022-03-04T15:01:56Z</time>
      </trkpt>
      <trkpt lat="47.65983" lon="6.20513">
        <ele>265.5</ele>
        <time>2022-03-04T15:01:59Z</time>
      </trkpt>
      <trkpt lat="47.65978" lon="6.2051">
        <ele>265.8</ele>
        <time>2022-03-04T15:01:59Z</time>
      </trkpt>
      <trkpt lat="47.65972" lon="6.20506">
        <ele>266.2</ele>
        <time>2022-03-04T15:02:02Z</time>
      </trkpt>
      <trkpt lat="47.65967" lon="6.20502">
        <ele>266.1</ele>
        <time>2022-03-04T15:02:04Z</time>
      </trkpt>
      <trkpt lat="47.65962" lon="6.20499">
        <ele>266</ele>
        <time>2022-03-04T15:02:05Z</time>
      </trkpt>
      <trkpt lat="47.65958" lon="6.20495">
        <ele>266</ele>
        <time>2022-03-04T15:02:07Z</time>
      </trkpt>
      <trkpt lat="47.65953" lon="6.20491">
        <ele>266.1</ele>
        <time>2022-03-04T15:02:07Z</time>
      </trkpt>
      <trkpt lat="47.65949" lon="6.20488">
        <ele>266.2</ele>
        <time>2022-03-04T15:02:10Z</time>
      </trkpt>
      <trkpt lat="47.65945" lon="6.20484">
        <ele>266.4</ele>
        <time>2022-03-04T15:02:12Z</time>
      </trkpt>
      <trkpt lat="47.6594" lon="6.20481">
        <ele>266.4</ele>
        <time>2022-03-04T15:02:13Z</time>
      </trkpt>
      <trkpt lat="47.65934" lon="6.20478">
        <ele>266.3</ele>
        <time>2022-03-04T15:02:14Z</time>
      </trkpt>
      <trkpt lat="47.6593" lon="6.20473">
        <ele>266.9</ele>
        <time>2022-03-04T15:02:16Z</time>
      </trkpt>
      <trkpt lat="47.65925" lon="6.20469">
        <ele>266.9</ele>
        <time>2022-03-04T15:02:19Z</time>
      </trkpt>
      <trkpt lat="47.6592" lon="6.20466">
        <ele>266.9</ele>
        <time>2022-03-04T15:02:19Z</time>
      </trkpt>
      <trkpt lat="47.65915" lon="6.20462">
        <ele>266.9</ele>
        <time>2022-03-04T15:02:22Z</time>
      </trkpt>
      <trkpt lat="47.65911" lon="6.20458">
        <ele>266.9</ele>
        <time>2022-03-04T15:02:22Z</time>
      </trkpt>
      <trkpt lat="47.65906" lon="6.20452">
        <ele>267.1</ele>
        <time>2022-03-04T15:02:25Z</time>
      </trkpt>
      <trkpt lat="47.65901" lon="6.20446">
        <ele>267.2</ele>
        <time>2022-03-04T15:02:25Z</time>
      </trkpt>
      <trkpt lat="47.65895" lon="6.2044">
        <ele>267.2</ele>
        <time>2022-03-04T15:02:28Z</time>
      </trkpt>
      <trkpt lat="47.65891" lon="6.20435">
        <ele>267.2</ele>
        <time>2022-03-04T15:02:29Z</time>
      </trkpt>
      <trkpt lat="47.65887" lon="6.20431">
        <ele>267.2</ele>
        <time>2022-03-04T15:02:31Z</time>
      </trkpt>
      <trkpt lat="47.65882" lon="6.20426">
        <ele>267.2</ele>
        <time>2022-03-04T15:02:31Z</time>
      </trkpt>
      <trkpt lat="47.65878" lon="6.20422">
        <ele>267.1</ele>
        <time>2022-03-04T15:02:34Z</time>
      </trkpt>
      <trkpt lat="47.65874" lon="6.20419">
        <ele>267.1</ele>
        <time>2022-03-04T15:02:35Z</time>
      </trkpt>
      <trkpt lat="47.6587" lon="6.20415">
        <ele>267.1</ele>
        <time>2022-03-04T15:02:35Z</time>
      </trkpt>
      <trkpt lat="47.65864" lon="6.2041">
        <ele>267.1</ele>
        <time>2022-03-04T15:02:38Z</time>
      </trkpt>
      <trkpt lat="47.65859" lon="6.20405">
        <ele>266.9</ele>
        <time>2022-03-04T15:02:40Z</time>
      </trkpt>
      <trkpt lat="47.65854" lon="6.204">
        <ele>266.7</ele>
        <time>2022-03-04T15:02:41Z</time>
      </trkpt>
      <trkpt lat="47.6585" lon="6.20396">
        <ele>266.5</ele>
        <time>2022-03-04T15:02:42Z</time>
      </trkpt>
      <trkpt lat="47.65845" lon="6.20392">
        <ele>266.4</ele>
        <time>2022-03-04T15:02:43Z</time>
      </trkpt>
      <trkpt lat="47.65841" lon="6.20388">
        <ele>266.3</ele>
        <time>2022-03-04T15:02:44Z</time>
      </trkpt>
      <trkpt lat="47.65836" lon="6.20382">
        <ele>266.3</ele>
        <time>2022-03-04T15:02:45Z</time>
      </trkpt>
      <trkpt lat="47.65831" lon="6.20377">
        <ele>266.4</ele>
        <time>2022-03-04T15:02:45Z</time>
      </trkpt>
      <trkpt lat="47.65825" lon="6.2037">
        <ele>266.7</ele>
        <time>2022-03-04T15:02:48Z</time>
      </trkpt>
      <trkpt lat="47.65818" lon="6.20363">
        <ele>267</ele>
        <time>2022-03-04T15:02:49Z</time>
      </trkpt>
      <trkpt lat="47.65812" lon="6.20357">
        <ele>267.2</ele>
        <time>2022-03-04T15:02:49Z</time>
      </trkpt>
      <trkpt lat="47.65807" lon="6.20353">
        <ele>267.1</ele>
        <time>2022-03-04T15:02:52Z</time>
      </trkpt>
      <trkpt lat="47.65803" lon="6.20351">
        <ele>266.8</ele>
        <time>2022-03-04T15:02:53Z</time>
      </trkpt>
      <trkpt lat="47.65798" lon="6.20344">
        <ele>267</ele>
        <time>2022-03-04T15:02:55Z</time>
      </trkpt>
      <trkpt lat="47.65792" lon="6.20337">
        <ele>267.1</ele>
        <time>2022-03-04T15:02:56Z</time>
      </trkpt>
      <trkpt lat="47.65788" lon="6.20332">
        <ele>267.3</ele>
        <time>2022-03-04T15:02:56Z</time>
      </trkpt>
      <trkpt lat="47.65784" lon="6.20327">
        <ele>267.5</ele>
        <time>2022-03-04T15:02:59Z</time>
      </trkpt>
      <trkpt lat="47.6578" lon="6.20322">
        <ele>267.8</ele>
        <time>2022-03-04T15:03:00Z</time>
      </trkpt>
      <trkpt lat="47.65775" lon="6.20317">
        <ele>268.2</ele>
        <time>2022-03-04T15:03:02Z</time>
      </trkpt>
      <trkpt lat="47.6577" lon="6.20313">
        <ele>268.4</ele>
        <time>2022-03-04T15:03:03Z</time>
      </trkpt>
      <trkpt lat="47.65765" lon="6.20308">
        <ele>268.7</ele>
        <time>2022-03-04T15:03:05Z</time>
      </trkpt>
      <trkpt lat="47.65761" lon="6.20305">
        <ele>268.9</ele>
        <time>2022-03-04T15:03:06Z</time>
      </trkpt>
      <trkpt lat="47.65755" lon="6.20298">
        <ele>269.1</ele>
        <time>2022-03-04T15:03:07Z</time>
      </trkpt>
      <trkpt lat="47.65749" lon="6.20292">
        <ele>269.4</ele>
        <time>2022-03-04T15:03:10Z</time>
      </trkpt>
      <trkpt lat="47.65745" lon="6.20287">
        <ele>269.8</ele>
        <time>2022-03-04T15:03:12Z</time>
      </trkpt>
      <trkpt lat="47.65741" lon="6.20283">
        <ele>270.1</ele>
        <time>2022-03-04T15:03:13Z</time>
      </trkpt>
      <trkpt lat="47.65737" lon="6.20278">
        <ele>270.6</ele>
        <time>2022-03-04T15:03:15Z</time>
      </trkpt>
      <trkpt lat="47.65732" lon="6.20272">
        <ele>271.1</ele>
        <time>2022-03-04T15:03:17Z</time>
      </trkpt>
      <trkpt lat="47.65728" lon="6.20268">
        <ele>271.6</ele>
        <time>2022-03-04T15:03:18Z</time>
      </trkpt>
      <trkpt lat="47.65724" lon="6.20263">
        <ele>272.1</ele>
        <time>2022-03-04T15:03:22Z</time>
      </trkpt>
      <trkpt lat="47.6572" lon="6.20259">
        <ele>272.6</ele>
        <time>2022-03-04T15:03:24Z</time>
      </trkpt>
      <trkpt lat="47.65716" lon="6.20254">
        <ele>273</ele>
        <time>2022-03-04T15:03:25Z</time>
      </trkpt>
      <trkpt lat="47.65712" lon="6.20249">
        <ele>273.3</ele>
        <time>2022-03-04T15:03:27Z</time>
      </trkpt>
      <trkpt lat="47.65707" lon="6.20244">
        <ele>273.4</ele>
        <time>2022-03-04T15:03:31Z</time>
      </trkpt>
      <trkpt lat="47.65704" lon="6.20239">
        <ele>273.5</ele>
        <time>2022-03-04T15:03:31Z</time>
      </trkpt>
      <trkpt lat="47.657" lon="6.20235">
        <ele>273.4</ele>
        <time>2022-03-04T15:03:34Z</time>
      </trkpt>
      <trkpt lat="47.65694" lon="6.20228">
        <ele>273.5</ele>
        <time>2022-03-04T15:03:36Z</time>
      </trkpt>
      <trkpt lat="47.65688" lon="6.20221">
        <ele>273.6</ele>
        <time>2022-03-04T15:03:37Z</time>
      </trkpt>
      <trkpt lat="47.65683" lon="6.20214">
        <ele>273.8</ele>
        <time>2022-03-04T15:03:39Z</time>
      </trkpt>
      <trkpt lat="47.65678" lon="6.20208">
        <ele>273.9</ele>
        <time>2022-03-04T15:03:42Z</time>
      </trkpt>
      <trkpt lat="47.65674" lon="6.20202">
        <ele>274</ele>
        <time>2022-03-04T15:03:44Z</time>
      </trkpt>
      <trkpt lat="47.6567" lon="6.20197">
        <ele>274</ele>
        <time>2022-03-04T15:03:44Z</time>
      </trkpt>
      <trkpt lat="47.65666" lon="6.20191">
        <ele>274.2</ele>
        <time>2022-03-04T15:03:46Z</time>
      </trkpt>
      <trkpt lat="47.65662" lon="6.20186">
        <ele>274.4</ele>
        <time>2022-03-04T15:03:49Z</time>
      </trkpt>
      <trkpt lat="47.65658" lon="6.20181">
        <ele>274.7</ele>
        <time>2022-03-04T15:03:51Z</time>
      </trkpt>
      <trkpt lat="47.65653" lon="6.20175">
        <ele>274.9</ele>
        <time>2022-03-04T15:03:53Z</time>
      </trkpt>
      <trkpt lat="47.6565" lon="6.20171">
        <ele>275.1</ele>
        <time>2022-03-04T15:03:53Z</time>
      </trkpt>
      <trkpt lat="47.65647" lon="6.20165">
        <ele>275.3</ele>
        <time>2022-03-04T15:03:56Z</time>
      </trkpt>
      <trkpt lat="47.65643" lon="6.2016">
        <ele>275.4</ele>
        <time>2022-03-04T15:03:58Z</time>
      </trkpt>
      <trkpt lat="47.65638" lon="6.20156">
        <ele>275.3</ele>
        <time>2022-03-04T15:04:00Z</time>
      </trkpt>
      <trkpt lat="47.65633" lon="6.20152">
        <ele>275</ele>
        <time>2022-03-04T15:04:01Z</time>
      </trkpt>
      <trkpt lat="47.65629" lon="6.20147">
        <ele>274.9</ele>
        <time>2022-03-04T15:04:03Z</time>
      </trkpt>
      <trkpt lat="47.65625" lon="6.20142">
        <ele>274.8</ele>
        <time>2022-03-04T15:04:05Z</time>
      </trkpt>
      <trkpt lat="47.65617" lon="6.20133">
        <ele>274.7</ele>
        <time>2022-03-04T15:04:06Z</time>
      </trkpt>
      <trkpt lat="47.65609" lon="6.20125">
        <ele>274.3</ele>
        <time>2022-03-04T15:04:08Z</time>
      </trkpt>
      <trkpt lat="47.65605" lon="6.20121">
        <ele>274.1</ele>
        <time>2022-03-04T15:04:09Z</time>
      </trkpt>
      <trkpt lat="47.65599" lon="6.20116">
        <ele>273.9</ele>
        <time>2022-03-04T15:04:12Z</time>
      </trkpt>
      <trkpt lat="47.65594" lon="6.20111">
        <ele>273.8</ele>
        <time>2022-03-04T15:04:13Z</time>
      </trkpt>
      <trkpt lat="47.65589" lon="6.20106">
        <ele>273.6</ele>
        <time>2022-03-04T15:04:14Z</time>
      </trkpt>
      <trkpt lat="47.65585" lon="6.20102">
        <ele>273.4</ele>
        <time>2022-03-04T15:04:14Z</time>
      </trkpt>
      <trkpt lat="47.65581" lon="6.20098">
        <ele>273.2</ele>
        <time>2022-03-04T15:04:15Z</time>
      </trkpt>
      <trkpt lat="47.65576" lon="6.20094">
        <ele>273</ele>
        <time>2022-03-04T15:04:17Z</time>
      </trkpt>
      <trkpt lat="47.6557" lon="6.20087">
        <ele>272.9</ele>
        <time>2022-03-04T15:04:19Z</time>
      </trkpt>
      <trkpt lat="47.65565" lon="6.20082">
        <ele>272.8</ele>
        <time>2022-03-04T15:04:19Z</time>
      </trkpt>
      <trkpt lat="47.65559" lon="6.20074">
        <ele>272.9</ele>
        <time>2022-03-04T15:04:22Z</time>
      </trkpt>
      <trkpt lat="47.65551" lon="6.20065">
        <ele>272.7</ele>
        <time>2022-03-04T15:04:22Z</time>
      </trkpt>
      <trkpt lat="47.65547" lon="6.2006">
        <ele>272.4</ele>
        <time>2022-03-04T15:04:23Z</time>
      </trkpt>
      <trkpt lat="47.65543" lon="6.20055">
        <ele>272.2</ele>
        <time>2022-03-04T15:04:24Z</time>
      </trkpt>
      <trkpt lat="47.65539" lon="6.2005">
        <ele>271.9</ele>
        <time>2022-03-04T15:04:25Z</time>
      </trkpt>
      <trkpt lat="47.65535" lon="6.20045">
        <ele>271.7</ele>
        <time>2022-03-04T15:04:26Z</time>
      </trkpt>
      <trkpt lat="47.65531" lon="6.2004">
        <ele>271.5</ele>
        <time>2022-03-04T15:04:27Z</time>
      </trkpt>
      <trkpt lat="47.65527" lon="6.20035">
        <ele>271.4</ele>
        <time>2022-03-04T15:04:28Z</time>
      </trkpt>
      <trkpt lat="47.65523" lon="6.2003">
        <ele>271.2</ele>
        <time>2022-03-04T15:04:29Z</time>
      </trkpt>
      <trkpt lat="47.6552" lon="6.20025">
        <ele>271</ele>
        <time>2022-03-04T15:04:30Z</time>
      </trkpt>
      <trkpt lat="47.65516" lon="6.2002">
        <ele>270.8</ele>
        <time>2022-03-04T15:04:31Z</time>
      </trkpt>
      <trkpt lat="47.65513" lon="6.20015">
        <ele>270.8</ele>
        <time>2022-03-04T15:04:32Z</time>
      </trkpt>
      <trkpt lat="47.65509" lon="6.20011">
        <ele>270.8</ele>
        <time>2022-03-04T15:04:33Z</time>
      </trkpt>
      <trkpt lat="47.65506" lon="6.20006">
        <ele>270.8</ele>
        <time>2022-03-04T15:04:34Z</time>
      </trkpt>
      <trkpt lat="47.655" lon="6.19998">
        <ele>271</ele>
        <time>2022-03-04T15:04:36Z</time>
      </trkpt>
      <trkpt lat="47.65494" lon="6.1999">
        <ele>270.4</ele>
        <time>2022-03-04T15:04:38Z</time>
      </trkpt>
      <trkpt lat="47.65488" lon="6.19983">
        <ele>270</ele>
        <time>2022-03-04T15:04:40Z</time>
      </trkpt>
      <trkpt lat="47.65485" lon="6.19978">
        <ele>269.7</ele>
        <time>2022-03-04T15:04:41Z</time>
      </trkpt>
      <trkpt lat="47.65481" lon="6.19971">
        <ele>269.6</ele>
        <time>2022-03-04T15:04:42Z</time>
      </trkpt>
      <trkpt lat="47.65477" lon="6.19965">
        <ele>269.5</ele>
        <time>2022-03-04T15:04:43Z</time>
      </trkpt>
      <trkpt lat="47.65473" lon="6.19958">
        <ele>269.6</ele>
        <time>2022-03-04T15:04:44Z</time>
      </trkpt>
      <trkpt lat="47.65469" lon="6.19952">
        <ele>269.6</ele>
        <time>2022-03-04T15:04:45Z</time>
      </trkpt>
      <trkpt lat="47.65465" lon="6.19946">
        <ele>269.6</ele>
        <time>2022-03-04T15:04:46Z</time>
      </trkpt>
      <trkpt lat="47.65462" lon="6.1994">
        <ele>269.5</ele>
        <time>2022-03-04T15:04:47Z</time>
      </trkpt>
      <trkpt lat="47.6546" lon="6.19934">
        <ele>269.5</ele>
        <time>2022-03-04T15:04:48Z</time>
      </trkpt>
      <trkpt lat="47.65456" lon="6.19923">
        <ele>269.7</ele>
        <time>2022-03-04T15:04:50Z</time>
      </trkpt>
      <trkpt lat="47.65451" lon="6.19917">
        <ele>269.7</ele>
        <time>2022-03-04T15:04:54Z</time>
      </trkpt>
      <trkpt lat="47.65448" lon="6.19909">
        <ele>269.9</ele>
        <time>2022-03-04T15:04:55Z</time>
      </trkpt>
      <trkpt lat="47.65445" lon="6.19897">
        <ele>270.4</ele>
        <time>2022-03-04T15:04:56Z</time>
      </trkpt>
      <trkpt lat="47.65444" lon="6.1989">
        <ele>270.8</ele>
        <time>2022-03-04T15:04:59Z</time>
      </trkpt>
      <trkpt lat="47.65442" lon="6.1988">
        <ele>271.3</ele>
        <time>2022-03-04T15:05:01Z</time>
      </trkpt>
      <trkpt lat="47.6544" lon="6.19873">
        <ele>271.6</ele>
        <time>2022-03-04T15:05:03Z</time>
      </trkpt>
      <trkpt lat="47.65437" lon="6.19865">
        <ele>271.9</ele>
        <time>2022-03-04T15:05:05Z</time>
      </trkpt>
      <trkpt lat="47.65433" lon="6.19858">
        <ele>271.9</ele>
        <time>2022-03-04T15:05:06Z</time>
      </trkpt>
      <trkpt lat="47.65429" lon="6.19849">
        <ele>271.7</ele>
        <time>2022-03-04T15:05:10Z</time>
      </trkpt>
      <trkpt lat="47.65426" lon="6.19843">
        <ele>271.6</ele>
        <time>2022-03-04T15:05:12Z</time>
      </trkpt>
      <trkpt lat="47.65422" lon="6.19838">
        <ele>271.4</ele>
        <time>2022-03-04T15:05:13Z</time>
      </trkpt>
      <trkpt lat="47.65418" lon="6.1983">
        <ele>271.3</ele>
        <time>2022-03-04T15:05:15Z</time>
      </trkpt>
      <trkpt lat="47.65415" lon="6.19825">
        <ele>271</ele>
        <time>2022-03-04T15:05:17Z</time>
      </trkpt>
      <trkpt lat="47.65412" lon="6.1982">
        <ele>270.7</ele>
        <time>2022-03-04T15:05:18Z</time>
      </trkpt>
      <trkpt lat="47.65408" lon="6.19814">
        <ele>270.3</ele>
        <time>2022-03-04T15:05:18Z</time>
      </trkpt>
      <trkpt lat="47.65404" lon="6.19808">
        <ele>270</ele>
        <time>2022-03-04T15:05:21Z</time>
      </trkpt>
      <trkpt lat="47.654" lon="6.19801">
        <ele>269.9</ele>
        <time>2022-03-04T15:05:21Z</time>
      </trkpt>
      <trkpt lat="47.65395" lon="6.19793">
        <ele>269.8</ele>
        <time>2022-03-04T15:05:24Z</time>
      </trkpt>
      <trkpt lat="47.65391" lon="6.19786">
        <ele>269.7</ele>
        <time>2022-03-04T15:05:26Z</time>
      </trkpt>
      <trkpt lat="47.65388" lon="6.1978">
        <ele>269.7</ele>
        <time>2022-03-04T15:05:27Z</time>
      </trkpt>
      <trkpt lat="47.65382" lon="6.1977">
        <ele>270.2</ele>
        <time>2022-03-04T15:05:28Z</time>
      </trkpt>
      <trkpt lat="47.65377" lon="6.19761">
        <ele>270.5</ele>
        <time>2022-03-04T15:05:31Z</time>
      </trkpt>
      <trkpt lat="47.65375" lon="6.19755">
        <ele>270.6</ele>
        <time>2022-03-04T15:05:32Z</time>
      </trkpt>
      <trkpt lat="47.65372" lon="6.19749">
        <ele>270.6</ele>
        <time>2022-03-04T15:05:33Z</time>
      </trkpt>
      <trkpt lat="47.65368" lon="6.19739">
        <ele>270</ele>
        <time>2022-03-04T15:05:35Z</time>
      </trkpt>
      <trkpt lat="47.65364" lon="6.19732">
        <ele>269.4</ele>
        <time>2022-03-04T15:05:36Z</time>
      </trkpt>
      <trkpt lat="47.6536" lon="6.19723">
        <ele>268.8</ele>
        <time>2022-03-04T15:05:37Z</time>
      </trkpt>
      <trkpt lat="47.65357" lon="6.19717">
        <ele>268.6</ele>
        <time>2022-03-04T15:05:38Z</time>
      </trkpt>
      <trkpt lat="47.65354" lon="6.1971">
        <ele>268.6</ele>
        <time>2022-03-04T15:05:38Z</time>
      </trkpt>
      <trkpt lat="47.65351" lon="6.19703">
        <ele>268.5</ele>
        <time>2022-03-04T15:05:39Z</time>
      </trkpt>
      <trkpt lat="47.65348" lon="6.19697">
        <ele>268.5</ele>
        <time>2022-03-04T15:05:40Z</time>
      </trkpt>
      <trkpt lat="47.65344" lon="6.19688">
        <ele>268.4</ele>
        <time>2022-03-04T15:05:43Z</time>
      </trkpt>
      <trkpt lat="47.65342" lon="6.19682">
        <ele>268.4</ele>
        <time>2022-03-04T15:05:44Z</time>
      </trkpt>
      <trkpt lat="47.65339" lon="6.19676">
        <ele>268.3</ele>
        <time>2022-03-04T15:05:45Z</time>
      </trkpt>
      <trkpt lat="47.65336" lon="6.19668">
        <ele>268.3</ele>
        <time>2022-03-04T15:05:47Z</time>
      </trkpt>
      <trkpt lat="47.65333" lon="6.19661">
        <ele>268.2</ele>
        <time>2022-03-04T15:05:47Z</time>
      </trkpt>
      <trkpt lat="47.6533" lon="6.19652">
        <ele>268.1</ele>
        <time>2022-03-04T15:05:49Z</time>
      </trkpt>
      <trkpt lat="47.65327" lon="6.19643">
        <ele>268.1</ele>
        <time>2022-03-04T15:05:52Z</time>
      </trkpt>
      <trkpt lat="47.65323" lon="6.19633">
        <ele>268</ele>
        <time>2022-03-04T15:05:54Z</time>
      </trkpt>
      <trkpt lat="47.65321" lon="6.19626">
        <ele>267.9</ele>
        <time>2022-03-04T15:05:56Z</time>
      </trkpt>
      <trkpt lat="47.65319" lon="6.19618">
        <ele>267.8</ele>
        <time>2022-03-04T15:05:56Z</time>
      </trkpt>
      <trkpt lat="47.65316" lon="6.19607">
        <ele>267.8</ele>
        <time>2022-03-04T15:05:58Z</time>
      </trkpt>
      <trkpt lat="47.65313" lon="6.19597">
        <ele>267.9</ele>
        <time>2022-03-04T15:06:01Z</time>
      </trkpt>
      <trkpt lat="47.65311" lon="6.1959">
        <ele>268</ele>
        <time>2022-03-04T15:06:01Z</time>
      </trkpt>
      <trkpt lat="47.65307" lon="6.19579">
        <ele>268.2</ele>
        <time>2022-03-04T15:06:03Z</time>
      </trkpt>
      <trkpt lat="47.65303" lon="6.19571">
        <ele>268.4</ele>
        <time>2022-03-04T15:06:06Z</time>
      </trkpt>
      <trkpt lat="47.65301" lon="6.19565">
        <ele>268.6</ele>
        <time>2022-03-04T15:06:06Z</time>
      </trkpt>
      <trkpt lat="47.65298" lon="6.19559">
        <ele>268.9</ele>
        <time>2022-03-04T15:06:09Z</time>
      </trkpt>
      <trkpt lat="47.65294" lon="6.19549">
        <ele>269.4</ele>
        <time>2022-03-04T15:06:11Z</time>
      </trkpt>
      <trkpt lat="47.65291" lon="6.19543">
        <ele>269.7</ele>
        <time>2022-03-04T15:06:13Z</time>
      </trkpt>
      <trkpt lat="47.65287" lon="6.19536">
        <ele>270.1</ele>
        <time>2022-03-04T15:06:16Z</time>
      </trkpt>
      <trkpt lat="47.65285" lon="6.19529">
        <ele>270.7</ele>
        <time>2022-03-04T15:06:18Z</time>
      </trkpt>
      <trkpt lat="47.65283" lon="6.19521">
        <ele>271.1</ele>
        <time>2022-03-04T15:06:19Z</time>
      </trkpt>
      <trkpt lat="47.65281" lon="6.19513">
        <ele>271.5</ele>
        <time>2022-03-04T15:06:22Z</time>
      </trkpt>
      <trkpt lat="47.65279" lon="6.19504">
        <ele>271.8</ele>
        <time>2022-03-04T15:06:24Z</time>
      </trkpt>
      <trkpt lat="47.65277" lon="6.19497">
        <ele>272</ele>
        <time>2022-03-04T15:06:26Z</time>
      </trkpt>
      <trkpt lat="47.65274" lon="6.19488">
        <ele>271.8</ele>
        <time>2022-03-04T15:06:28Z</time>
      </trkpt>
      <trkpt lat="47.65271" lon="6.1948">
        <ele>271.7</ele>
        <time>2022-03-04T15:06:30Z</time>
      </trkpt>
      <trkpt lat="47.65267" lon="6.19473">
        <ele>271.6</ele>
        <time>2022-03-04T15:06:32Z</time>
      </trkpt>
      <trkpt lat="47.65264" lon="6.19466">
        <ele>271.6</ele>
        <time>2022-03-04T15:06:33Z</time>
      </trkpt>
      <trkpt lat="47.6526" lon="6.1946">
        <ele>271.6</ele>
        <time>2022-03-04T15:06:35Z</time>
      </trkpt>
      <trkpt lat="47.65256" lon="6.19454">
        <ele>271.7</ele>
        <time>2022-03-04T15:06:37Z</time>
      </trkpt>
      <trkpt lat="47.65252" lon="6.19448">
        <ele>271.9</ele>
        <time>2022-03-04T15:06:39Z</time>
      </trkpt>
      <trkpt lat="47.65247" lon="6.19442">
        <ele>271.8</ele>
        <time>2022-03-04T15:06:41Z</time>
      </trkpt>
      <trkpt lat="47.65241" lon="6.19435">
        <ele>271.4</ele>
        <time>2022-03-04T15:06:42Z</time>
      </trkpt>
      <trkpt lat="47.65238" lon="6.1943">
        <ele>271.1</ele>
        <time>2022-03-04T15:06:45Z</time>
      </trkpt>
      <trkpt lat="47.65234" lon="6.19425">
        <ele>270.8</ele>
        <time>2022-03-04T15:06:45Z</time>
      </trkpt>
      <trkpt lat="47.6523" lon="6.19419">
        <ele>270.6</ele>
        <time>2022-03-04T15:06:48Z</time>
      </trkpt>
      <trkpt lat="47.65227" lon="6.19414">
        <ele>270.4</ele>
        <time>2022-03-04T15:06:49Z</time>
      </trkpt>
      <trkpt lat="47.65222" lon="6.19407">
        <ele>270.3</ele>
        <time>2022-03-04T15:06:51Z</time>
      </trkpt>
      <trkpt lat="47.65219" lon="6.19401">
        <ele>270.5</ele>
        <time>2022-03-04T15:06:52Z</time>
      </trkpt>
      <trkpt lat="47.65216" lon="6.19396">
        <ele>270.7</ele>
        <time>2022-03-04T15:06:53Z</time>
      </trkpt>
      <trkpt lat="47.6521" lon="6.19387">
        <ele>271</ele>
        <time>2022-03-04T15:06:55Z</time>
      </trkpt>
      <trkpt lat="47.65207" lon="6.19382">
        <ele>271</ele>
        <time>2022-03-04T15:06:56Z</time>
      </trkpt>
      <trkpt lat="47.65204" lon="6.19377">
        <ele>271</ele>
        <time>2022-03-04T15:06:56Z</time>
      </trkpt>
      <trkpt lat="47.652" lon="6.1937">
        <ele>271</ele>
        <time>2022-03-04T15:06:59Z</time>
      </trkpt>
      <trkpt lat="47.65197" lon="6.19365">
        <ele>271</ele>
        <time>2022-03-04T15:07:00Z</time>
      </trkpt>
      <trkpt lat="47.65194" lon="6.19359">
        <ele>271.1</ele>
        <time>2022-03-04T15:07:02Z</time>
      </trkpt>
      <trkpt lat="47.65191" lon="6.19353">
        <ele>271.1</ele>
        <time>2022-03-04T15:07:03Z</time>
      </trkpt>
      <trkpt lat="47.65186" lon="6.19346">
        <ele>271.2</ele>
        <time>2022-03-04T15:07:05Z</time>
      </trkpt>
      <trkpt lat="47.65181" lon="6.19339">
        <ele>271.3</ele>
        <time>2022-03-04T15:07:06Z</time>
      </trkpt>
      <trkpt lat="47.65177" lon="6.19332">
        <ele>271.4</ele>
        <time>2022-03-04T15:07:09Z</time>
      </trkpt>
      <trkpt lat="47.65173" lon="6.19326">
        <ele>271.5</ele>
        <time>2022-03-04T15:07:11Z</time>
      </trkpt>
      <trkpt lat="47.65169" lon="6.19322">
        <ele>271.5</ele>
        <time>2022-03-04T15:07:13Z</time>
      </trkpt>
      <trkpt lat="47.65166" lon="6.19317">
        <ele>271.6</ele>
        <time>2022-03-04T15:07:13Z</time>
      </trkpt>
      <trkpt lat="47.65162" lon="6.19313">
        <ele>271.7</ele>
        <time>2022-03-04T15:07:16Z</time>
      </trkpt>
      <trkpt lat="47.65157" lon="6.19308">
        <ele>271.9</ele>
        <time>2022-03-04T15:07:18Z</time>
      </trkpt>
      <trkpt lat="47.65152" lon="6.19303">
        <ele>272</ele>
        <time>2022-03-04T15:07:20Z</time>
      </trkpt>
      <trkpt lat="47.65146" lon="6.19298">
        <ele>272</ele>
        <time>2022-03-04T15:07:22Z</time>
      </trkpt>
      <trkpt lat="47.65142" lon="6.19293">
        <ele>272</ele>
        <time>2022-03-04T15:07:22Z</time>
      </trkpt>
      <trkpt lat="47.65136" lon="6.19287">
        <ele>271.9</ele>
        <time>2022-03-04T15:07:25Z</time>
      </trkpt>
      <trkpt lat="47.65131" lon="6.19282">
        <ele>271.7</ele>
        <time>2022-03-04T15:07:26Z</time>
      </trkpt>
      <trkpt lat="47.65127" lon="6.19277">
        <ele>271.6</ele>
        <time>2022-03-04T15:07:27Z</time>
      </trkpt>
      <trkpt lat="47.65123" lon="6.19272">
        <ele>271.4</ele>
        <time>2022-03-04T15:07:28Z</time>
      </trkpt>
      <trkpt lat="47.65118" lon="6.19266">
        <ele>271.3</ele>
        <time>2022-03-04T15:07:28Z</time>
      </trkpt>
      <trkpt lat="47.65113" lon="6.1926">
        <ele>271.1</ele>
        <time>2022-03-04T15:07:31Z</time>
      </trkpt>
      <trkpt lat="47.65109" lon="6.19255">
        <ele>270.9</ele>
        <time>2022-03-04T15:07:32Z</time>
      </trkpt>
      <trkpt lat="47.65105" lon="6.1925">
        <ele>270.8</ele>
        <time>2022-03-04T15:07:33Z</time>
      </trkpt>
      <trkpt lat="47.651" lon="6.19242">
        <ele>270.6</ele>
        <time>2022-03-04T15:07:33Z</time>
      </trkpt>
      <trkpt lat="47.65095" lon="6.19235">
        <ele>270.4</ele>
        <time>2022-03-04T15:07:34Z</time>
      </trkpt>
      <trkpt lat="47.65091" lon="6.19229">
        <ele>270.3</ele>
        <time>2022-03-04T15:07:35Z</time>
      </trkpt>
      <trkpt lat="47.65087" lon="6.19224">
        <ele>270.1</ele>
        <time>2022-03-04T15:07:36Z</time>
      </trkpt>
      <trkpt lat="47.65083" lon="6.19218">
        <ele>270</ele>
        <time>2022-03-04T15:07:37Z</time>
      </trkpt>
      <trkpt lat="47.65079" lon="6.19213">
        <ele>269.8</ele>
        <time>2022-03-04T15:07:38Z</time>
      </trkpt>
      <trkpt lat="47.65076" lon="6.19207">
        <ele>269.6</ele>
        <time>2022-03-04T15:07:39Z</time>
      </trkpt>
      <trkpt lat="47.65072" lon="6.19202">
        <ele>269.5</ele>
        <time>2022-03-04T15:07:40Z</time>
      </trkpt>
      <trkpt lat="47.65068" lon="6.19196">
        <ele>269.4</ele>
        <time>2022-03-04T15:07:41Z</time>
      </trkpt>
      <trkpt lat="47.65065" lon="6.1919">
        <ele>269.4</ele>
        <time>2022-03-04T15:07:42Z</time>
      </trkpt>
      <trkpt lat="47.65062" lon="6.19185">
        <ele>269.5</ele>
        <time>2022-03-04T15:07:43Z</time>
      </trkpt>
      <trkpt lat="47.65058" lon="6.1918">
        <ele>269.6</ele>
        <time>2022-03-04T15:07:44Z</time>
      </trkpt>
      <trkpt lat="47.65054" lon="6.19174">
        <ele>269.6</ele>
        <time>2022-03-04T15:07:45Z</time>
      </trkpt>
      <trkpt lat="47.6505" lon="6.19168">
        <ele>269.6</ele>
        <time>2022-03-04T15:07:46Z</time>
      </trkpt>
      <trkpt lat="47.65046" lon="6.19163">
        <ele>269.4</ele>
        <time>2022-03-04T15:07:47Z</time>
      </trkpt>
      <trkpt lat="47.65043" lon="6.19157">
        <ele>269.3</ele>
        <time>2022-03-04T15:07:48Z</time>
      </trkpt>
      <trkpt lat="47.6504" lon="6.19152">
        <ele>269.2</ele>
        <time>2022-03-04T15:07:49Z</time>
      </trkpt>
      <trkpt lat="47.65037" lon="6.19146">
        <ele>269.1</ele>
        <time>2022-03-04T15:07:50Z</time>
      </trkpt>
      <trkpt lat="47.65034" lon="6.19141">
        <ele>269.1</ele>
        <time>2022-03-04T15:07:51Z</time>
      </trkpt>
      <trkpt lat="47.65031" lon="6.19136">
        <ele>269.1</ele>
        <time>2022-03-04T15:07:52Z</time>
      </trkpt>
      <trkpt lat="47.65028" lon="6.19131">
        <ele>269</ele>
        <time>2022-03-04T15:07:53Z</time>
      </trkpt>
      <trkpt lat="47.65024" lon="6.19126">
        <ele>268.7</ele>
        <time>2022-03-04T15:07:54Z</time>
      </trkpt>
      <trkpt lat="47.65021" lon="6.19121">
        <ele>268.5</ele>
        <time>2022-03-04T15:07:55Z</time>
      </trkpt>
      <trkpt lat="47.65018" lon="6.19116">
        <ele>268.3</ele>
        <time>2022-03-04T15:07:56Z</time>
      </trkpt>
      <trkpt lat="47.65015" lon="6.1911">
        <ele>268.1</ele>
        <time>2022-03-04T15:07:57Z</time>
      </trkpt>
      <trkpt lat="47.65012" lon="6.19105">
        <ele>268</ele>
        <time>2022-03-04T15:07:58Z</time>
      </trkpt>
      <trkpt lat="47.65008" lon="6.19099">
        <ele>267.9</ele>
        <time>2022-03-04T15:07:59Z</time>
      </trkpt>
      <trkpt lat="47.65005" lon="6.19094">
        <ele>267.9</ele>
        <time>2022-03-04T15:08:00Z</time>
      </trkpt>
      <trkpt lat="47.65002" lon="6.19088">
        <ele>267.9</ele>
        <time>2022-03-04T15:08:01Z</time>
      </trkpt>
      <trkpt lat="47.64999" lon="6.19083">
        <ele>267.9</ele>
        <time>2022-03-04T15:08:02Z</time>
      </trkpt>
      <trkpt lat="47.64995" lon="6.19077">
        <ele>267.7</ele>
        <time>2022-03-04T15:08:03Z</time>
      </trkpt>
      <trkpt lat="47.64992" lon="6.19072">
        <ele>267.6</ele>
        <time>2022-03-04T15:08:04Z</time>
      </trkpt>
      <trkpt lat="47.64989" lon="6.19066">
        <ele>267.5</ele>
        <time>2022-03-04T15:08:05Z</time>
      </trkpt>
      <trkpt lat="47.64986" lon="6.19061">
        <ele>267.4</ele>
        <time>2022-03-04T15:08:06Z</time>
      </trkpt>
      <trkpt lat="47.64984" lon="6.19054">
        <ele>267.4</ele>
        <time>2022-03-04T15:08:07Z</time>
      </trkpt>
      <trkpt lat="47.64983" lon="6.19047">
        <ele>267.4</ele>
        <time>2022-03-04T15:08:08Z</time>
      </trkpt>
      <trkpt lat="47.64984" lon="6.19041">
        <ele>267.4</ele>
        <time>2022-03-04T15:08:09Z</time>
      </trkpt>
      <trkpt lat="47.6499" lon="6.19031">
        <ele>267.6</ele>
        <time>2022-03-04T15:08:11Z</time>
      </trkpt>
      <trkpt lat="47.64997" lon="6.19025">
        <ele>268</ele>
        <time>2022-03-04T15:08:13Z</time>
      </trkpt>
      <trkpt lat="47.65003" lon="6.19021">
        <ele>268.4</ele>
        <time>2022-03-04T15:08:15Z</time>
      </trkpt>
      <trkpt lat="47.65009" lon="6.19016">
        <ele>268.9</ele>
        <time>2022-03-04T15:08:17Z</time>
      </trkpt>
      <trkpt lat="47.65015" lon="6.1901">
        <ele>269.4</ele>
        <time>2022-03-04T15:08:19Z</time>
      </trkpt>
      <trkpt lat="47.65023" lon="6.19002">
        <ele>269.8</ele>
        <time>2022-03-04T15:08:21Z</time>
      </trkpt>
      <trkpt lat="47.65029" lon="6.19">
        <ele>270.1</ele>
        <time>2022-03-04T15:08:26Z</time>
      </trkpt>
      <trkpt lat="47.65034" lon="6.18994">
        <ele>270.6</ele>
        <time>2022-03-04T15:08:27Z</time>
      </trkpt>
      <trkpt lat="47.65039" lon="6.18986">
        <ele>271.1</ele>
        <time>2022-03-04T15:08:29Z</time>
      </trkpt>
      <trkpt lat="47.65043" lon="6.18981">
        <ele>271.4</ele>
        <time>2022-03-04T15:08:31Z</time>
      </trkpt>
      <trkpt lat="47.65047" lon="6.18977">
        <ele>271.7</ele>
        <time>2022-03-04T15:08:32Z</time>
      </trkpt>
      <trkpt lat="47.65051" lon="6.18973">
        <ele>271.8</ele>
        <time>2022-03-04T15:08:34Z</time>
      </trkpt>
      <trkpt lat="47.65057" lon="6.18967">
        <ele>272</ele>
        <time>2022-03-04T15:08:36Z</time>
      </trkpt>
      <trkpt lat="47.65062" lon="6.18961">
        <ele>272.1</ele>
        <time>2022-03-04T15:08:38Z</time>
      </trkpt>
      <trkpt lat="47.65068" lon="6.18956">
        <ele>272.2</ele>
        <time>2022-03-04T15:08:40Z</time>
      </trkpt>
      <trkpt lat="47.65072" lon="6.1895">
        <ele>272.1</ele>
        <time>2022-03-04T15:08:40Z</time>
      </trkpt>
      <trkpt lat="47.65079" lon="6.18943">
        <ele>272</ele>
        <time>2022-03-04T15:08:42Z</time>
      </trkpt>
      <trkpt lat="47.65085" lon="6.18937">
        <ele>271.7</ele>
        <time>2022-03-04T15:08:45Z</time>
      </trkpt>
      <trkpt lat="47.6509" lon="6.18932">
        <ele>271.3</ele>
        <time>2022-03-04T15:08:45Z</time>
      </trkpt>
      <trkpt lat="47.65093" lon="6.18928">
        <ele>271.1</ele>
        <time>2022-03-04T15:08:47Z</time>
      </trkpt>
      <trkpt lat="47.65098" lon="6.18924">
        <ele>270.7</ele>
        <time>2022-03-04T15:08:48Z</time>
      </trkpt>
      <trkpt lat="47.65107" lon="6.18914">
        <ele>270.1</ele>
        <time>2022-03-04T15:08:48Z</time>
      </trkpt>
      <trkpt lat="47.65113" lon="6.18908">
        <ele>270</ele>
        <time>2022-03-04T15:08:49Z</time>
      </trkpt>
      <trkpt lat="47.65119" lon="6.18901">
        <ele>270</ele>
        <time>2022-03-04T15:08:50Z</time>
      </trkpt>
      <trkpt lat="47.65125" lon="6.18895">
        <ele>270</ele>
        <time>2022-03-04T15:08:51Z</time>
      </trkpt>
      <trkpt lat="47.65131" lon="6.1889">
        <ele>270</ele>
        <time>2022-03-04T15:08:52Z</time>
      </trkpt>
      <trkpt lat="47.65136" lon="6.18885">
        <ele>270.2</ele>
        <time>2022-03-04T15:08:53Z</time>
      </trkpt>
      <trkpt lat="47.6514" lon="6.1888">
        <ele>270.3</ele>
        <time>2022-03-04T15:08:54Z</time>
      </trkpt>
      <trkpt lat="47.65145" lon="6.18876">
        <ele>270.6</ele>
        <time>2022-03-04T15:08:55Z</time>
      </trkpt>
      <trkpt lat="47.65148" lon="6.18872">
        <ele>270.7</ele>
        <time>2022-03-04T15:08:56Z</time>
      </trkpt>
      <trkpt lat="47.65153" lon="6.18867">
        <ele>270.9</ele>
        <time>2022-03-04T15:08:59Z</time>
      </trkpt>
      <trkpt lat="47.65157" lon="6.18862">
        <ele>271</ele>
        <time>2022-03-04T15:09:00Z</time>
      </trkpt>
      <trkpt lat="47.65164" lon="6.18855">
        <ele>271</ele>
        <time>2022-03-04T15:09:02Z</time>
      </trkpt>
      <trkpt lat="47.65169" lon="6.1885">
        <ele>270.9</ele>
        <time>2022-03-04T15:09:04Z</time>
      </trkpt>
      <trkpt lat="47.65173" lon="6.18846">
        <ele>270.8</ele>
        <time>2022-03-04T15:09:05Z</time>
      </trkpt>
      <trkpt lat="47.65178" lon="6.18841">
        <ele>270.6</ele>
        <time>2022-03-04T15:09:06Z</time>
      </trkpt>
      <trkpt lat="47.65183" lon="6.18836">
        <ele>270.4</ele>
        <time>2022-03-04T15:09:06Z</time>
      </trkpt>
      <trkpt lat="47.65187" lon="6.18832">
        <ele>270.3</ele>
        <time>2022-03-04T15:09:07Z</time>
      </trkpt>
      <trkpt lat="47.6519" lon="6.18828">
        <ele>270.1</ele>
        <time>2022-03-04T15:09:09Z</time>
      </trkpt>
      <trkpt lat="47.65194" lon="6.18824">
        <ele>270</ele>
        <time>2022-03-04T15:09:10Z</time>
      </trkpt>
      <trkpt lat="47.65198" lon="6.18819">
        <ele>270</ele>
        <time>2022-03-04T15:09:11Z</time>
      </trkpt>
      <trkpt lat="47.65202" lon="6.18815">
        <ele>270</ele>
        <time>2022-03-04T15:09:12Z</time>
      </trkpt>
      <trkpt lat="47.65206" lon="6.18811">
        <ele>270</ele>
        <time>2022-03-04T15:09:13Z</time>
      </trkpt>
      <trkpt lat="47.6521" lon="6.18806">
        <ele>270</ele>
        <time>2022-03-04T15:09:14Z</time>
      </trkpt>
      <trkpt lat="47.65214" lon="6.18802">
        <ele>270</ele>
        <time>2022-03-04T15:09:15Z</time>
      </trkpt>
      <trkpt lat="47.65218" lon="6.18797">
        <ele>270</ele>
        <time>2022-03-04T15:09:16Z</time>
      </trkpt>
      <trkpt lat="47.65221" lon="6.18793">
        <ele>270</ele>
        <time>2022-03-04T15:09:17Z</time>
      </trkpt>
      <trkpt lat="47.65225" lon="6.18788">
        <ele>270.1</ele>
        <time>2022-03-04T15:09:18Z</time>
      </trkpt>
      <trkpt lat="47.65228" lon="6.18784">
        <ele>270.2</ele>
        <time>2022-03-04T15:09:19Z</time>
      </trkpt>
      <trkpt lat="47.65235" lon="6.18776">
        <ele>270.4</ele>
        <time>2022-03-04T15:09:21Z</time>
      </trkpt>
      <trkpt lat="47.65242" lon="6.18768">
        <ele>270.4</ele>
        <time>2022-03-04T15:09:23Z</time>
      </trkpt>
      <trkpt lat="47.65249" lon="6.18761">
        <ele>270.4</ele>
        <time>2022-03-04T15:09:25Z</time>
      </trkpt>
      <trkpt lat="47.65255" lon="6.18755">
        <ele>270.5</ele>
        <time>2022-03-04T15:09:27Z</time>
      </trkpt>
      <trkpt lat="47.65261" lon="6.18748">
        <ele>270.8</ele>
        <time>2022-03-04T15:09:29Z</time>
      </trkpt>
      <trkpt lat="47.65266" lon="6.18749">
        <ele>271.2</ele>
        <time>2022-03-04T15:09:31Z</time>
      </trkpt>
      <trkpt lat="47.65274" lon="6.18741">
        <ele>271.7</ele>
        <time>2022-03-04T15:09:34Z</time>
      </trkpt>
      <trkpt lat="47.65277" lon="6.18735">
        <ele>272</ele>
        <time>2022-03-04T15:09:35Z</time>
      </trkpt>
      <trkpt lat="47.65283" lon="6.18727">
        <ele>272.4</ele>
        <time>2022-03-04T15:09:37Z</time>
      </trkpt>
      <trkpt lat="47.65288" lon="6.1872">
        <ele>272.7</ele>
        <time>2022-03-04T15:09:39Z</time>
      </trkpt>
      <trkpt lat="47.65293" lon="6.18714">
        <ele>272.8</ele>
        <time>2022-03-04T15:09:41Z</time>
      </trkpt>
      <trkpt lat="47.65296" lon="6.18708">
        <ele>272.8</ele>
        <time>2022-03-04T15:09:43Z</time>
      </trkpt>
      <trkpt lat="47.653" lon="6.18702">
        <ele>272.9</ele>
        <time>2022-03-04T15:09:45Z</time>
      </trkpt>
      <trkpt lat="47.65304" lon="6.18698">
        <ele>273</ele>
        <time>2022-03-04T15:09:47Z</time>
      </trkpt>
      <trkpt lat="47.65308" lon="6.18695">
        <ele>273.1</ele>
        <time>2022-03-04T15:09:48Z</time>
      </trkpt>
      <trkpt lat="47.65313" lon="6.1869">
        <ele>273.3</ele>
        <time>2022-03-04T15:09:50Z</time>
      </trkpt>
      <trkpt lat="47.65316" lon="6.18683">
        <ele>273.4</ele>
        <time>2022-03-04T15:09:52Z</time>
      </trkpt>
      <trkpt lat="47.65318" lon="6.18676">
        <ele>273.5</ele>
        <time>2022-03-04T15:09:54Z</time>
      </trkpt>
      <trkpt lat="47.65317" lon="6.18668">
        <ele>273.4</ele>
        <time>2022-03-04T15:09:56Z</time>
      </trkpt>
      <trkpt lat="47.65313" lon="6.18662">
        <ele>273.1</ele>
        <time>2022-03-04T15:09:57Z</time>
      </trkpt>
      <trkpt lat="47.65308" lon="6.18655">
        <ele>272.7</ele>
        <time>2022-03-04T15:09:59Z</time>
      </trkpt>
      <trkpt lat="47.65304" lon="6.18649">
        <ele>272.3</ele>
        <time>2022-03-04T15:10:00Z</time>
      </trkpt>
      <trkpt lat="47.653" lon="6.18645">
        <ele>272</ele>
        <time>2022-03-04T15:10:01Z</time>
      </trkpt>
      <trkpt lat="47.65296" lon="6.18639">
        <ele>271.7</ele>
        <time>2022-03-04T15:10:02Z</time>
      </trkpt>
      <trkpt lat="47.65291" lon="6.18633">
        <ele>271.4</ele>
        <time>2022-03-04T15:10:03Z</time>
      </trkpt>
      <trkpt lat="47.65288" lon="6.18628">
        <ele>271.2</ele>
        <time>2022-03-04T15:10:04Z</time>
      </trkpt>
      <trkpt lat="47.65282" lon="6.18621">
        <ele>271.1</ele>
        <time>2022-03-04T15:10:05Z</time>
      </trkpt>
      <trkpt lat="47.65273" lon="6.18608">
        <ele>270.6</ele>
        <time>2022-03-04T15:10:06Z</time>
      </trkpt>
      <trkpt lat="47.65268" lon="6.18601">
        <ele>270.1</ele>
        <time>2022-03-04T15:10:07Z</time>
      </trkpt>
      <trkpt lat="47.65263" lon="6.18593">
        <ele>269.7</ele>
        <time>2022-03-04T15:10:08Z</time>
      </trkpt>
      <trkpt lat="47.65259" lon="6.18586">
        <ele>269.4</ele>
        <time>2022-03-04T15:10:09Z</time>
      </trkpt>
      <trkpt lat="47.65254" lon="6.18578">
        <ele>269.1</ele>
        <time>2022-03-04T15:10:10Z</time>
      </trkpt>
      <trkpt lat="47.6525" lon="6.1857">
        <ele>269</ele>
        <time>2022-03-04T15:10:11Z</time>
      </trkpt>
      <trkpt lat="47.65245" lon="6.18562">
        <ele>268.7</ele>
        <time>2022-03-04T15:10:12Z</time>
      </trkpt>
      <trkpt lat="47.65241" lon="6.18554">
        <ele>268.3</ele>
        <time>2022-03-04T15:10:13Z</time>
      </trkpt>
      <trkpt lat="47.65237" lon="6.18545">
        <ele>267.9</ele>
        <time>2022-03-04T15:10:14Z</time>
      </trkpt>
      <trkpt lat="47.65233" lon="6.18537">
        <ele>267.5</ele>
        <time>2022-03-04T15:10:15Z</time>
      </trkpt>
      <trkpt lat="47.65229" lon="6.18528">
        <ele>267.3</ele>
        <time>2022-03-04T15:10:16Z</time>
      </trkpt>
      <trkpt lat="47.65225" lon="6.1852">
        <ele>267.1</ele>
        <time>2022-03-04T15:10:17Z</time>
      </trkpt>
      <trkpt lat="47.65222" lon="6.18511">
        <ele>267</ele>
        <time>2022-03-04T15:10:18Z</time>
      </trkpt>
      <trkpt lat="47.65218" lon="6.18502">
        <ele>266.7</ele>
        <time>2022-03-04T15:10:19Z</time>
      </trkpt>
      <trkpt lat="47.65214" lon="6.18494">
        <ele>266.2</ele>
        <time>2022-03-04T15:10:20Z</time>
      </trkpt>
      <trkpt lat="47.6521" lon="6.18485">
        <ele>265.8</ele>
        <time>2022-03-04T15:10:21Z</time>
      </trkpt>
      <trkpt lat="47.65205" lon="6.18477">
        <ele>265.5</ele>
        <time>2022-03-04T15:10:22Z</time>
      </trkpt>
      <trkpt lat="47.65201" lon="6.18469">
        <ele>265.1</ele>
        <time>2022-03-04T15:10:23Z</time>
      </trkpt>
      <trkpt lat="47.65196" lon="6.18461">
        <ele>264.6</ele>
        <time>2022-03-04T15:10:24Z</time>
      </trkpt>
      <trkpt lat="47.6519" lon="6.18453">
        <ele>264.1</ele>
        <time>2022-03-04T15:10:25Z</time>
      </trkpt>
      <trkpt lat="47.65185" lon="6.18446">
        <ele>263.7</ele>
        <time>2022-03-04T15:10:26Z</time>
      </trkpt>
      <trkpt lat="47.6518" lon="6.18438">
        <ele>263.5</ele>
        <time>2022-03-04T15:10:27Z</time>
      </trkpt>
      <trkpt lat="47.65174" lon="6.18431">
        <ele>263.2</ele>
        <time>2022-03-04T15:10:28Z</time>
      </trkpt>
      <trkpt lat="47.65167" lon="6.18425">
        <ele>263</ele>
        <time>2022-03-04T15:10:29Z</time>
      </trkpt>
      <trkpt lat="47.65161" lon="6.18419">
        <ele>262.8</ele>
        <time>2022-03-04T15:10:30Z</time>
      </trkpt>
      <trkpt lat="47.65154" lon="6.18414">
        <ele>262.5</ele>
        <time>2022-03-04T15:10:31Z</time>
      </trkpt>
      <trkpt lat="47.65147" lon="6.18409">
        <ele>262.2</ele>
        <time>2022-03-04T15:10:32Z</time>
      </trkpt>
      <trkpt lat="47.65141" lon="6.18405">
        <ele>262</ele>
        <time>2022-03-04T15:10:33Z</time>
      </trkpt>
      <trkpt lat="47.65134" lon="6.18402">
        <ele>261.7</ele>
        <time>2022-03-04T15:10:34Z</time>
      </trkpt>
      <trkpt lat="47.65128" lon="6.18398">
        <ele>261.2</ele>
        <time>2022-03-04T15:10:35Z</time>
      </trkpt>
      <trkpt lat="47.65123" lon="6.18394">
        <ele>260.9</ele>
        <time>2022-03-04T15:10:36Z</time>
      </trkpt>
      <trkpt lat="47.65118" lon="6.1839">
        <ele>260.5</ele>
        <time>2022-03-04T15:10:37Z</time>
      </trkpt>
      <trkpt lat="47.65114" lon="6.18385">
        <ele>260.2</ele>
        <time>2022-03-04T15:10:38Z</time>
      </trkpt>
      <trkpt lat="47.6511" lon="6.1838">
        <ele>259.9</ele>
        <time>2022-03-04T15:10:39Z</time>
      </trkpt>
      <trkpt lat="47.65105" lon="6.18374">
        <ele>259.8</ele>
        <time>2022-03-04T15:10:40Z</time>
      </trkpt>
      <trkpt lat="47.65101" lon="6.1837">
        <ele>259.6</ele>
        <time>2022-03-04T15:10:41Z</time>
      </trkpt>
      <trkpt lat="47.65096" lon="6.18365">
        <ele>259.5</ele>
        <time>2022-03-04T15:10:42Z</time>
      </trkpt>
      <trkpt lat="47.65092" lon="6.1836">
        <ele>259.3</ele>
        <time>2022-03-04T15:10:43Z</time>
      </trkpt>
      <trkpt lat="47.65087" lon="6.18355">
        <ele>258.9</ele>
        <time>2022-03-04T15:10:44Z</time>
      </trkpt>
      <trkpt lat="47.65081" lon="6.1835">
        <ele>258.5</ele>
        <time>2022-03-04T15:10:45Z</time>
      </trkpt>
      <trkpt lat="47.65076" lon="6.18344">
        <ele>258.3</ele>
        <time>2022-03-04T15:10:46Z</time>
      </trkpt>
      <trkpt lat="47.6507" lon="6.18339">
        <ele>258.1</ele>
        <time>2022-03-04T15:10:47Z</time>
      </trkpt>
      <trkpt lat="47.65065" lon="6.18334">
        <ele>258</ele>
        <time>2022-03-04T15:10:48Z</time>
      </trkpt>
      <trkpt lat="47.65059" lon="6.18329">
        <ele>257.6</ele>
        <time>2022-03-04T15:10:49Z</time>
      </trkpt>
      <trkpt lat="47.65053" lon="6.18326">
        <ele>257.1</ele>
        <time>2022-03-04T15:10:50Z</time>
      </trkpt>
      <trkpt lat="47.65048" lon="6.18323">
        <ele>256.7</ele>
        <time>2022-03-04T15:10:51Z</time>
      </trkpt>
      <trkpt lat="47.65042" lon="6.18321">
        <ele>256.4</ele>
        <time>2022-03-04T15:10:52Z</time>
      </trkpt>
      <trkpt lat="47.65037" lon="6.18319">
        <ele>256.1</ele>
        <time>2022-03-04T15:10:53Z</time>
      </trkpt>
      <trkpt lat="47.65032" lon="6.18311">
        <ele>255.5</ele>
        <time>2022-03-04T15:10:55Z</time>
      </trkpt>
      <trkpt lat="47.65031" lon="6.18305">
        <ele>254.9</ele>
        <time>2022-03-04T15:10:56Z</time>
      </trkpt>
      <trkpt lat="47.6503" lon="6.18296">
        <ele>254.3</ele>
        <time>2022-03-04T15:10:57Z</time>
      </trkpt>
      <trkpt lat="47.65029" lon="6.18287">
        <ele>253.7</ele>
        <time>2022-03-04T15:10:58Z</time>
      </trkpt>
      <trkpt lat="47.65027" lon="6.18276">
        <ele>253</ele>
        <time>2022-03-04T15:10:59Z</time>
      </trkpt>
      <trkpt lat="47.65025" lon="6.18265">
        <ele>252.5</ele>
        <time>2022-03-04T15:11:00Z</time>
      </trkpt>
      <trkpt lat="47.65023" lon="6.18254">
        <ele>252</ele>
        <time>2022-03-04T15:11:01Z</time>
      </trkpt>
      <trkpt lat="47.6502" lon="6.18243">
        <ele>251.4</ele>
        <time>2022-03-04T15:11:02Z</time>
      </trkpt>
      <trkpt lat="47.65016" lon="6.1823">
        <ele>250.9</ele>
        <time>2022-03-04T15:11:03Z</time>
      </trkpt>
      <trkpt lat="47.65014" lon="6.18219">
        <ele>250.3</ele>
        <time>2022-03-04T15:11:04Z</time>
      </trkpt>
      <trkpt lat="47.65011" lon="6.18209">
        <ele>249.5</ele>
        <time>2022-03-04T15:11:05Z</time>
      </trkpt>
      <trkpt lat="47.65008" lon="6.18201">
        <ele>248.8</ele>
        <time>2022-03-04T15:11:06Z</time>
      </trkpt>
      <trkpt lat="47.65007" lon="6.18192">
        <ele>247.9</ele>
        <time>2022-03-04T15:11:07Z</time>
      </trkpt>
      <trkpt lat="47.65005" lon="6.18185">
        <ele>246.9</ele>
        <time>2022-03-04T15:11:08Z</time>
      </trkpt>
      <trkpt lat="47.65005" lon="6.18174">
        <ele>245.5</ele>
        <time>2022-03-04T15:11:10Z</time>
      </trkpt>
      <trkpt lat="47.65005" lon="6.18166">
        <ele>244.5</ele>
        <time>2022-03-04T15:11:13Z</time>
      </trkpt>
      <trkpt lat="47.64999" lon="6.18161">
        <ele>243.6</ele>
        <time>2022-03-04T15:11:16Z</time>
      </trkpt>
      <trkpt lat="47.64994" lon="6.18159">
        <ele>242.7</ele>
        <time>2022-03-04T15:11:19Z</time>
      </trkpt>
      <trkpt lat="47.6499" lon="6.18155">
        <ele>241.7</ele>
        <time>2022-03-04T15:11:21Z</time>
      </trkpt>
      <trkpt lat="47.64986" lon="6.18152">
        <ele>240.8</ele>
        <time>2022-03-04T15:11:23Z</time>
      </trkpt>
      <trkpt lat="47.6498" lon="6.1815">
        <ele>240.1</ele>
        <time>2022-03-04T15:11:26Z</time>
      </trkpt>
      <trkpt lat="47.64975" lon="6.18148">
        <ele>239.5</ele>
        <time>2022-03-04T15:11:28Z</time>
      </trkpt>
      <trkpt lat="47.6497" lon="6.18148">
        <ele>238.9</ele>
        <time>2022-03-04T15:11:31Z</time>
      </trkpt>
      <trkpt lat="47.64964" lon="6.18149">
        <ele>238.3</ele>
        <time>2022-03-04T15:11:33Z</time>
      </trkpt>
      <trkpt lat="47.64959" lon="6.1815">
        <ele>237.7</ele>
        <time>2022-03-04T15:11:35Z</time>
      </trkpt>
      <trkpt lat="47.64953" lon="6.1815">
        <ele>236.8</ele>
        <time>2022-03-04T15:11:37Z</time>
      </trkpt>
      <trkpt lat="47.64947" lon="6.1815">
        <ele>235.7</ele>
        <time>2022-03-04T15:11:39Z</time>
      </trkpt>
      <trkpt lat="47.64941" lon="6.18149">
        <ele>235</ele>
        <time>2022-03-04T15:11:41Z</time>
      </trkpt>
      <trkpt lat="47.64935" lon="6.18147">
        <ele>234.1</ele>
        <time>2022-03-04T15:11:43Z</time>
      </trkpt>
      <trkpt lat="47.64931" lon="6.18144">
        <ele>233.5</ele>
        <time>2022-03-04T15:11:45Z</time>
      </trkpt>
      <trkpt lat="47.64926" lon="6.1814">
        <ele>232.6</ele>
        <time>2022-03-04T15:11:47Z</time>
      </trkpt>
      <trkpt lat="47.64922" lon="6.18137">
        <ele>231.9</ele>
        <time>2022-03-04T15:11:49Z</time>
      </trkpt>
      <trkpt lat="47.64917" lon="6.18134">
        <ele>231.1</ele>
        <time>2022-03-04T15:11:51Z</time>
      </trkpt>
      <trkpt lat="47.64914" lon="6.18129">
        <ele>230</ele>
        <time>2022-03-04T15:11:53Z</time>
      </trkpt>
      <trkpt lat="47.6491" lon="6.18123">
        <ele>228.9</ele>
        <time>2022-03-04T15:11:54Z</time>
      </trkpt>
      <trkpt lat="47.64904" lon="6.18118">
        <ele>227.7</ele>
        <time>2022-03-04T15:11:56Z</time>
      </trkpt>
      <trkpt lat="47.649" lon="6.18115">
        <ele>227</ele>
        <time>2022-03-04T15:11:57Z</time>
      </trkpt>
      <trkpt lat="47.64896" lon="6.18112">
        <ele>226.4</ele>
        <time>2022-03-04T15:11:58Z</time>
      </trkpt>
      <trkpt lat="47.64889" lon="6.18107">
        <ele>225.7</ele>
        <time>2022-03-04T15:12:00Z</time>
      </trkpt>
      <trkpt lat="47.64885" lon="6.18103">
        <ele>225.7</ele>
        <time>2022-03-04T15:12:02Z</time>
      </trkpt>
      <trkpt lat="47.6488" lon="6.18101">
        <ele>225.8</ele>
        <time>2022-03-04T15:12:04Z</time>
      </trkpt>
      <trkpt lat="47.64874" lon="6.181">
        <ele>226.1</ele>
        <time>2022-03-04T15:12:07Z</time>
      </trkpt>
      <trkpt lat="47.64868" lon="6.18097">
        <ele>226.1</ele>
        <time>2022-03-04T15:12:10Z</time>
      </trkpt>
      <trkpt lat="47.64862" lon="6.18094">
        <ele>226.1</ele>
        <time>2022-03-04T15:12:13Z</time>
      </trkpt>
      <trkpt lat="47.64858" lon="6.18088">
        <ele>225.5</ele>
        <time>2022-03-04T15:12:16Z</time>
      </trkpt>
      <trkpt lat="47.64855" lon="6.18083">
        <ele>225</ele>
        <time>2022-03-04T15:12:18Z</time>
      </trkpt>
      <trkpt lat="47.6485" lon="6.1808">
        <ele>224.9</ele>
        <time>2022-03-04T15:12:20Z</time>
      </trkpt>
      <trkpt lat="47.64844" lon="6.18077">
        <ele>224.8</ele>
        <time>2022-03-04T15:12:23Z</time>
      </trkpt>
      <trkpt lat="47.64839" lon="6.18076">
        <ele>224.7</ele>
        <time>2022-03-04T15:12:26Z</time>
      </trkpt>
      <trkpt lat="47.64834" lon="6.18074">
        <ele>224.7</ele>
        <time>2022-03-04T15:12:29Z</time>
      </trkpt>
      <trkpt lat="47.64829" lon="6.18073">
        <ele>224.6</ele>
        <time>2022-03-04T15:12:31Z</time>
      </trkpt>
      <trkpt lat="47.64825" lon="6.18071">
        <ele>224.4</ele>
        <time>2022-03-04T15:12:33Z</time>
      </trkpt>
      <trkpt lat="47.6482" lon="6.1807">
        <ele>224.3</ele>
        <time>2022-03-04T15:12:35Z</time>
      </trkpt>
      <trkpt lat="47.64816" lon="6.18069">
        <ele>224.2</ele>
        <time>2022-03-04T15:12:37Z</time>
      </trkpt>
      <trkpt lat="47.64811" lon="6.18068">
        <ele>224</ele>
        <time>2022-03-04T15:12:39Z</time>
      </trkpt>
      <trkpt lat="47.64804" lon="6.18066">
        <ele>223.8</ele>
        <time>2022-03-04T15:12:41Z</time>
      </trkpt>
      <trkpt lat="47.64799" lon="6.18064">
        <ele>223.8</ele>
        <time>2022-03-04T15:12:43Z</time>
      </trkpt>
      <trkpt lat="47.64792" lon="6.18061">
        <ele>223.7</ele>
        <time>2022-03-04T15:12:45Z</time>
      </trkpt>
      <trkpt lat="47.64785" lon="6.18057">
        <ele>223.2</ele>
        <time>2022-03-04T15:12:47Z</time>
      </trkpt>
      <trkpt lat="47.64777" lon="6.18052">
        <ele>223.1</ele>
        <time>2022-03-04T15:12:49Z</time>
      </trkpt>
      <trkpt lat="47.64772" lon="6.18047">
        <ele>223.8</ele>
        <time>2022-03-04T15:12:51Z</time>
      </trkpt>
      <trkpt lat="47.64768" lon="6.18043">
        <ele>224.2</ele>
        <time>2022-03-04T15:12:52Z</time>
      </trkpt>
      <trkpt lat="47.64763" lon="6.18039">
        <ele>224.4</ele>
        <time>2022-03-04T15:12:54Z</time>
      </trkpt>
      <trkpt lat="47.64759" lon="6.18034">
        <ele>224.3</ele>
        <time>2022-03-04T15:12:55Z</time>
      </trkpt>
      <trkpt lat="47.64754" lon="6.18028">
        <ele>223.9</ele>
        <time>2022-03-04T15:12:57Z</time>
      </trkpt>
      <trkpt lat="47.64749" lon="6.18021">
        <ele>223.9</ele>
        <time>2022-03-04T15:12:59Z</time>
      </trkpt>
      <trkpt lat="47.64745" lon="6.18016">
        <ele>224.3</ele>
        <time>2022-03-04T15:13:01Z</time>
      </trkpt>
      <trkpt lat="47.64742" lon="6.1801">
        <ele>224.3</ele>
        <time>2022-03-04T15:13:03Z</time>
      </trkpt>
      <trkpt lat="47.64738" lon="6.18003">
        <ele>224.1</ele>
        <time>2022-03-04T15:13:05Z</time>
      </trkpt>
      <trkpt lat="47.64735" lon="6.17997">
        <ele>224</ele>
        <time>2022-03-04T15:13:07Z</time>
      </trkpt>
      <trkpt lat="47.64731" lon="6.1799">
        <ele>223.9</ele>
        <time>2022-03-04T15:13:10Z</time>
      </trkpt>
      <trkpt lat="47.64728" lon="6.17985">
        <ele>223.7</ele>
        <time>2022-03-04T15:13:11Z</time>
      </trkpt>
      <trkpt lat="47.64725" lon="6.1798">
        <ele>223.5</ele>
        <time>2022-03-04T15:13:13Z</time>
      </trkpt>
      <trkpt lat="47.64721" lon="6.17973">
        <ele>223.2</ele>
        <time>2022-03-04T15:13:15Z</time>
      </trkpt>
      <trkpt lat="47.64717" lon="6.17968">
        <ele>223.5</ele>
        <time>2022-03-04T15:13:18Z</time>
      </trkpt>
      <trkpt lat="47.64713" lon="6.17962">
        <ele>223.7</ele>
        <time>2022-03-04T15:13:20Z</time>
      </trkpt>
      <trkpt lat="47.64709" lon="6.17957">
        <ele>223.7</ele>
        <time>2022-03-04T15:13:22Z</time>
      </trkpt>
      <trkpt lat="47.64705" lon="6.17951">
        <ele>223.4</ele>
        <time>2022-03-04T15:13:24Z</time>
      </trkpt>
      <trkpt lat="47.64701" lon="6.17946">
        <ele>223.1</ele>
        <time>2022-03-04T15:13:26Z</time>
      </trkpt>
      <trkpt lat="47.64696" lon="6.1794">
        <ele>223</ele>
        <time>2022-03-04T15:13:28Z</time>
      </trkpt>
      <trkpt lat="47.64691" lon="6.17934">
        <ele>223.2</ele>
        <time>2022-03-04T15:13:30Z</time>
      </trkpt>
      <trkpt lat="47.64687" lon="6.17929">
        <ele>223.4</ele>
        <time>2022-03-04T15:13:32Z</time>
      </trkpt>
      <trkpt lat="47.64682" lon="6.17924">
        <ele>223.3</ele>
        <time>2022-03-04T15:13:34Z</time>
      </trkpt>
      <trkpt lat="47.64677" lon="6.17919">
        <ele>223.2</ele>
        <time>2022-03-04T15:13:36Z</time>
      </trkpt>
      <trkpt lat="47.64672" lon="6.17915">
        <ele>223</ele>
        <time>2022-03-04T15:13:38Z</time>
      </trkpt>
      <trkpt lat="47.64666" lon="6.17911">
        <ele>223</ele>
        <time>2022-03-04T15:13:40Z</time>
      </trkpt>
      <trkpt lat="47.6466" lon="6.17907">
        <ele>223.2</ele>
        <time>2022-03-04T15:13:42Z</time>
      </trkpt>
      <trkpt lat="47.64653" lon="6.17904">
        <ele>223.3</ele>
        <time>2022-03-04T15:13:44Z</time>
      </trkpt>
      <trkpt lat="47.64646" lon="6.179">
        <ele>223.3</ele>
        <time>2022-03-04T15:13:46Z</time>
      </trkpt>
      <trkpt lat="47.6464" lon="6.17898">
        <ele>223.3</ele>
        <time>2022-03-04T15:13:48Z</time>
      </trkpt>
      <trkpt lat="47.64636" lon="6.17896">
        <ele>223.2</ele>
        <time>2022-03-04T15:13:49Z</time>
      </trkpt>
      <trkpt lat="47.6463" lon="6.17893">
        <ele>223.1</ele>
        <time>2022-03-04T15:13:51Z</time>
      </trkpt>
      <trkpt lat="47.64623" lon="6.17891">
        <ele>223.1</ele>
        <time>2022-03-04T15:13:52Z</time>
      </trkpt>
      <trkpt lat="47.64618" lon="6.17891">
        <ele>223.1</ele>
        <time>2022-03-04T15:13:54Z</time>
      </trkpt>
      <trkpt lat="47.64613" lon="6.17892">
        <ele>223.1</ele>
        <time>2022-03-04T15:13:55Z</time>
      </trkpt>
      <trkpt lat="47.64606" lon="6.17896">
        <ele>223.1</ele>
        <time>2022-03-04T15:13:56Z</time>
      </trkpt>
      <trkpt lat="47.64601" lon="6.17899">
        <ele>223.1</ele>
        <time>2022-03-04T15:13:57Z</time>
      </trkpt>
      <trkpt lat="47.64596" lon="6.17903">
        <ele>223.2</ele>
        <time>2022-03-04T15:13:58Z</time>
      </trkpt>
      <trkpt lat="47.64591" lon="6.17907">
        <ele>223.4</ele>
        <time>2022-03-04T15:13:59Z</time>
      </trkpt>
      <trkpt lat="47.64586" lon="6.17911">
        <ele>223.6</ele>
        <time>2022-03-04T15:14:00Z</time>
      </trkpt>
      <trkpt lat="47.64582" lon="6.17914">
        <ele>223.7</ele>
        <time>2022-03-04T15:14:01Z</time>
      </trkpt>
      <trkpt lat="47.64578" lon="6.17917">
        <ele>223.7</ele>
        <time>2022-03-04T15:14:02Z</time>
      </trkpt>
      <trkpt lat="47.64571" lon="6.17924">
        <ele>223.7</ele>
        <time>2022-03-04T15:14:04Z</time>
      </trkpt>
      <trkpt lat="47.64566" lon="6.17931">
        <ele>224.1</ele>
        <time>2022-03-04T15:14:06Z</time>
      </trkpt>
      <trkpt lat="47.64561" lon="6.17935">
        <ele>224.2</ele>
        <time>2022-03-04T15:14:08Z</time>
      </trkpt>
      <trkpt lat="47.64557" lon="6.17943">
        <ele>224.9</ele>
        <time>2022-03-04T15:14:10Z</time>
      </trkpt>
      <trkpt lat="47.64555" lon="6.1795">
        <ele>225.2</ele>
        <time>2022-03-04T15:14:12Z</time>
      </trkpt>
      <trkpt lat="47.64553" lon="6.17959">
        <ele>225.3</ele>
        <time>2022-03-04T15:14:15Z</time>
      </trkpt>
      <trkpt lat="47.64551" lon="6.17967">
        <ele>225.5</ele>
        <time>2022-03-04T15:14:18Z</time>
      </trkpt>
      <trkpt lat="47.64548" lon="6.17975">
        <ele>225.6</ele>
        <time>2022-03-04T15:14:20Z</time>
      </trkpt>
      <trkpt lat="47.64547" lon="6.17981">
        <ele>226</ele>
        <time>2022-03-04T15:14:22Z</time>
      </trkpt>
      <trkpt lat="47.64546" lon="6.17989">
        <ele>226.3</ele>
        <time>2022-03-04T15:14:24Z</time>
      </trkpt>
      <trkpt lat="47.64543" lon="6.17997">
        <ele>226.4</ele>
        <time>2022-03-04T15:14:27Z</time>
      </trkpt>
      <trkpt lat="47.64539" lon="6.18003">
        <ele>226.3</ele>
        <time>2022-03-04T15:14:30Z</time>
      </trkpt>
      <trkpt lat="47.64536" lon="6.18011">
        <ele>226</ele>
        <time>2022-03-04T15:14:33Z</time>
      </trkpt>
      <trkpt lat="47.64533" lon="6.1802">
        <ele>225.7</ele>
        <time>2022-03-04T15:14:36Z</time>
      </trkpt>
      <trkpt lat="47.6453" lon="6.18027">
        <ele>225.3</ele>
        <time>2022-03-04T15:14:38Z</time>
      </trkpt>
      <trkpt lat="47.64527" lon="6.18033">
        <ele>225.1</ele>
        <time>2022-03-04T15:14:40Z</time>
      </trkpt>
      <trkpt lat="47.64521" lon="6.1804">
        <ele>225</ele>
        <time>2022-03-04T15:14:42Z</time>
      </trkpt>
      <trkpt lat="47.64516" lon="6.18043">
        <ele>224.7</ele>
        <time>2022-03-04T15:14:43Z</time>
      </trkpt>
      <trkpt lat="47.6451" lon="6.18046">
        <ele>224.4</ele>
        <time>2022-03-04T15:14:44Z</time>
      </trkpt>
      <trkpt lat="47.64503" lon="6.18047">
        <ele>223.9</ele>
        <time>2022-03-04T15:14:46Z</time>
      </trkpt>
      <trkpt lat="47.64498" lon="6.18047">
        <ele>223.6</ele>
        <time>2022-03-04T15:14:47Z</time>
      </trkpt>
      <trkpt lat="47.64492" lon="6.18046">
        <ele>223.5</ele>
        <time>2022-03-04T15:14:48Z</time>
      </trkpt>
      <trkpt lat="47.64486" lon="6.18044">
        <ele>223.3</ele>
        <time>2022-03-04T15:14:49Z</time>
      </trkpt>
      <trkpt lat="47.64478" lon="6.18039">
        <ele>223.1</ele>
        <time>2022-03-04T15:14:51Z</time>
      </trkpt>
      <trkpt lat="47.64473" lon="6.18035">
        <ele>223</ele>
        <time>2022-03-04T15:14:52Z</time>
      </trkpt>
      <trkpt lat="47.64469" lon="6.18032">
        <ele>223</ele>
        <time>2022-03-04T15:14:53Z</time>
      </trkpt>
      <trkpt lat="47.64462" lon="6.18032">
        <ele>222.9</ele>
        <time>2022-03-04T15:14:55Z</time>
      </trkpt>
      <trkpt lat="47.64458" lon="6.1804">
        <ele>222.8</ele>
        <time>2022-03-04T15:14:57Z</time>
      </trkpt>
      <trkpt lat="47.64459" lon="6.18049">
        <ele>222.6</ele>
        <time>2022-03-04T15:14:59Z</time>
      </trkpt>
      <trkpt lat="47.64457" lon="6.18057">
        <ele>222.5</ele>
        <time>2022-03-04T15:15:02Z</time>
      </trkpt>
      <trkpt lat="47.64457" lon="6.18064">
        <ele>222.4</ele>
        <time>2022-03-04T15:15:05Z</time>
      </trkpt>
      <trkpt lat="47.64459" lon="6.18058">
        <ele>222.5</ele>
        <time>2022-03-04T15:15:15Z</time>
      </trkpt>
      <trkpt lat="47.64459" lon="6.18065">
        <ele>222.5</ele>
        <time>2022-03-04T15:15:29Z</time>
      </trkpt>
      <trkpt lat="47.64463" lon="6.18062">
        <ele>222.7</ele>
        <time>2022-03-04T15:17:14Z</time>
      </trkpt>
    </trkseg>
  </trk>
</gpx>